Date StartTime U_cm/s V_cm/s W_cm/s Ustd_cm/s Vstd_cm/s Wstd_cm/s Uvar_(cm/s)^2 Vvar_(cm/s)^2 Wvar_(cm/s)^2 KE_(m/s)^2 TurbulentKE_(m/s)^2 HorizWindSpeed_cm/s FrictionSpeec_cm/s DragCoef SpeedOfSound_m/s SonicTemperature_C Pressure_mb 
12/03/2013  00:00:00     -377.514     -229.270       31.804      348.107      267.753      130.165   121178.620    71691.486    16942.930       20.291       10.491      441.680      174.464        0.156      337.310        9.195      853.048
12/03/2013  00:01:00     -571.629     -225.319      -45.829      272.789      154.400      102.178    74413.776    23839.327    10440.278       24.414        5.435      614.433       99.544        0.026      337.295        9.169      853.070
12/03/2013  00:02:00     -599.251     -315.148      -14.175      294.818      243.320      130.719    86917.475    59204.436    17087.397       31.088        8.160      677.068      156.891        0.054      337.271        9.129      853.047
12/03/2013  00:03:00     -628.846     -206.470      -30.014      370.593      265.952      131.738   137339.495    70730.694    17354.937       33.216       11.271      661.874      155.188        0.055      337.280        9.143      852.997
12/03/2013  00:04:00     -684.023     -244.932      -44.569      384.588      265.015      151.293   147907.573    70232.691    22889.613       38.540       12.051      726.553      191.763        0.070      337.310        9.195      852.954
12/03/2013  00:05:00     -491.439     -162.051       -5.625      339.871      259.157      135.551   115512.227    67162.273    18374.173       23.439       10.052      517.468      139.292        0.072      337.269        9.127      852.899
12/03/2013  00:06:00     -465.549     -321.790       -7.612      309.348      277.565      140.161    95695.966    77042.382    19645.063       25.632        9.619      565.937      159.686        0.080      337.249        9.093      852.844
12/03/2013  00:07:00     -439.269     -189.955        1.336      336.634      255.761      149.886   113322.648    65413.681    22465.670       21.508       10.060      478.582      185.297        0.150      337.258        9.109      852.837
12/03/2013  00:08:00     -591.348     -160.388      -15.452      286.376      225.083      126.280    82011.058    50662.372    15946.605       26.211        7.431      612.713      133.580        0.048      337.249        9.093      852.902
12/03/2013  00:09:00     -402.418     -150.383        2.094      243.831      225.228      106.640    59453.502    50727.596    11372.108       15.303        6.078      429.599      133.702        0.097      337.223        9.050      852.962
12/03/2013  00:10:00     -404.427     -177.529       -1.211      245.816      217.075      101.165    60425.265    47121.357    10234.337       15.641        5.889      441.676      107.324        0.059      337.226        9.055      852.949
12/03/2013  00:11:00     -604.346      -72.632      -32.178      272.415      220.778      116.177    74209.878    48742.775    13497.204       25.397        6.822      608.695      111.556        0.034      337.256        9.104      852.935
12/03/2013  00:12:00     -457.668     -281.238      -11.405      289.707      251.299      125.706    83930.207    63151.102    15801.957       22.575        8.144      537.172      130.752        0.059      337.276        9.139      852.955
12/03/2013  00:13:00     -409.537      -81.267      -10.860      195.350      149.973       91.944    38161.790    22492.049     8453.772       12.176        3.455      417.523      103.827        0.062      337.216        9.038      852.990
12/03/2013  00:14:00     -532.521     -249.009      -11.708      299.378      249.417      128.491    89627.227    62208.859    16509.829       25.700        8.417      587.864      159.049        0.073      337.205        9.021      852.955
12/03/2013  00:15:00     -419.238     -147.311      -29.697      253.619      231.993      112.351    64322.656    53820.580    12622.775       16.453        6.538      444.366      135.842        0.093      337.214        9.036      852.925
12/03/2013  00:16:00     -458.041     -196.195        0.423      370.251      285.171      125.713   137085.764    81322.496    15803.831       24.121       11.711      498.291      136.641        0.075      337.218        9.041      852.886
12/03/2013  00:17:00     -639.674     -124.536      -36.121      347.616      283.702      115.810   120836.744    80486.888    13411.887       32.032       10.737      651.684      140.712        0.047      337.218        9.040      852.866
12/03/2013  00:18:00     -287.880      -72.367        7.180      192.560      175.769      102.585    37079.304    30894.828    10523.679        8.332        3.925      296.836      100.418        0.114      337.195        9.003      852.887
12/03/2013  00:19:00     -707.876      -20.051      -50.027      320.705      227.836      119.987   102851.414    51909.130    14396.813       33.654        8.458      708.160      142.751        0.041      337.196        9.004      852.850
12/03/2013  00:20:00     -324.560      -34.756        5.688      189.377      154.662       89.008    35863.472    23920.340     7922.392        8.713        3.385      326.416       86.167        0.070      337.202        9.014      852.814
12/03/2013  00:21:00     -450.066      -97.243       -8.082      252.719      206.678      112.534    63866.744    42715.762    12663.955       16.564        5.962      460.451      112.204        0.059      337.214        9.035      852.821
12/03/2013  00:22:00     -570.899     -129.703      -29.592      237.880      258.459      119.746    56586.797    66800.802    14339.092       24.065        6.886      585.447      119.826        0.042      337.202        9.015      852.853
12/03/2013  00:23:00     -394.706     -112.947       -6.008      194.179      169.003       84.358    37705.347    28562.151     7116.284       12.097        3.669      410.548       91.314        0.049      337.162        8.948      852.864
12/03/2013  00:24:00     -441.432      -99.382       -9.878      276.125      171.742       96.690    76245.223    29495.295     9348.889       15.994        5.754      452.481      110.268        0.059      337.153        8.933      852.887
12/03/2013  00:25:00     -388.669       53.488      -33.593      171.326      136.903       69.905    29352.463    18742.456     4886.778       10.401        2.649      392.332       35.752        0.008      337.166        8.954      852.847
12/03/2013  00:26:00     -588.555     -148.999       -2.622      410.444      268.924      132.713   168464.493    72320.175    17612.701       31.345       12.920      607.123      181.397        0.089      337.204        9.017      852.730
12/03/2013  00:27:00     -638.104     -217.966      -16.144      286.263      206.728      117.007    81946.408    42736.409    13690.605       29.663        6.919      674.304      129.134        0.037      337.216        9.038      852.723
12/03/2013  00:28:00     -694.002     -121.894      -46.444      239.860      203.934      101.404    57532.770    41589.186    10282.714       30.401        5.470      704.625      108.088        0.024      337.204        9.017      852.778
12/03/2013  00:29:00     -564.947     -137.327      -18.243      260.666      190.266      101.872    67946.749    36201.105    10377.857       22.642        5.726      581.398      122.520        0.044      337.193        9.000      852.833
12/03/2013  00:30:00     -578.017      -75.429      -18.768      244.808      221.870      105.475    59931.119    49226.171    11125.056       23.019        6.014      582.918      119.068        0.042      337.252        9.099      852.802
12/03/2013  00:31:00     -690.842     -203.806      -28.595      268.591      221.379      110.602    72141.344    49008.746    12232.758       32.647        6.669      720.277      121.411        0.028      337.243        9.083      852.770
12/03/2013  00:32:00     -517.509     -142.952       -6.754      271.091      217.279      102.251    73490.258    47210.145    10455.283       20.970        6.558      536.890      108.751        0.041      337.237        9.073      852.760
12/03/2013  00:33:00     -691.848     -179.743      -22.590      317.824      232.919       92.103   101012.085    54251.485     8482.982       33.758        8.187      714.815      113.921        0.025      337.264        9.118      852.706
12/03/2013  00:34:00     -599.751      -85.298      -25.243      330.262      250.398      108.180   109073.134    62699.319    11702.830       27.551        9.174      605.786      131.796        0.047      337.278        9.141      852.713
12/03/2013  00:35:00     -690.103      -15.904      -43.710      290.476      190.206      124.037    84376.552    36178.244    15385.131       30.715        6.797      690.286      141.023        0.042      337.285        9.154      852.706
12/03/2013  00:36:00     -626.478     -130.183      -12.903      269.702      190.236      103.240    72739.143    36189.711    10658.484       26.456        5.979      639.862      124.277        0.038      337.268        9.125      852.689
12/03/2013  00:37:00     -681.395      -58.999      -40.324      282.002      220.518      111.551    79525.118    48628.357    12443.602       30.497        7.030      683.944      111.626        0.027      337.256        9.104      852.700
12/03/2013  00:38:00     -564.341      -76.323       -5.271      303.016      217.890      113.762    91818.801    47476.179    12941.811       23.825        7.612      569.479      132.949        0.055      337.265        9.120      852.694
12/03/2013  00:39:00     -453.563     -171.125       14.540      308.372      205.919      105.392    95093.471    42402.484    11107.482       19.188        7.430      484.771      136.671        0.079      337.280        9.145      852.710
12/03/2013  00:40:00     -743.674     -101.334      -37.709      256.580      268.233      120.390    65833.256    71948.822    14493.758       35.848        7.614      750.546      123.963        0.027      337.302        9.182      852.761
12/03/2013  00:41:00     -478.877      -52.263      -11.307      229.547      147.510       86.249    52691.828    21759.136     7438.944       15.702        4.094      481.720       85.672        0.032      337.281        9.146      852.783
12/03/2013  00:42:00     -540.370     -108.740      -22.810      217.319      229.333      113.997    47227.475    52593.417    12995.393       20.856        5.641      551.202      113.481        0.042      337.256        9.104      852.779
12/03/2013  00:43:00     -636.667     -214.523      -24.433      232.630      214.597      113.759    54116.948    46051.853    12941.086       28.251        5.655      671.837      110.678        0.027      337.290        9.162      852.768
12/03/2013  00:44:00     -611.997      -82.131      -16.166      299.478      261.101      118.501    89687.197    68173.779    14042.397       27.669        8.595      617.484      115.892        0.035      337.288        9.158      852.793
12/03/2013  00:45:00     -392.598      -64.390       13.452      268.687      184.223       93.454    72192.857    33937.960     8733.578       13.664        5.743      397.843       94.344        0.056      337.250        9.095      852.819
12/03/2013  00:46:00     -627.973     -145.417      -27.845      278.276      189.434      109.428    77437.442    35885.192    11974.399       27.076        6.265      644.589      120.548        0.035      337.285        9.153      852.814
12/03/2013  00:47:00     -575.258      -48.579      -20.325      199.132      179.198       91.797    39653.514    32111.968     8426.696       20.693        4.010      577.305       97.616        0.029      337.286        9.155      852.844
12/03/2013  00:48:00     -723.523     -125.173      -31.706      274.434      182.688      103.644    75313.919    33374.839    10742.091       32.977        5.972      734.271      121.797        0.028      337.311        9.198      852.828
12/03/2013  00:49:00     -730.978     -149.126      -60.164      308.364      259.438      126.455    95088.116    67307.981    15990.960       36.925        8.919      746.035      128.129        0.029      337.338        9.242      852.808
12/03/2013  00:50:00     -506.087     -119.320      -19.199      242.980      213.185      103.793    59039.249    45447.677    10772.923       19.297        5.763      519.962      109.923        0.045      337.347        9.257      852.837
12/03/2013  00:51:00     -511.725     -172.971       -8.560      376.718      175.075      132.565   141916.601    30651.320    17573.527       24.096        9.507      540.168      170.535        0.100      337.346        9.256      852.782
12/03/2013  00:52:00     -423.449     -169.815      -12.006      225.265      168.443       95.191    50744.157    28372.924     9061.381       14.822        4.409      456.231      101.346        0.049      337.319        9.210      852.741
12/03/2013  00:53:00     -599.959     -108.285      -13.085      313.247      210.659      119.292    98123.453    44377.103    14230.651       26.426        7.837      609.653      132.062        0.047      337.333        9.234      852.697
12/03/2013  00:54:00     -606.223     -301.520      -23.902      240.096      205.043      116.676    57646.003    42042.586    13613.252       28.612        5.665      677.068      110.224        0.027      337.325        9.219      852.633
12/03/2013  00:55:00     -419.629     -100.722      -18.655      185.865      201.265       84.289    34545.783    40507.784     7104.662       13.435        4.108      431.548       89.345        0.043      337.307        9.188      852.644
12/03/2013  00:56:00     -352.427      -67.244       -5.141      294.553      162.013       78.750    86761.497    26248.141     6201.583       12.396        5.961      358.785      113.285        0.100      337.301        9.181      852.663
12/03/2013  00:57:00     -632.566     -243.344      -32.848      235.102      199.643      106.399    55272.757    39857.205    11320.795       28.342        5.323      677.758      106.638        0.025      337.325        9.220      852.596
12/03/2013  00:58:00     -242.059      -45.993       14.378      188.259      136.805       83.012    35441.519    18715.676     6890.918        6.097        3.052      246.390       84.846        0.119      337.305        9.187      852.573
12/03/2013  00:59:00     -387.004      -14.363      -16.253      224.494      160.859       89.179    50397.423    25875.618     7952.954       11.722        4.211      387.271       96.089        0.062      337.289        9.159      852.536
12/03/2013  01:00:00     -308.013      -46.206       -4.641      260.267      132.363       72.358    67738.912    17519.979     5235.703        9.374        4.525      311.459       86.141        0.076      337.283        9.150      852.507
12/03/2013  01:01:00     -356.998     -145.846      -20.129      183.221      161.600       78.934    33570.087    26114.416     6230.508       10.751        3.296      385.640       85.072        0.049      337.303        9.184      852.524
12/03/2013  01:02:00     -341.180      -13.742      -12.629      179.139      147.627       82.109    32090.943    21793.879     6741.862        8.868        3.031      341.457       80.498        0.056      337.269        9.127      852.512
12/03/2013  01:03:00     -552.568        4.232      -32.187      245.346      165.633       88.416    60194.514    27434.283     7817.458       20.090        4.772      552.584      105.359        0.036      337.297        9.173      852.426
12/03/2013  01:04:00     -220.867      -50.748       25.263      185.720      111.023       73.016    34492.062    12326.065     5331.289        5.206        2.607      226.622       96.760        0.182      337.287        9.158      852.396
12/03/2013  01:05:00     -254.811      -37.152       -2.855      219.343      152.741       85.210    48111.526    23329.675     7260.799        7.249        3.935      257.505      108.870        0.179      337.312        9.200      852.355
12/03/2013  01:06:00     -402.472     -131.586       -4.557      216.658      174.921       89.791    46940.590    30597.336     8062.476       13.244        4.280      423.437      100.376        0.056      337.340        9.246      852.317
12/03/2013  01:07:00     -326.427      -97.025      -10.402      152.862      150.122       66.835    23366.882    22536.495     4466.932        8.321        2.519      340.541       73.777        0.047      337.340        9.244      852.331
12/03/2013  01:08:00     -333.049      -82.411       -5.416      219.152      141.689       73.188    48027.684    20075.802     5356.538        9.559        3.673      343.094       93.735        0.075      337.338        9.241      852.313
12/03/2013  01:09:00     -488.777     -155.242      -57.708      210.588      196.233       89.542    44347.274    38507.504     8017.753       17.858        4.544      512.838       89.815        0.031      337.363        9.284      852.255
12/03/2013  01:10:00     -220.338     -109.694       -3.540      186.999      148.780       73.789    34968.768    22135.386     5444.834        6.156        3.127      246.133       87.251        0.126      337.342        9.249      852.251
12/03/2013  01:11:00     -184.628     -112.351       -6.266      133.413      122.628       78.809    17798.896    15037.631     6210.882        4.289        1.952      216.126       79.932        0.137      337.397        9.340      852.238
12/03/2013  01:12:00     -310.598      -76.223       -7.955      174.783      138.580       71.557    30549.096    19204.435     5120.358        7.860        2.744      319.815       84.108        0.069      337.354        9.269      852.220
12/03/2013  01:13:00     -257.953      -55.546       12.706      200.536      123.823       74.681    40214.839    15332.039     5577.211        6.544        3.056      263.865       90.657        0.118      337.363        9.284      852.182
12/03/2013  01:14:00     -226.901     -151.938        4.793      195.977      139.813       69.341    38406.931    19547.774     4808.165        6.867        3.138      273.074       87.872        0.104      337.389        9.327      852.174
12/03/2013  01:15:00     -460.333     -108.276      -11.870      208.013      196.349       78.679    43269.457    38553.072     6190.446       15.587        4.401      472.895       81.885        0.030      337.429        9.393      852.155
12/03/2013  01:16:00     -351.225      -71.160       -5.186      154.983      110.854       76.373    24019.827    12288.683     5832.881        8.529        2.107      358.361       72.158        0.041      337.462        9.450      852.180
12/03/2013  01:17:00     -261.492      -63.155        9.841      252.088      144.791       96.123    63548.321    20964.509     9239.598        8.309        4.688      269.011      118.721        0.195      337.499        9.511      852.162
12/03/2013  01:18:00     -459.775     -155.099      -25.299      242.933      238.177      105.763    59016.256    56728.158    11185.723       18.148        6.347      485.231      104.651        0.047      337.513        9.534      852.127
12/03/2013  01:19:00     -532.157     -190.118       -6.364      283.733      219.485      123.701    80504.305    48173.676    15301.826       23.165        7.199      565.098      139.501        0.061      337.544        9.585      852.062
12/03/2013  01:20:00     -399.094     -157.350      -11.042      245.150      133.978       84.574    60098.486    17950.015     7152.729       13.466        4.260      428.993      110.027        0.066      337.545        9.586      852.102
12/03/2013  01:21:00     -409.246     -214.772      -17.525      228.287      173.508       99.762    52115.124    30105.046     9952.432       15.303        4.609      462.179      118.178        0.065      337.533        9.568      852.081
12/03/2013  01:22:00     -559.876      -48.686      -11.359      241.052      207.937      124.002    58106.000    43237.845    15376.421       21.632        5.836      561.989      135.577        0.058      337.552        9.597      852.047
12/03/2013  01:23:00     -481.924     -233.957      -27.465      204.537      195.872       95.846    41835.517    38365.748     9186.377       18.855        4.469      535.712       97.573        0.033      337.555        9.604      852.007
12/03/2013  01:24:00     -493.657     -313.218      -35.875      258.384      211.258      127.251    66762.380    44630.079    16192.807       23.531        6.379      584.639      150.095        0.066      337.587        9.658      851.931
12/03/2013  01:25:00     -417.749     -357.191      -10.585      248.880      194.755      129.476    61941.121    37929.434    16763.997       20.940        5.832      549.635      122.014        0.049      337.587        9.659      851.885
12/03/2013  01:26:00     -390.206     -308.480      -26.889      284.266      218.021      113.010    80807.431    47533.300    12771.369       19.460        7.056      497.414      142.216        0.082      337.587        9.658      851.906
12/03/2013  01:27:00     -555.733     -323.764       -7.513      346.606      250.016      147.539   120135.861    62507.857    21767.866       30.902       10.221      643.166      173.074        0.072      337.592        9.667      851.843
12/03/2013  01:28:00     -582.950     -155.102      -35.580      284.757      271.359       99.470    81086.546    73635.527     9894.212       26.485        8.231      603.231      104.586        0.030      337.589        9.663      851.868
12/03/2013  01:29:00     -500.328     -306.994      -17.597      239.192      228.869      120.262    57212.810    52380.945    14462.869       23.445        6.203      587.004      138.402        0.056      337.591        9.664      851.853
12/03/2013  01:30:00     -514.564     -176.809      -20.869      259.969      210.986      101.732    67583.732    44515.020    10349.379       20.944        6.122      544.093      114.572        0.044      337.576        9.638      851.864
12/03/2013  01:31:00     -496.157     -258.206      -16.172      242.103      212.612      106.276    58613.787    45203.732    11294.503       21.408        5.756      559.323      114.277        0.042      337.583        9.651      851.843
12/03/2013  01:32:00     -570.197     -346.256      -17.013      291.584      213.623      107.851    85021.465    45634.764    11631.810       29.377        7.114      667.097      142.280        0.045      337.613        9.702      851.777
12/03/2013  01:33:00     -401.964     -247.039        7.646      255.602      213.234      109.373    65332.343    45468.932    11962.441       17.269        6.138      471.808      126.382        0.072      337.602        9.683      851.722
12/03/2013  01:34:00     -312.060     -154.057       -1.551      156.129      144.678       74.434    24376.322    20931.833     5540.422        8.597        2.542      348.016       70.939        0.042      337.590        9.663      851.632
12/03/2013  01:35:00     -342.281     -203.957       -9.780      140.336      117.991       67.471    19694.238    13921.920     4552.388        9.850        1.908      398.440       66.825        0.028      337.585        9.653      851.567
12/03/2013  01:36:00     -318.407     -167.885        4.451      200.158      186.920       98.626    40063.352    34939.158     9726.995       10.714        4.236      359.956       91.895        0.065      337.580        9.645      851.583
12/03/2013  01:37:00     -422.941     -347.038       -6.912      302.396      227.771      122.035    91443.337    51879.705    14892.462       22.876        7.911      547.097      155.696        0.081      337.610        9.699      851.495
12/03/2013  01:38:00     -285.988     -177.708        1.506      187.390      225.185      109.138    35115.144    50708.439    11911.184       10.553        4.887      336.704      125.919        0.140      337.593        9.668      851.478
12/03/2013  01:39:00     -310.140     -209.621       -7.719      172.770      137.917       76.748    29849.545    19021.236     5890.220        9.746        2.738      374.336       80.967        0.047      337.571        9.632      851.463
12/03/2013  01:40:00     -253.678     -179.032       -2.837      179.922      157.933       83.389    32372.024    24942.946     6953.776        8.033        3.213      310.492       78.170        0.063      337.549        9.594      851.459
12/03/2013  01:41:00     -425.119     -161.620      -15.740      138.263      116.720       69.266    19116.563    13623.608     4797.737       12.231        1.877      454.804       66.904        0.022      337.537        9.573      851.419
12/03/2013  01:42:00     -482.722     -131.863      -21.827      214.527      130.767       73.820    46021.761    17099.995     5449.446       15.971        3.429      500.408       77.587        0.024      337.516        9.539      851.385
12/03/2013  01:43:00     -428.020     -227.445       -3.049      234.810      229.756      110.512    55135.945    52787.913    12212.975       17.751        6.007      484.698      108.010        0.050      337.527        9.558      851.362
12/03/2013  01:44:00     -528.961     -190.456        0.083      278.259      263.001      124.057    77428.246    69169.652    15390.141       23.900        8.099      562.204      138.829        0.061      337.516        9.538      851.348
12/03/2013  01:45:00     -513.475     -264.889      -12.272      267.619      246.132      116.791    71619.937    60580.986    13640.082       23.988        7.292      577.774      139.309        0.058      337.509        9.526      851.336
12/03/2013  01:46:00     -651.402     -217.692      -46.921      348.894      262.477      119.446   121726.869    68894.424    14267.452       33.936       10.244      686.814      142.696        0.043      337.546        9.590      851.305
12/03/2013  01:47:00     -435.830     -241.167       -9.594      294.886      202.863      119.375    86957.572    41153.355    14250.495       19.525        7.118      498.105      123.319        0.061      337.542        9.583      851.284
12/03/2013  01:48:00     -253.634     -203.985        8.736      259.041      256.977      132.433    67102.254    66037.329    17538.432       12.832        7.534      325.485      145.373        0.199      337.559        9.611      851.264
12/03/2013  01:49:00     -778.969     -226.340       -5.154      334.203      251.275      141.710   111691.584    63139.340    20081.687       42.644        9.746      811.186      152.434        0.035      337.571        9.631      851.202
12/03/2013  01:50:00     -598.696     -349.568       -9.676      326.419      258.429      144.735   106549.638    66785.425    20948.179       33.747        9.714      693.278      175.994        0.064      337.587        9.658      851.250
12/03/2013  01:51:00     -547.156     -252.624      -27.804      279.256      302.177      108.823    77983.946    91310.934    11842.370       27.252        9.057      602.660      122.049        0.041      337.568        9.627      851.233
12/03/2013  01:52:00     -545.749     -240.744      -30.375      328.829      237.412      113.214   108128.340    56364.455    12817.333       26.698        8.866      596.489      136.808        0.053      337.569        9.629      851.225
12/03/2013  01:53:00     -556.255     -351.701      -25.399      349.214      284.741      152.076   121950.140    81077.256    23127.246       32.991       11.308      658.113      173.477        0.069      337.572        9.633      851.210
12/03/2013  01:54:00     -432.030     -207.300      -11.998      221.247      253.647      107.672    48950.094    64336.779    11593.314       17.730        6.244      479.190      112.496        0.055      337.555        9.603      851.248
12/03/2013  01:55:00     -491.584     -196.694       -6.468      272.216      212.531      130.985    74101.412    45169.489    17157.121       20.838        6.821      529.475      139.264        0.069      337.514        9.536      851.285
12/03/2013  01:56:00     -542.445     -306.496      -47.616      281.759      263.549      122.131    79388.387    69458.163    14916.020       27.708        8.188      623.046      118.971        0.036      337.515        9.536      851.253
12/03/2013  01:57:00     -787.945     -293.977      -35.156      418.075      306.214      145.104   174786.417    93767.052    21055.134       49.900       14.480      840.999      161.493        0.037      337.507        9.523      851.241
12/03/2013  01:58:00     -699.742     -286.434      -30.691      337.405      269.510      124.143   113842.355    72635.567    15411.472       38.722       10.094      756.097      124.899        0.027      337.475        9.471      851.280
12/03/2013  01:59:00     -514.428     -222.564        0.521      335.702      171.313      127.856   112695.806    29348.117    16347.105       23.625        7.920      560.510      168.247        0.090      337.457        9.440      851.218
12/03/2013  02:00:00     -274.915     -127.182       18.307      206.745      222.979      105.405    42743.666    49719.550    11110.256        9.781        5.179      302.908      114.170        0.142      337.461        9.448      851.218
12/03/2013  02:01:00     -584.184     -143.734      -19.515      305.934      138.770       93.362    93595.790    19257.122     8716.548       24.192        6.078      601.607      121.232        0.041      337.448        9.424      851.259
12/03/2013  02:02:00     -699.080     -226.743      -48.500      313.983      275.046      124.667    98585.126    75650.296    15541.834       36.609        9.489      734.932      134.290        0.033      337.475        9.471      851.263
12/03/2013  02:03:00     -574.009     -155.388       -3.549      290.329      237.047      119.590    84291.101    56191.180    14301.681       25.418        7.739      594.670      135.548        0.052      337.508        9.526      851.289
12/03/2013  02:04:00     -594.834     -338.271      -26.152      303.884      227.946      123.997    92345.394    51959.240    15375.137       31.428        7.984      684.292      125.772        0.034      337.528        9.559      851.343
12/03/2013  02:05:00     -479.784     -166.261        6.965      270.814      189.798      131.350    73340.353    36023.287    17252.913       19.223        6.331      507.775      145.204        0.082      337.497        9.507      851.309
12/03/2013  02:06:00     -477.750     -200.459      -28.170      328.716      206.394      126.000   108054.333    42598.613    15876.004       21.784        8.326      518.102      148.355        0.082      337.518        9.542      851.311
12/03/2013  02:07:00     -866.731     -137.140      -50.024      285.408      246.067      137.932    81457.662    60548.962    19025.371       46.675        8.052      877.513      145.455        0.027      337.525        9.554      851.310
12/03/2013  02:08:00     -478.334     -168.629      -16.996      378.335      219.981      130.066   143137.141    48391.843    16917.202       23.295       10.422      507.188      165.169        0.106      337.569        9.627      851.355
12/03/2013  02:09:00     -517.028     -325.804      -22.784      315.418      228.577      129.671    99488.358    52247.567    16814.615       27.123        8.428      611.119      152.370        0.062      337.577        9.642      851.320
12/03/2013  02:10:00     -376.816     -161.239       -8.573      222.908      207.115       99.195    49688.013    42896.714     9839.557       13.522        5.121      409.864      108.648        0.070      337.566        9.622      851.381
12/03/2013  02:11:00     -360.295      -39.165       -4.811      252.894      177.522      107.031    63955.159    31514.141    11455.678       11.913        5.346      362.417      117.961        0.106      337.547        9.589      851.350
12/03/2013  02:12:00     -476.482     -205.391      -13.839      269.302      189.103      103.662    72523.686    35759.935    10745.724       19.420        5.951      518.864      113.100        0.048      337.553        9.600      851.319
12/03/2013  02:13:00     -375.186     -139.038        2.099      284.257      167.236      114.771    80802.220    27967.825    13172.472       14.100        6.097      400.120      137.774        0.119      337.565        9.621      851.226
12/03/2013  02:14:00     -528.197     -210.441       -5.223      283.442      237.642      134.574    80339.193    56473.534    18110.099       23.908        7.746      568.575      131.607        0.054      337.554        9.603      851.102
12/03/2013  02:15:00     -304.652     -192.575       -4.762      235.606      172.182      106.168    55510.050    29646.699    11271.548       11.316        4.821      360.414      126.632        0.123      337.562        9.617      851.173
12/03/2013  02:16:00     -328.798     -139.499       -7.257      257.314      157.263       99.936    66210.347    24731.714     9987.208       11.426        5.046      357.167      103.524        0.084      337.549        9.595      851.145
12/03/2013  02:17:00     -392.148     -255.429      -17.023      250.978      200.233      129.025    62990.127    40093.365    16647.496       16.950        5.987      468.000      118.896        0.065      337.536        9.573      851.116
12/03/2013  02:18:00     -344.609     -198.841       -3.989      269.582      202.238      124.820    72674.711    40900.315    15580.076       14.371        6.458      397.860      142.279        0.128      337.548        9.593      851.076
12/03/2013  02:19:00     -295.160     -217.641        6.762      259.621      239.006      118.894    67403.169    57123.689    14135.770       13.657        6.933      366.725      144.747        0.156      337.577        9.641      851.026
12/03/2013  02:20:00     -495.656     -101.953      -14.399      301.496      237.840      110.507    90899.830    56567.730    12211.818       20.795        7.984      506.033      126.974        0.063      337.575        9.637      851.111
12/03/2013  02:21:00     -498.531     -278.473      -18.918      302.531      229.053      129.254    91524.836    52465.382    16706.484       24.354        8.035      571.035      145.098        0.065      337.603        9.685      851.169
12/03/2013  02:22:00     -548.457     -100.407      -41.285      290.380      209.117      120.867    84320.390    43729.895    14608.946       22.760        7.133      557.572      129.869        0.054      337.626        9.723      851.244
12/03/2013  02:23:00     -514.730      -85.472       12.296      358.992      225.125      129.346   128875.584    50681.370    16730.512       23.431        9.814      521.778      155.736        0.089      337.629        9.729      851.186
12/03/2013  02:24:00     -348.742     -142.237      -19.120      193.520      172.843       83.388    37449.925    29874.738     6953.619       10.823        3.714      376.633       75.821        0.041      337.639        9.747      851.148
12/03/2013  02:25:00     -394.328     -143.141      -22.566      218.425      220.084      102.039    47709.323    48437.072    10411.863       14.150        5.328      419.505      103.020        0.060      337.656        9.776      851.144
12/03/2013  02:26:00     -495.308      -97.803      -11.545      293.010      210.216      121.733    85854.879    44190.925    14819.043       19.992        7.243      504.872      144.131        0.081      337.653        9.768      851.162
12/03/2013  02:27:00     -494.524     -149.507        3.593      294.933      247.426      123.681    86985.764    61219.466    15297.053       21.518        8.175      516.630      145.791        0.080      337.628        9.727      851.189
12/03/2013  02:28:00     -472.340     -337.066       11.060      291.108      212.777      149.258    84743.875    45274.194    22277.957       24.454        7.615      580.275      158.349        0.074      337.647        9.759      851.226
12/03/2013  02:29:00     -373.965     -226.732      -21.725      255.857      219.614      111.075    65462.672    48230.463    12337.665       15.886        6.302      437.330      136.351        0.097      337.638        9.744      851.265
12/03/2013  02:30:00     -461.164     -313.549      -27.346      283.036      252.999      134.832    80109.338    64008.697    18179.691       23.698        8.115      557.660      151.018        0.073      337.596        9.674      851.306
12/03/2013  02:31:00     -258.637     -217.366       47.337      380.423      281.549      137.371   144721.984    79270.056    18870.831       17.957       12.143      337.848      183.855        0.296      337.609        9.697      851.287
12/03/2013  02:32:00     -551.573     -352.338      -33.440      290.678      244.323      118.524    84493.430    59693.781    14048.048       29.383        7.912      654.504      125.185        0.037      337.588        9.662      851.208
12/03/2013  02:33:00     -433.139     -118.965        2.300      283.177      224.116      114.063    80189.159    50228.130    13010.468       17.257        7.171      449.179      123.965        0.076      337.574        9.637      851.250
12/03/2013  02:34:00     -403.269     -215.253      -44.433      219.109      222.217       87.318    48008.885    49380.617     7624.414       15.795        5.251      457.121      114.038        0.062      337.562        9.615      851.259
12/03/2013  02:35:00     -334.967     -138.527      -16.864      266.411      160.571       81.037    70974.967    25782.897     6567.006       11.748        5.166      362.481       83.746        0.053      337.560        9.613      851.273
12/03/2013  02:36:00     -524.556     -228.619       -8.821      221.052      164.376       90.336    48864.043    27019.407     8160.628       20.576        4.202      572.211      100.671        0.031      337.541        9.580      851.267
12/03/2013  02:37:00     -640.148     -242.600      -33.296      194.152      204.683      103.100    37694.938    41895.266    10629.637       27.997        4.511      684.576       84.122        0.015      337.561        9.614      851.260
12/03/2013  02:38:00     -558.713     -317.407      -14.299      276.691      227.665      119.613    76557.684    51831.453    14307.310       27.788        7.135      642.579      121.035        0.035      337.568        9.625      851.219
12/03/2013  02:39:00     -568.001     -153.395      -16.978      247.971      238.496      114.296    61489.723    56880.145    13063.651       23.891        6.572      588.349      116.981        0.040      337.583        9.652      851.147
12/03/2013  02:40:00     -525.020     -364.780      -16.887      250.774      224.387      118.613    62887.812    50349.433    14069.057       26.813        6.365      639.304      126.361        0.039      337.581        9.649      851.179
12/03/2013  02:41:00     -588.692     -287.404      -17.792      309.437      253.597      135.762    95751.487    64311.633    18431.290       30.395        8.925      655.103      150.197        0.053      337.592        9.667      851.082
12/03/2013  02:42:00     -343.919     -163.647       22.767      239.572      173.908       97.478    57394.609    30243.988     9502.048       12.134        4.857      380.868      100.110        0.069      337.583        9.652      851.089
12/03/2013  02:43:00     -492.105     -186.788       -7.158      238.767      224.759      113.189    57009.504    50516.708    12811.723       19.870        6.017      526.362      125.390        0.057      337.563        9.617      851.167
12/03/2013  02:44:00     -233.783      -76.592       30.624      211.477      199.109       99.289    44722.442    39644.207     9858.275        7.782        4.711      246.010      102.028        0.172      337.565        9.621      851.215
12/03/2013  02:45:00     -458.157     -229.445      -21.204      238.423      185.862       90.966    56845.555    34544.687     8274.744       18.131        4.983      512.399      120.106        0.055      337.541        9.580      851.200
12/03/2013  02:46:00     -340.423     -214.220       35.146      265.324      200.151      100.103    70396.976    40060.285    10020.669       14.172        6.024      402.217      131.409        0.107      337.524        9.551      851.140
12/03/2013  02:47:00     -492.795     -162.440      -13.072      283.649      192.479      117.275    80456.481    37048.013    13753.418       20.030        6.563      518.877      135.108        0.068      337.520        9.546      851.160
12/03/2013  02:48:00     -225.446     -191.223       -2.458      167.092      163.895       85.164    27919.582    26861.418     7252.879        7.470        3.102      295.622       87.552        0.088      337.513        9.533      851.160
12/03/2013  02:49:00     -365.699      -70.100       -8.073      231.372      149.510       81.946    53532.959    22353.164     6715.190       11.064        4.130      372.357       97.116        0.068      337.501        9.513      851.182
12/03/2013  02:50:00     -250.856     -152.382       -7.399      202.403      170.908      100.731    40966.995    29209.621    10146.724        8.325        4.016      293.511      108.057        0.136      337.489        9.494      851.191
12/03/2013  02:51:00     -186.294      -37.049        3.000      193.703      148.326       93.996    37520.768    22000.679     8835.255        5.221        3.418      189.942       79.731        0.176      337.464        9.453      851.143
12/03/2013  02:52:00     -433.942     -145.211      -28.305      242.005      179.966       96.215    58566.328    32387.900     9257.348       15.518        5.011      457.593      105.391        0.053      337.467        9.457      851.122
12/03/2013  02:53:00     -392.371      -74.637      -12.908      238.044      160.772      103.470    56665.149    25847.496    10706.020       12.644        4.661      399.407       98.155        0.060      337.481        9.480      851.070
12/03/2013  02:54:00     -439.120     -116.799       -4.833      258.096      206.333      105.355    66613.459    42573.295    11099.653       16.337        6.014      454.388      125.158        0.076      337.490        9.496      851.024
12/03/2013  02:55:00     -602.025     -276.252      -30.705      329.626      212.824      112.124   108653.013    45294.205    12571.783       30.307        8.326      662.381      138.488        0.044      337.543        9.584      851.046
12/03/2013  02:56:00     -550.104     -213.361      -28.113      295.747      195.561       95.932    87466.110    38244.021     9203.040       24.189        6.746      590.031      112.609        0.036      337.546        9.588      851.039
12/03/2013  02:57:00     -392.459     -200.329        0.140      264.622      181.279      122.147    70024.937    32862.241    14919.857       15.596        5.890      440.631      134.298        0.093      337.560        9.614      850.941
12/03/2013  02:58:00     -548.666     -273.556       -5.707      256.794      220.006      117.644    65943.016    48402.860    13840.190       25.202        6.409      613.080      139.462        0.052      337.547        9.589      850.856
12/03/2013  02:59:00     -348.971     -168.050       15.472      206.953      203.570      103.236    42829.393    41440.867    10657.589       12.258        4.746      387.326      121.271        0.098      337.546        9.589      850.804
12/03/2013  03:00:00     -307.128     -148.096       18.791      226.423      188.445       95.334    51267.572    35511.420     9088.511       10.622        4.793      340.969      106.239        0.097      337.527        9.557      850.751
12/03/2013  03:01:00     -338.077     -216.435       -6.900      199.972      170.423       84.275    39988.954    29043.923     7102.233       11.865        3.807      401.423       89.841        0.050      337.530        9.562      850.590
12/03/2013  03:02:00     -281.565     -185.107        5.796      148.151      146.365       77.792    21948.708    21422.847     6051.528        8.149        2.471      336.962       78.406        0.054      337.537        9.575      850.589
12/03/2013  03:03:00     -515.448     -286.696      -17.824      279.452      272.918      116.986    78093.466    74484.312    13685.711       25.720        8.313      589.814      119.858        0.041      337.580        9.645      850.645
12/03/2013  03:04:00     -500.068     -256.908        2.465      356.281      224.272      132.248   126936.163    50297.813    17489.522       25.536        9.736      562.201      171.099        0.093      337.621        9.716      850.667
12/03/2013  03:05:00     -632.430     -262.695      -29.516      309.243      339.305      140.826    95631.521   115127.750    19831.880       35.017       11.530      684.818      142.450        0.043      337.603        9.684      850.615
12/03/2013  03:06:00     -457.447     -334.107       -9.867      301.027      255.557      120.461    90617.100    65309.433    14510.968       24.568        8.522      566.467      150.306        0.070      337.625        9.723      850.678
12/03/2013  03:07:00     -411.825      -86.528       -3.730      268.336      202.931      114.240    72004.454    41181.052    13050.818       15.164        6.312      420.817      102.456        0.059      337.606        9.691      850.877
12/03/2013  03:08:00     -606.750     -246.238        4.415      387.963      249.408      137.455   150515.135    62204.143    18893.810       33.016       11.581      654.812      178.750        0.075      337.609        9.696      850.931
12/03/2013  03:09:00     -793.103     -379.273      -50.612      323.835      223.515      123.274   104869.232    49958.907    15196.448       47.269        8.501      879.125      138.854        0.025      337.619        9.711      850.943
12/03/2013  03:10:00     -574.371     -145.087      -21.104      213.946      216.585      104.731    45772.991    46909.246    10968.559       22.750        5.183      592.412      116.570        0.039      337.580        9.647      851.007
12/03/2013  03:11:00     -401.754      -90.914      -18.954      257.925      167.768      107.616    66525.481    28145.967    11581.301       13.812        5.313      411.912      111.254        0.073      337.560        9.613      851.025
12/03/2013  03:12:00     -421.833     -241.621       -8.374      237.819      177.617       90.681    56557.976    31547.839     8222.962       16.634        4.816      486.132      100.240        0.043      337.545        9.587      850.954
12/03/2013  03:13:00     -190.656      -34.243        6.791      154.115      124.723       74.776    23751.447    15555.836     5591.406        4.122        2.245      193.707       87.325        0.203      337.540        9.580      850.929
12/03/2013  03:14:00     -343.805     -191.985       -4.724      166.853      163.741       93.229    27839.959    26811.057     8691.702       10.920        3.167      393.776       94.872        0.058      337.533        9.568      850.894
12/03/2013  03:15:00     -316.471     -216.137       -3.440      172.346      129.130       84.759    29703.180    16674.472     7184.059       10.021        2.678      383.235       69.620        0.033      337.519        9.545      850.846
12/03/2013  03:16:00     -274.050     -174.653       -8.145      159.718      148.155       79.139    25509.752    21949.797     6263.006        7.969        2.686      324.973       78.623        0.059      337.505        9.520      850.795
12/03/2013  03:17:00     -522.900     -100.441      -41.101      241.513      176.892       97.319    58328.499    31290.691     9470.944       19.213        4.955      532.459      110.323        0.043      337.488        9.491      850.710
12/03/2013  03:18:00     -330.455     -277.732       -8.107      225.808      292.438       97.312    50989.388    85520.168     9469.613       16.616        7.299      431.666       97.643        0.051      337.505        9.519      850.736
12/03/2013  03:19:00     -247.974     -305.888       32.566      211.009      244.102      134.773    44524.882    59585.942    18163.793       13.917        6.114      393.775      131.613        0.112      337.507        9.523      850.708
12/03/2013  03:20:00     -473.181     -378.877      -18.789      226.524      159.829      112.528    51313.286    25545.382    12662.660       22.864        4.476      606.175      106.951        0.031      337.508        9.525      850.674
12/03/2013  03:21:00     -347.716      -36.117      -19.095      161.850      141.356       78.337    26195.516    19981.496     6136.689        8.743        2.616      349.587       78.391        0.050      337.467        9.458      850.723
12/03/2013  03:22:00     -242.686     -126.714       -1.676      166.859      153.553       85.112    27841.913    23578.483     7244.042        6.680        2.933      273.776       81.517        0.089      337.464        9.452      850.725
12/03/2013  03:23:00     -389.802     -101.561      -20.887      203.617      178.818       76.008    41460.065    31975.982     5777.184       12.094        3.961      402.815       93.367        0.054      337.469        9.460      850.687
12/03/2013  03:24:00     -581.461     -123.330       -3.429      255.940      206.460       99.728    65505.090    42625.681     9945.581       23.567        5.904      594.397      112.811        0.036      337.450        9.429      850.561
12/03/2013  03:25:00     -421.796      -74.460        4.099      230.840      209.733      106.529    53286.985    43988.108    11348.448       14.603        5.431      428.318      112.792        0.069      337.480        9.479      850.565
12/03/2013  03:26:00     -655.958     -308.680      -34.755      286.886      286.130      133.052    82303.418    81870.501    17702.735       35.429        9.094      724.958      147.705        0.042      337.478        9.476      850.554
12/03/2013  03:27:00     -532.225      -93.512      -14.344      258.751      194.421      112.960    66951.955    37799.638    12759.879       20.484        5.876      540.378      131.311        0.059      337.493        9.500      850.583
12/03/2013  03:28:00     -391.857     -108.171       -4.253      196.020      164.476       80.207    38424.008    27052.355     6433.188       11.858        3.595      406.513       92.769        0.052      337.489        9.494      850.594
12/03/2013  03:29:00     -575.450     -434.154      -17.432      351.676      240.591      142.952   123676.248    57884.172    20435.172       36.093       10.100      720.856      178.602        0.061      337.486        9.488      850.613
12/03/2013  03:30:00     -425.063     -317.127       -8.207      282.462      219.165      136.772    79784.919    48033.372    18706.506       21.389        7.326      530.329      161.939        0.093      337.482        9.483      850.573
12/03/2013  03:31:00     -639.901     -233.962        7.304      325.998      256.650      143.289   106274.746    65869.301    20531.840       32.843        9.634      681.330      174.815        0.066      337.469        9.460      850.529
12/03/2013  03:32:00     -402.402     -159.040        0.991      255.306      192.873      110.029    65180.967    37199.812    12106.490       15.083        5.724      432.691      124.477        0.083      337.480        9.479      850.604
12/03/2013  03:33:00     -168.657     -113.858      -11.567      188.804      102.301       68.317    35646.872    10465.452     4667.196        4.615        2.539      203.492       50.491        0.062      337.454        9.437      850.667
12/03/2013  03:34:00     -202.722     -189.772        3.809      192.760      162.479       89.394    37156.573    26399.526     7991.375        7.432        3.577      277.686      105.442        0.144      337.423        9.383      850.639
12/03/2013  03:35:00     -283.519     -108.004        3.513      205.443      171.065       81.598    42207.012    29263.353     6658.159        8.508        3.906      303.394       94.811        0.098      337.429        9.394      850.607
12/03/2013  03:36:00     -385.091     -297.217       -5.777      291.893      256.077      125.264    85201.671    65575.278    15691.191       20.153        8.323      486.449      153.020        0.099      337.430        9.396      850.547
12/03/2013  03:37:00     -399.424      -75.442      -19.219      292.475      208.974       94.097    85541.519    43670.237     8854.258       15.180        6.903      406.486      107.932        0.071      337.433        9.400      850.513
12/03/2013  03:38:00     -364.887     -174.114      -10.166      221.950      180.405      101.675    49261.827    32546.138    10337.743       12.784        4.607      404.300      104.787        0.067      337.419        9.377      850.475
12/03/2013  03:39:00     -390.221     -245.176      -18.277      165.143      156.840       92.441    27272.309    24598.633     8545.356       13.655        3.021      460.851       65.867        0.020      337.412        9.365      850.513
12/03/2013  03:40:00     -372.476     -273.375       -8.598      236.934      224.328      103.952    56137.795    50323.072    10806.048       16.538        5.863      462.030      121.636        0.069      337.424        9.386      850.570
12/03/2013  03:41:00     -415.009     -171.371        6.245      244.492      174.612       98.752    59776.543    30489.515     9751.888       15.081        5.001      448.999      131.401        0.086      337.414        9.370      850.570
12/03/2013  03:42:00     -216.293     -103.228       42.654      281.199      174.386      101.334    79072.973    30410.630    10268.480        8.948        5.988      239.663      131.672        0.302      337.390        9.328      850.495
12/03/2013  03:43:00     -549.373     -200.007       -9.518      270.913      214.328      105.642    73393.855    45936.325    11160.220       23.617        6.525      584.649      129.136        0.049      337.365        9.286      850.461
12/03/2013  03:44:00     -542.257     -361.176      -16.418      283.649      223.943      130.519    80456.717    50150.660    17035.178       28.617        7.382      651.529      141.246        0.047      337.335        9.237      850.404
12/03/2013  03:45:00     -376.763     -260.774      -19.086      208.084      209.439       84.731    43299.046    43864.687     7179.389       15.231        4.717      458.206       94.682        0.043      337.327        9.224      850.415
12/03/2013  03:46:00     -362.202     -196.423       -1.829      219.977      138.298       94.403    48389.907    19126.377     8911.992       12.309        3.821      412.034      109.609        0.071      337.314        9.201      850.392
12/03/2013  03:47:00     -478.964     -367.028      -18.154      319.774      227.077      124.910   102255.304    51563.974    15602.595       26.690        8.471      603.421      147.285        0.060      337.295        9.170      850.383
12/03/2013  03:48:00     -523.827     -287.215      -13.085      260.013      201.902      103.244    67606.517    40764.404    10659.379       23.802        5.952      597.400      101.808        0.029      337.271        9.130      850.423
12/03/2013  03:49:00     -595.421      -90.963      -15.186      314.915      163.354       96.342    99171.169    26684.684     9281.837       24.906        6.757      602.330      120.707        0.040      337.236        9.072      850.411
12/03/2013  03:50:00     -416.198     -294.518       -2.994      292.402      190.766      109.073    85499.101    36391.539    11897.022       19.685        6.689      509.865      130.175        0.065      337.225        9.053      850.402
12/03/2013  03:51:00     -407.162     -227.405      -35.627      208.446      162.425      103.722    43449.733    26381.937    10758.187       14.966        4.029      466.362       94.216        0.041      337.211        9.028      850.316
12/03/2013  03:52:00     -399.579     -256.871      -15.944      252.834      148.373       98.115    63925.004    22014.442     9626.456       16.071        4.778      475.022      103.835        0.048      337.192        8.996      850.368
12/03/2013  03:53:00     -438.332     -187.698        2.712      276.296      216.689       99.521    76339.217    46954.106     9904.393       18.026        6.660      476.828      105.506        0.049      337.168        8.957      850.343
12/03/2013  03:54:00     -390.502     -143.643       -5.758      271.546      201.716      121.920    73737.046    40689.371    14864.542       15.120        6.465      416.083      119.671        0.083      337.143        8.916      850.339
12/03/2013  03:55:00     -345.055     -151.190       -7.816      156.326      157.455       87.077    24437.777    24791.973     7582.461        9.939        2.841      376.725       91.323        0.059      337.124        8.883      850.373
12/03/2013  03:56:00     -383.116     -196.899        2.256      298.109      180.030      116.508    88868.892    32410.927    13574.013       16.018        6.743      430.752      122.461        0.081      337.082        8.813      850.306
12/03/2013  03:57:00     -619.239     -398.279      -31.007      305.263      245.157      149.581    93185.550    60101.923    22374.484       35.932        8.783      736.263      152.485        0.043      337.043        8.747      850.224
12/03/2013  03:58:00     -528.212     -201.914      -30.112      258.350      194.462      121.320    66744.818    37815.309    14718.497       21.996        5.964      565.488      118.686        0.044      337.045        8.750      850.296
12/03/2013  03:59:00     -615.770     -259.523      -14.899      326.833      248.455      131.954   106819.507    61729.849    17411.861       31.632        9.298      668.225      162.643        0.059      337.085        8.818      850.300
12/03/2013  04:00:00     -312.139     -186.510      -15.575      188.738      184.813       85.855    35622.064    34155.699     7371.075       10.479        3.857      363.616       76.361        0.044      337.098        8.838      850.331
12/03/2013  04:01:00     -184.330     -149.170       26.464      194.147      151.383      101.701    37692.997    22916.868    10343.067        6.393        3.548      237.127      108.448        0.209      337.088        8.822      850.314
12/03/2013  04:02:00     -253.852     -139.728       20.372      186.086      139.873       82.594    34628.126    19564.562     6821.687        7.268        3.051      289.767       94.465        0.106      337.072        8.796      850.251
12/03/2013  04:03:00     -466.410     -210.202      -35.503      253.865      187.525       99.006    64447.596    35165.588     9802.133       18.618        5.471      511.589      110.122        0.046      337.105        8.851      850.217
12/03/2013  04:04:00     -631.814     -214.304      -28.851      262.841      214.183      112.293    69085.485    45874.175    12609.748       28.673        6.378      667.170      122.512        0.034      337.121        8.876      850.250
12/03/2013  04:05:00     -412.551     -273.634        4.070      263.838      252.191      128.974    69610.393    63600.217    16634.296       19.744        7.492      495.049      132.666        0.072      337.145        8.919      850.296
12/03/2013  04:06:00     -666.073     -221.668      -31.460      305.426      284.316      122.881    93284.748    80835.638    15099.709       34.146        9.461      701.990      110.748        0.025      337.159        8.943      850.299
12/03/2013  04:07:00     -635.784     -318.033      -16.193      302.396      211.053      140.903    91443.536    44543.412    19853.604       33.070        7.792      710.891      147.204        0.043      337.156        8.937      850.277
12/03/2013  04:08:00     -502.889     -252.094       -9.431      289.563      209.574      115.745    83846.762    43921.319    13396.832       22.882        7.058      562.538      127.244        0.051      337.151        8.930      850.285
12/03/2013  04:09:00     -580.848     -189.736      -24.946      348.057      198.373      125.821   121143.480    39351.687    15830.870       27.513        8.816      611.052      164.568        0.073      337.128        8.890      850.301
12/03/2013  04:10:00     -361.150     -133.961       -2.966      264.704      212.498      107.908    70068.349    45155.528    11644.044       13.760        6.343      385.195      133.041        0.119      337.122        8.881      850.344
12/03/2013  04:11:00     -412.942     -209.927      -16.501      161.695      187.402      100.508    26145.397    35119.496    10101.916       14.310        3.568      463.239       90.465        0.038      337.140        8.910      850.342
12/03/2013  04:12:00     -360.931     -285.932      -21.116      199.667      176.764       97.481    39866.820    31245.434     9502.466       14.653        4.031      460.466      100.662        0.048      337.139        8.909      850.295
12/03/2013  04:13:00     -345.146     -248.822      -15.524      197.743      159.655       91.009    39102.146    25489.766     8282.685       12.706        3.644      425.485       99.973        0.055      337.132        8.895      850.305
12/03/2013  04:14:00     -309.462     -153.130        5.150      186.263      194.324      100.583    34693.767    37761.914    10116.965       10.089        4.129      345.276      121.034        0.123      337.123        8.881      850.282
12/03/2013  04:15:00     -327.702     -241.585       23.710      254.327      193.305      114.770    64682.261    37366.672    13172.148       14.074        5.761      407.127      126.282        0.096      337.107        8.854      850.298
12/03/2013  04:16:00     -226.395     -242.424        7.042      198.938      149.264       88.155    39576.261    22279.611     7771.275        8.984        3.481      331.699      101.147        0.093      337.109        8.858      850.290
12/03/2013  04:17:00     -287.340     -104.378       -4.401      170.001      111.654       71.417    28900.385    12466.591     5100.436        6.996        2.323      305.711       80.339        0.069      337.091        8.826      850.368
12/03/2013  04:18:00     -335.111     -153.414       -5.728      182.727      137.823       83.714    33389.214    18995.271     7008.101        9.762        2.970      368.558       93.187        0.064      337.072        8.796      850.437
12/03/2013  04:19:00     -578.736     -333.876      -25.651      335.213      221.521      121.573   112367.966    49071.731    14780.019       31.161        8.811      668.138      147.067        0.048      337.059        8.774      850.442
12/03/2013  04:20:00     -247.469     -317.731      -19.948      265.369      209.962      139.735    70420.475    44083.882    19525.818       14.828        6.702      402.732      134.871        0.112      337.057        8.771      850.310
12/03/2013  04:21:00     -343.206     -129.394      -12.937      212.663      166.440       77.297    45225.664    27702.265     5974.903       10.679        3.945      366.788       95.121        0.067      337.036        8.735      850.282
12/03/2013  04:22:00     -409.571      -41.661      -15.401      204.347      141.589       93.443    41757.815    20047.450     8731.645       12.012        3.527      411.684      100.092        0.059      337.020        8.708      850.222
12/03/2013  04:23:00     -507.392      -33.260      -20.109      218.781      137.628       91.925    47865.070    18941.346     8450.218       16.709        3.763      508.481      105.198        0.043      337.013        8.697      850.190
12/03/2013  04:24:00     -368.778     -302.153       13.395      294.439      227.320      136.831    86694.094    51674.585    18722.737       19.225        7.855      476.753      168.902        0.126      337.003        8.680      850.190
12/03/2013  04:25:00     -259.049     -179.801      -10.126      202.410      180.362       98.703    40969.655    32530.585     9742.358        9.137        4.162      315.333      103.296        0.107      336.995        8.666      850.175
12/03/2013  04:26:00     -499.426      -58.892      -21.195      242.726      215.244       93.035    58915.718    46329.797     8655.515       18.360        5.695      502.886       90.506        0.032      336.999        8.673      850.087
12/03/2013  04:27:00     -385.307     -127.988      -17.347      178.321      145.270       64.732    31798.510    21103.448     4190.275       11.111        2.855      406.008       62.756        0.024      337.001        8.676      850.069
12/03/2013  04:28:00     -375.301     -132.133       -6.935      131.166      180.496       73.246    17204.541    32578.899     5365.046       10.674        2.757      397.882       70.860        0.032      336.995        8.667      850.017
12/03/2013  04:29:00     -385.625      -80.739      -28.421      155.272      130.246       82.202    24109.297    16963.905     6757.146       10.192        2.392      393.987       82.461        0.044      336.983        8.648      850.040
12/03/2013  04:30:00     -595.748     -134.075      -21.071      263.359      197.377      104.691    69358.002    38957.684    10960.252       24.628        5.964      610.648      113.696        0.035      336.956        8.603      850.077
12/03/2013  04:31:00     -488.517     -108.772      -21.741      203.635      239.694       96.102    41467.317    57453.382     9235.616       17.953        5.408      500.480      100.207        0.040      336.948        8.588      850.092
12/03/2013  04:32:00     -264.378     -184.302        7.173      217.364      186.488       85.691    47247.279    34777.947     7342.887        9.662        4.468      322.278      111.313        0.119      336.937        8.571      850.032
12/03/2013  04:33:00     -233.738      -70.823        1.350      223.382      149.187       80.503    49899.634    22256.728     6480.705        6.913        3.932      244.232      101.479        0.173      336.916        8.536      849.980
12/03/2013  04:34:00     -421.049     -148.894        5.497      201.933      203.239       98.826    40777.017    41305.915     9766.482       14.565        4.592      446.600       91.625        0.042      336.870        8.458      849.892
12/03/2013  04:35:00     -437.917     -268.377        8.339      270.465      215.155      120.449    73151.567    46291.529    14508.001       19.888        6.698      513.612      143.922        0.079      336.858        8.439      849.988
12/03/2013  04:36:00     -434.200     -191.386       -0.547      248.502      202.669      101.396    61753.342    41074.751    10281.061       16.911        5.655      474.508      125.151        0.070      336.851        8.426      850.047
12/03/2013  04:37:00     -407.172     -187.520       -9.696      183.969      145.209       68.432    33844.539    21085.564     4682.875       13.032        2.981      448.277       76.837        0.029      336.836        8.403      850.084
12/03/2013  04:38:00     -414.717      -87.452      -17.230      231.159      175.377       99.293    53434.429    30756.988     9859.181       13.697        4.703      423.837      112.824        0.071      336.793        8.330      850.063
12/03/2013  04:39:00     -538.565     -145.932      -14.411      242.871      167.803       98.949    58986.166    28157.953     9790.968       20.423        4.847      557.986      110.878        0.039      336.773        8.297      850.058
12/03/2013  04:40:00     -311.830      -56.320       -1.807      182.740      173.632       89.637    33393.990    30148.104     8034.803        8.598        3.579      316.876       84.775        0.072      336.764        8.282      850.005
12/03/2013  04:41:00     -300.902     -116.483       20.096      228.463      174.659      102.870    52195.167    30505.617    10582.210        9.888        4.664      322.661      113.132        0.123      336.762        8.279      849.921
12/03/2013  04:42:00     -449.759     -109.450       -8.009      164.667      148.476       72.937    27115.314    22045.117     5319.849       13.439        2.724      462.885       81.473        0.031      336.756        8.267      849.863
12/03/2013  04:43:00     -342.399     -140.226       -0.096      178.047      124.562       74.817    31700.829    15515.649     5597.652        9.485        2.641      370.000       82.868        0.050      336.800        8.341      849.799
12/03/2013  04:44:00     -249.121     -137.755        0.814      171.627      106.536       75.623    29455.746    11349.945     5718.829        6.377        2.326      284.672       91.026        0.102      336.805        8.351      849.829
12/03/2013  04:45:00     -304.170     -115.766       -6.620      257.350      156.421       77.243    66229.275    24467.379     5966.498       10.129        4.833      325.455      105.386        0.105      336.833        8.396      849.862
12/03/2013  04:46:00     -501.307      -64.729      -24.795      271.219      182.530       89.526    73559.595    33317.212     8014.985       18.548        5.745      505.468      106.752        0.045      336.825        8.383      849.945
12/03/2013  04:47:00     -658.333     -174.242      -14.301      313.835      229.135      112.016    98492.501    52502.840    12547.590       31.372        8.177      681.001      134.560        0.039      336.812        8.362      849.977
12/03/2013  04:48:00     -440.976     -128.156        6.462      231.139      218.197      100.735    53425.073    47610.071    10147.485       16.103        5.559      459.221      109.075        0.056      336.800        8.342      850.048
12/03/2013  04:49:00     -480.529      -73.034      -21.418      204.753      170.476       92.377    41923.717    29061.915     8533.483       15.809        3.976      486.048      106.453        0.048      336.797        8.336      850.086
12/03/2013  04:50:00     -351.406     -156.027      -19.488      229.489      203.970      101.301    52665.102    41603.584    10261.931       12.635        5.227      384.487      122.999        0.102      336.813        8.363      850.183
12/03/2013  04:51:00     -252.957      -77.282        5.715      189.604      108.869       72.945    35949.663    11852.399     5320.962        6.155        2.656      264.499       96.247        0.132      336.779        8.309      850.241
12/03/2013  04:52:00     -540.570      -73.851      -46.898      186.753      149.129       84.644    34876.862    22239.515     7164.581       18.206        3.214      545.591       83.118        0.023      336.781        8.310      850.207
12/03/2013  04:53:00     -367.867      -46.557       -8.204      239.302      138.490       81.744    57265.500    19179.450     6682.079       11.033        4.156      370.802      102.669        0.077      336.811        8.362      850.165
12/03/2013  04:54:00     -423.394      -34.080      -30.072      171.468      107.728       90.309    29401.390    11605.420     8155.697       11.524        2.458      424.763       90.655        0.046      336.817        8.369      850.219
12/03/2013  04:55:00     -455.355      -87.651       -9.540      251.812      200.334       88.403    63409.249    40133.695     7815.102       16.322        5.568      463.714      107.486        0.054      336.818        8.371      850.201
12/03/2013  04:56:00     -684.091     -142.661      -30.479      251.813      178.851       99.879    63409.782    31987.825     9975.831       29.730        5.269      698.808      114.512        0.027      336.845        8.416      850.128
12/03/2013  04:57:00     -313.602        2.170      -11.155      186.306      163.219       81.224    34709.964    26640.375     6597.347        8.320        3.397      313.610       80.006        0.065      336.839        8.408      850.096
12/03/2013  04:58:00     -427.776     -101.780       -5.335      218.952      178.926       88.303    47940.043    32014.578     7797.504       14.055        4.388      439.717       97.756        0.049      336.823        8.379      850.078
12/03/2013  04:59:00     -307.629     -210.197       10.794      225.556      176.534      122.334    50875.401    31164.271    14965.506       11.795        4.850      372.583      125.781        0.114      336.816        8.369      850.111
12/03/2013  05:00:00     -429.060     -185.272        3.690      308.235      243.452      132.794    95009.060    59268.946    17634.127       19.514        8.596      467.353      148.205        0.101      336.762        8.278      850.040
12/03/2013  05:01:00     -505.447     -105.102        1.721      258.034      193.651      106.943    66581.728    37500.754    11436.799       19.100        5.776      516.258      123.853        0.058      336.734        8.232      850.056
12/03/2013  05:02:00     -542.511      -92.596      -31.549      274.200      231.443       96.949    75185.569    53565.704     9399.076       22.099        6.908      550.357      108.031        0.039      336.726        8.217      850.075
12/03/2013  05:03:00     -444.458     -132.228      -31.385      166.092      170.327       86.814    27586.614    29011.454     7536.637       14.006        3.207      463.710       93.603        0.041      336.722        8.212      850.135
12/03/2013  05:04:00     -294.737      -56.413       -2.863      167.142      142.010       71.170    27936.465    20166.805     5065.210        7.160        2.658      300.087       76.029        0.064      336.722        8.213      850.222
12/03/2013  05:05:00     -435.222     -136.873      -29.454      188.094      142.011       82.097    35379.323    20167.159     6739.935       13.564        3.114      456.237       76.930        0.028      336.698        8.172      850.264
12/03/2013  05:06:00     -572.838     -182.976      -27.813      267.464      238.124      108.095    71536.971    56702.874    11684.593       25.113        6.996      601.352      110.937        0.034      336.695        8.165      850.218
12/03/2013  05:07:00     -462.880     -181.087      -26.008      228.749      172.157       97.933    52326.158    29638.021     9590.785       16.962        4.578      497.042       96.774        0.038      336.701        8.175      850.192
12/03/2013  05:08:00     -453.978     -132.102      -30.621      200.641      139.592       83.728    40256.907    19485.832     7010.354       14.561        3.338      472.808       86.741        0.034      336.675        8.132      850.153
12/03/2013  05:09:00     -477.424      -49.874      -22.692      304.867      146.825       88.497    92944.014    21557.721     7831.678       17.661        6.117      480.022      117.160        0.060      336.658        8.106      850.164
12/03/2013  05:10:00     -465.100      -33.754      -23.455      209.511      157.045       91.499    43894.764    24663.278     8371.996       14.745        3.847      466.323       96.374        0.043      336.631        8.060      850.146
12/03/2013  05:11:00     -372.618       31.976      -18.411      208.970      152.162       73.509    43668.633    23153.153     5403.618       10.620        3.611      373.988       82.162        0.048      336.624        8.048      850.130
12/03/2013  05:12:00     -503.563      -71.284      -23.048      134.234      111.662       70.867    18018.882    12468.472     5022.169       14.734        1.775      508.583       74.064        0.021      336.615        8.033      850.083
12/03/2013  05:13:00     -340.922      -45.669       -8.755      146.365      106.421       64.471    21422.833    11325.487     4156.547        7.764        1.845      343.968       67.226        0.038      336.610        8.026      850.062
12/03/2013  05:14:00     -312.932      -71.282       -7.887      243.922      137.894       83.150    59497.870    19014.877     6913.879        9.423        4.271      320.948      106.808        0.111      336.645        8.085      850.040
12/03/2013  05:15:00     -291.787     -123.737      -14.278      135.790      129.961       72.574    18439.057    16889.972     5266.924        7.062        2.030      316.939       68.943        0.047      336.626        8.052      850.054
12/03/2013  05:16:00     -264.360      -90.244       -7.435      137.704      104.570       65.405    18962.495    10934.953     4277.767        5.612        1.709      279.338       48.562        0.030      336.617        8.038      850.080
12/03/2013  05:17:00     -301.526     -107.291        1.119      176.022      152.885       83.054    30983.889    23373.712     6897.982        8.183        3.063      320.046       90.052        0.079      336.617        8.037      850.045
12/03/2013  05:18:00     -382.784     -144.341       -6.919      169.064      119.255       71.842    28582.657    14221.712     5161.201       10.768        2.398      409.094       74.788        0.033      336.608        8.020      850.054
12/03/2013  05:19:00     -328.827     -130.727      -21.702      139.784       95.107       60.871    19539.547     9045.413     3705.236        7.898        1.615      353.860       73.832        0.044      336.623        8.046      850.097
12/03/2013  05:20:00     -380.179      -85.977      -20.570      192.218      139.386       82.018    36947.821    19428.578     6726.925       10.771        3.155      389.780       86.221        0.049      336.617        8.038      850.056
12/03/2013  05:21:00     -173.840     -116.357       21.215      161.986      147.304       73.995    26239.430    21698.366     5475.332        4.880        2.671      209.187       87.516        0.175      336.627        8.055      850.049
12/03/2013  05:22:00     -111.214      -67.157       16.012      151.734      106.687       63.232    23023.329    11382.085     3998.325        2.776        1.920      129.917       67.879        0.273      336.628        8.056      849.998
12/03/2013  05:23:00     -176.143      -51.165      -17.832       99.439       53.236       39.688     9888.125     2834.021     1575.122        2.413        0.715      183.424       52.037        0.080      336.611        8.028      849.932
12/03/2013  05:24:00     -295.532      -92.195        3.845      241.951      150.715       94.468    58540.433    22714.905     8924.199        9.300        4.509      309.579      111.398        0.129      336.602        8.012      849.914
12/03/2013  05:25:00     -611.280     -116.487      -48.421      200.786      149.874       77.085    40315.188    22462.159     5942.089       22.913        3.436      622.280       79.210        0.016      336.583        7.980      849.901
12/03/2013  05:26:00     -390.048     -224.910      -25.095      197.550      168.935       89.827    39025.965    28539.048     8068.909       13.948        3.782      450.246       97.324        0.047      336.576        7.968      849.867
12/03/2013  05:27:00     -213.501     -100.204        0.882      151.779      136.416       72.939    23036.718    18609.459     5320.090        5.129        2.348      235.847       67.812        0.083      336.577        7.971      849.906
12/03/2013  05:28:00     -521.096      -88.795      -29.005      249.539      179.291      100.807    62269.492    32145.097    10162.056       19.240        5.229      528.607       98.309        0.035      336.530        7.892      849.906
12/03/2013  05:29:00     -602.382     -177.113      -29.192      261.434      241.387      108.824    68347.869    58267.776    11842.603       26.674        6.923      627.880      130.142        0.043      336.475        7.799      849.830
12/03/2013  05:30:00     -275.085     -160.500        7.242      241.946      205.248      108.659    58537.693    42126.880    11806.727       10.696        5.624      318.483      123.491        0.150      336.452        7.758      849.810
12/03/2013  05:31:00     -431.619     -213.033       -8.115      330.172      178.085      116.940   109013.510    31714.304    13674.884       19.304        7.720      481.330      151.784        0.099      336.394        7.663      849.767
12/03/2013  05:32:00     -474.373     -274.906      -24.650      311.720      250.696      130.786    97169.056    62848.573    17104.913       23.913        8.856      548.273      137.759        0.063      336.350        7.590      849.757
12/03/2013  05:33:00     -345.950     -134.863      -10.585      209.685      197.921       99.882    43967.677    39172.893     9976.348       11.553        4.656      371.307      102.047        0.076      336.341        7.573      849.821
12/03/2013  05:34:00     -491.831     -196.857      -51.095      245.465      199.709      103.915    60252.942    39883.640    10798.339       19.708        5.547      529.765      114.129        0.046      336.314        7.529      849.783
12/03/2013  05:35:00     -489.185      -71.447      -18.595      266.712      159.230      103.047    71135.401    25354.076    10618.729       17.591        5.355      494.375      125.663        0.065      336.317        7.533      849.781
12/03/2013  05:36:00     -590.096     -156.404      -17.213      320.496      122.539       81.642   102717.828    15015.729     6665.477       24.866        6.220      610.472      104.760        0.029      336.316        7.532      849.777
12/03/2013  05:37:00     -370.948     -174.352      -23.770      202.726      160.196       75.619    41097.767    25662.663     5718.293       12.051        3.624      409.880       71.540        0.030      336.296        7.500      849.762
12/03/2013  05:38:00     -418.690       15.766       -9.137      208.387      160.443       73.919    43424.944    25742.045     5464.091       12.512        3.732      418.987       89.275        0.045      336.279        7.470      849.730
12/03/2013  05:39:00     -452.933      -34.602      -31.160      200.756      201.927       85.832    40302.791    40774.589     7367.088       14.786        4.422      454.253       79.163        0.030      336.293        7.494      849.680
12/03/2013  05:40:00     -362.473      -53.133      -14.204      210.208      137.724       76.442    44187.424    18967.910     5843.420       10.169        3.450      366.346       77.875        0.045      336.294        7.495      849.720
12/03/2013  05:41:00     -289.663        8.334       12.888      264.998      130.593       75.351    70223.790    17054.418     5677.754        8.853        4.648      289.783      106.312        0.135      336.317        7.535      849.690
12/03/2013  05:42:00     -227.944      -99.717       20.891      175.312      145.709       77.821    30734.416    21231.062     6056.167        6.017        2.901      248.801       87.866        0.125      336.341        7.574      849.694
12/03/2013  05:43:00     -308.784     -201.031      -17.191      159.858      117.524       78.913    25554.646    13811.997     6227.187        9.082        2.280      368.458       86.390        0.055      336.374        7.628      849.712
12/03/2013  05:44:00     -204.248     -114.986        6.439      155.099      126.968       57.291    24055.680    16120.801     3282.311        4.921        2.173      234.391       73.207        0.098      336.391        7.658      849.710
12/03/2013  05:45:00     -184.466      -40.461        0.959      132.206       82.695       53.080    17478.474     6838.536     2817.455        3.139        1.357      188.851       54.146        0.082      336.441        7.743      849.752
12/03/2013  05:46:00     -401.812     -106.398      -10.737      198.591      141.630       86.288    39438.214    20059.194     7445.677       11.990        3.347      415.660       98.534        0.056      336.386        7.649      849.813
12/03/2013  05:47:00     -411.097     -139.285       -7.707      238.554      200.295       91.744    56907.811    40118.009     8416.960       14.693        5.272      434.052      101.248        0.054      336.432        7.724      849.798
12/03/2013  05:48:00     -331.451      -94.644        4.137      188.969      117.200       71.938    35709.325    13735.818     5175.009        8.672        2.731      344.699       92.722        0.072      336.406        7.683      849.865
12/03/2013  05:49:00     -455.378      -55.094      -26.774      207.310      155.050       83.158    42977.503    24040.419     6915.190       14.251        3.697      458.699       93.042        0.041      336.388        7.653      849.876
12/03/2013  05:50:00     -303.300      -49.194       -0.605      174.944      117.887       63.654    30605.367    13897.387     4051.811        7.147        2.428      307.264       78.546        0.065      336.412        7.693      849.865
12/03/2013  05:51:00     -235.018       47.069      -14.724       96.350       97.149       40.930     9283.306     9438.015     1675.267        3.903        1.020      239.685       40.021        0.028      336.361        7.608      849.872
12/03/2013  05:52:00     -202.688      -19.276      -19.866       76.271       93.617       45.266     5817.284     8764.116     2048.980        2.924        0.832      203.603       36.784        0.033      336.340        7.573      849.916
12/03/2013  05:53:00     -299.579     -114.732      -10.394      185.319      123.285       54.458    34343.043    15199.247     2965.678        7.775        2.625      320.798       60.225        0.035      336.341        7.575      849.955
12/03/2013  05:54:00     -251.755     -120.083       19.398      257.846      118.259       81.649    66484.629    13985.083     6666.588        8.264        4.357      278.928      123.213        0.195      336.352        7.594      849.930
12/03/2013  05:55:00     -165.582        2.244       -8.760       80.310       83.715       43.590     6449.726     7008.148     1900.089        2.143        0.768      165.597       36.496        0.049      336.342        7.577      849.900
12/03/2013  05:56:00     -303.002      -41.076      -23.942      204.165       83.060       51.312    41683.539     6899.003     2632.943        7.263        2.561      305.774       74.403        0.059      336.293        7.494      849.915
12/03/2013  05:57:00     -309.801      -29.966      -37.123      144.811      109.679       61.916    20970.194    12029.453     3833.599        6.754        1.842      311.247       50.243        0.026      336.280        7.472      849.927
12/03/2013  05:58:00     -244.566      -10.984      -17.931      182.201      112.029       61.551    33197.094    12550.391     3788.543        5.489        2.477      244.812       67.226        0.075      336.291        7.489      849.963
12/03/2013  05:59:00     -577.470     -177.707       -6.895      211.998      145.845       90.956    44943.270    21270.758     8273.061       21.978        3.724      604.195      100.020        0.027      336.276        7.464      849.996
12/03/2013  06:00:00     -383.464     -227.590      -20.266      164.311      124.978       73.732    26998.018    15619.620     5436.398       12.364        2.403      445.917       73.056        0.027      336.275        7.463      850.055
12/03/2013  06:01:00     -172.000      -74.388        6.899      165.194       84.537       54.494    27289.009     7146.504     2969.580        3.628        1.870      187.397       67.677        0.130      336.266        7.448      850.053
12/03/2013  06:02:00     -207.206       -2.983       -1.246      160.197      101.463       56.820    25663.179    10294.647     3228.523        4.106        1.959      207.228       57.490        0.077      336.265        7.449      850.038
12/03/2013  06:03:00     -290.148     -168.865       -3.492      218.788      165.794       80.789    47868.351    27487.520     6526.826        9.728        4.094      335.710      105.576        0.099      336.225        7.379      850.018
12/03/2013  06:04:00     -441.703     -269.511      -32.266      229.186      198.983      108.507    52526.362    39594.401    11773.772       18.632        5.195      517.434      124.413        0.058      336.189        7.321      849.982
12/03/2013  06:05:00     -373.740     -106.522      -21.855      219.294      166.739       97.440    48089.898    27801.832     9494.486       11.843        4.269      388.624      115.116        0.088      336.174        7.295      849.954
12/03/2013  06:06:00     -316.767      -25.879       -9.484      196.243      127.926       75.979    38511.322    16365.130     5772.754        8.086        3.032      317.822       77.854        0.060      336.170        7.290      849.972
12/03/2013  06:07:00     -442.849     -106.294      -21.052      207.491      132.547       93.624    43052.417    17568.577     8765.385       13.861        3.469      455.427      104.035        0.052      336.148        7.252      849.961
12/03/2013  06:08:00     -428.540     -178.160      -22.805      220.968      219.336       91.842    48826.771    48108.335     8435.008       16.062        5.269      464.099       91.381        0.039      336.152        7.259      850.006
12/03/2013  06:09:00     -529.903     -174.420      -29.370      251.388      137.274       89.828    63195.771    18844.094     8069.059       20.108        4.505      557.871       90.904        0.027      336.155        7.263      850.015
12/03/2013  06:10:00     -464.898      -80.316      -36.317      205.091      149.103       85.740    42062.282    22231.773     7351.264       14.776        3.582      471.785       96.824        0.042      336.167        7.283      850.061
12/03/2013  06:11:00     -398.947     -139.813       -9.597      165.430      143.531       71.678    27367.131    20601.271     5137.791       11.594        2.655      422.737       66.281        0.025      336.180        7.304      850.117
12/03/2013  06:12:00     -212.683      -13.949        6.011      235.911      128.807       86.206    55653.808    16591.362     7431.546        6.255        3.984      213.140      101.732        0.228      336.189        7.321      850.160
12/03/2013  06:13:00     -462.355      -91.803      -34.571      123.624      199.953       76.717    15282.834    39981.354     5885.561       14.226        3.057      471.381       67.954        0.021      336.154        7.262      850.149
12/03/2013  06:14:00     -217.440       -6.393       10.592      195.384      136.099       73.306    38174.866    18522.976     5373.742        5.474        3.104      217.534       89.080        0.168      336.149        7.254      850.164
12/03/2013  06:15:00     -350.907       38.281       -1.320      171.992      169.335       90.894    29581.399    28674.247     8261.730        9.555        3.326      352.989       80.349        0.052      336.141        7.240      850.195
12/03/2013  06:16:00     -343.305     -102.108      -11.937      134.777      123.747       64.348    18164.769    15313.402     4140.641        8.302        1.881      358.168       46.299        0.017      336.141        7.239      850.217
12/03/2013  06:17:00     -442.594      -44.346      -38.214      121.698      169.088       74.353    14810.299    28590.586     5528.346       12.411        2.446      444.810       53.546        0.014      336.143        7.244      850.210
12/03/2013  06:18:00     -419.356      -80.991      -59.532      200.200      118.222       74.414    40079.870    13976.381     5537.467       12.277        2.980      427.105       41.687        0.010      336.163        7.277      850.218
12/03/2013  06:19:00     -475.735     -104.173      -40.149      135.710      101.754       65.517    18417.276    10353.869     4292.504       13.592        1.653      487.007       58.488        0.014      336.148        7.252      850.209
12/03/2013  06:20:00     -233.033      -84.105      -26.099       97.979       76.764       44.123     9599.896     5892.788     1946.807        3.975        0.872      247.746       32.797        0.018      336.154        7.261      850.229
12/03/2013  06:21:00     -186.077       57.237       -6.513      118.291      104.716       67.058    13992.721    10965.392     4496.814        3.369        1.473      194.681       56.543        0.084      336.157        7.268      850.253
12/03/2013  06:22:00     -253.520       25.479      -15.399      129.992      128.233       64.764    16897.980    16443.719     4194.381        5.134        1.877      254.797       57.593        0.051      336.169        7.288      850.275
12/03/2013  06:23:00     -384.292     -101.934      -20.056      110.526      110.511       60.321    12215.994    12212.728     3638.677        9.326        1.403      397.581       56.105        0.020      336.138        7.236      850.326
12/03/2013  06:24:00     -289.353      -45.829      -26.556      131.445       94.675       52.937    17277.879     8963.411     2802.278        5.778        1.452      292.960       60.740        0.043      336.138        7.236      850.363
12/03/2013  06:25:00     -244.073      -75.664      -30.769      130.901      107.325       53.918    17134.949    11518.730     2907.170        4.890        1.578      255.532       28.983        0.013      336.138        7.235      850.360
12/03/2013  06:26:00     -281.943      -18.511      -27.140       66.720       65.137       44.776     4451.574     4242.773     2004.859        4.563        0.535      282.550       26.526        0.009      336.123        7.210      850.394
12/03/2013  06:27:00     -299.744      -84.720      -16.501      136.379      129.978       71.472    18599.270    16894.292     5108.278        6.894        2.030      311.487       73.675        0.056      336.131        7.223      850.388
12/03/2013  06:28:00     -149.679      -56.355       -5.370       80.340       88.938       49.296     6454.484     7909.974     2430.145        2.120        0.840      159.937       10.939        0.005      336.127        7.217      850.371
12/03/2013  06:29:00     -183.853      -32.189       -6.936      130.501       81.017       65.710    17030.590     6563.700     4317.797        3.139        1.396      186.650       74.942        0.161      336.143        7.244      850.330
12/03/2013  06:30:00     -273.735      -54.288      -17.012      133.904       75.710       38.994    17930.335     5731.967     1520.537        5.167        1.259      279.066       49.980        0.032      336.157        7.268      850.322
12/03/2013  06:31:00     -334.475      -74.145      -28.486      110.177       86.858       41.785    12138.955     7544.258     1745.970        6.980        1.071      342.594       52.679        0.024      336.197        7.334      850.355
12/03/2013  06:32:00     -280.843      -75.825       -8.286       84.108       74.633       45.556     7074.110     5570.156     2075.333        4.970        0.736      290.899       39.565        0.018      336.203        7.344      850.364
12/03/2013  06:33:00     -230.792      -66.430       -1.859      105.764       63.543       44.667    11185.974     4037.663     1995.173        3.745        0.861      240.162       52.273        0.047      336.206        7.347      850.354
12/03/2013  06:34:00     -120.040      -36.881        8.960      108.353       62.719       42.172    11740.447     3933.701     1778.460        1.665        0.873      125.578       52.837        0.177      336.212        7.362      850.323
12/03/2013  06:35:00      -92.468      -15.804        3.438       53.396       45.478       29.853     2851.178     2068.267      891.207        0.731        0.291       93.809       29.782        0.101      336.179        7.309      850.327
12/03/2013  06:36:00     -112.385      146.755      -14.889       84.600      135.657       48.956     7157.139    18402.832     2396.702        3.117        1.398      184.844       62.308        0.114      336.180        7.306      850.451
12/03/2013  06:37:00     -160.988      420.348      -52.147      120.372      157.382       69.235    14489.517    24769.106     4793.521       12.468        2.203      450.121       66.110        0.022      335.366        5.949      850.624
12/03/2013  06:38:00      -54.472      567.307      -63.376       95.636      147.096       64.870     9146.161    21637.225     4208.122       18.190        1.750      569.916       66.843        0.014      334.943        5.246      850.651
12/03/2013  06:39:00      -89.691      514.927      -69.207      172.445      223.055       86.289    29737.142    49753.382     7445.869       18.244        4.347      522.680       80.028        0.023      334.697        4.837      850.643
12/03/2013  06:40:00     -143.566      689.659      -70.539      113.638      253.931       84.663    12913.691    64480.924     7167.741       29.287        4.228      704.444       97.859        0.019      334.430        4.395      850.656
12/03/2013  06:41:00     -176.822      402.703      -64.249      125.199      190.751       74.234    15674.716    36386.001     5510.742       12.756        2.879      439.813       80.951        0.034      334.392        4.330      850.744
12/03/2013  06:42:00     -149.498      262.553      -31.815      116.789      153.873       82.837    13639.596    23676.770     6861.921        6.823        2.209      302.133       74.990        0.062      334.319        4.209      850.796
12/03/2013  06:43:00     -189.759      481.385      -55.206      138.800      225.741       80.581    19265.489    50959.065     6493.307       17.374        3.836      517.436       83.556        0.026      334.089        3.828      850.818
12/03/2013  06:44:00     -267.156      433.446      -72.835      141.967      161.979       90.880    20154.548    26237.142     8259.257       15.959        2.733      509.164       85.088        0.028      333.959        3.613      850.810
12/03/2013  06:45:00     -216.026      469.146      -64.877      137.392      190.427       87.631    18876.534    36262.464     7679.122       16.688        3.141      516.493       82.715        0.026      333.884        3.488      850.775
12/03/2013  06:46:00     -202.947      421.851      -56.549      138.538      167.542       68.389    19192.713    28070.480     4677.042       13.713        2.597      468.130       61.293        0.017      333.899        3.512      850.773
12/03/2013  06:47:00     -163.878      473.269      -38.850      156.790      175.541      105.125    24582.993    30814.753    11051.275       15.939        3.322      500.839      116.860        0.054      333.765        3.290      850.839
12/03/2013  06:48:00     -109.464      673.098      -84.679      118.918      338.748       91.839    14141.556   114749.977     8434.420       30.474        6.866      681.941      132.831        0.038      333.504        2.859      850.871
12/03/2013  06:49:00     -115.656      572.412      -59.879      128.510      217.427       74.045    16514.831    47274.376     5482.639       20.693        3.464      583.980       81.181        0.019      333.486        2.830      850.861
12/03/2013  06:50:00     -281.555      442.848      -52.474      181.109      237.893      100.619    32800.467    56592.959    10124.188       18.881        4.976      524.774      116.200        0.049      333.458        2.784      850.953
12/03/2013  06:51:00     -195.457      532.068      -57.997      139.414      224.544       94.091    19436.165    50419.801     8853.040       20.167        3.935      566.833       99.335        0.031      333.452        2.774      851.031
12/03/2013  06:52:00     -236.196      465.383      -51.105      158.894      203.996       94.574    25247.217    41614.321     8944.288       17.538        3.790      521.890      115.925        0.049      333.461        2.788      851.048
12/03/2013  06:53:00     -145.455      403.202      -46.972      120.028      186.704       78.820    14406.602    34858.502     6212.613       12.070        2.774      428.636       75.010        0.031      333.478        2.816      851.023
12/03/2013  06:54:00     -110.299      483.969      -51.938       98.080      171.219       74.730     9619.619    29315.838     5584.585       14.680        2.226      496.379       84.432        0.029      333.404        2.694      851.007
12/03/2013  06:55:00     -133.664      521.154      -58.527      160.439      208.980       82.101    25740.809    43672.789     6740.632       18.451        3.808      538.021       86.102        0.026      333.387        2.667      851.037
12/03/2013  06:56:00     -161.656      469.485      -54.882      137.443      156.738       79.358    18890.569    24566.956     6297.766       14.965        2.488      496.537       74.958        0.023      333.333        2.575      851.039
12/03/2013  06:57:00     -116.120      518.183      -64.724      140.875      195.857       84.075    19845.790    38360.062     7068.565       17.572        3.264      531.035       85.857        0.026      333.293        2.510      851.012
12/03/2013  06:58:00     -186.176      388.937      -30.022      154.912      172.565      100.246    23997.794    29778.769    10049.196       12.532        3.191      431.200       96.672        0.050      333.308        2.535      851.042
12/03/2013  06:59:00     -112.810      399.967      -58.007      128.742      171.755       69.594    16574.493    29499.730     4843.381       11.348        2.546      415.572       57.346        0.019      333.272        2.475      851.081
12/03/2013  07:00:00      -50.916      516.692      -49.541      111.206      210.763       84.715    12366.749    44421.139     7176.582       16.798        3.198      519.195       82.600        0.025      333.248        2.437      851.063
12/03/2013  07:01:00     -116.378      420.856      -44.910      125.400      137.361       67.593    15725.094    18868.156     4568.815       11.591        1.958      436.650       63.131        0.021      333.271        2.472      851.048
12/03/2013  07:02:00     -121.691      385.586      -48.884      110.076      192.626       78.305    12116.645    37104.673     6131.684       11.060        2.768      404.333       75.644        0.035      333.276        2.481      851.075
12/03/2013  07:03:00     -196.830      305.269      -37.827      140.283      199.725       82.280    19679.186    39890.022     6769.995        9.984        3.317      363.223       66.713        0.034      333.261        2.458      851.111
12/03/2013  07:04:00     -177.440      323.094      -23.126      166.225      161.566       94.738    27630.591    26103.427     8975.297        9.955        3.135      368.612       93.743        0.065      333.183        2.328      851.093
12/03/2013  07:05:00     -144.912      310.199      -35.263      118.294      237.823       73.748    13993.536    56559.578     5438.829        9.721        3.800      342.378      103.603        0.092      333.236        2.414      851.055
12/03/2013  07:06:00     -122.225      517.420      -46.842      141.983      210.393       98.273    20159.213    44265.069     9657.566       17.945        3.704      531.660      108.306        0.041      333.052        2.111      851.026
12/03/2013  07:07:00     -244.142      414.231      -59.411      133.530      170.308       82.435    17830.334    29004.664     6795.468       14.417        2.682      480.825       88.599        0.034      333.004        2.032      851.031
12/03/2013  07:08:00      -82.446      428.768      -39.021      107.654      205.940       86.619    11589.438    42411.378     7502.934       12.682        3.075      436.622       97.181        0.050      333.050        2.108      851.058
12/03/2013  07:09:00     -160.123      359.466      -51.184      144.309      193.195       71.447    20825.043    37324.469     5104.718       11.035        3.163      393.517       84.844        0.046      333.010        2.042      851.108
12/03/2013  07:10:00      -61.212      377.133      -47.431      144.708      175.964       69.039    20940.473    30963.456     4766.451       10.244        2.834      382.068       74.966        0.038      332.976        1.985      851.157
12/03/2013  07:11:00      -94.392      405.252      -40.561      158.937      182.081       86.585    25260.956    33153.563     7497.023       12.033        3.296      416.100       98.282        0.056      332.948        1.941      851.172
12/03/2013  07:12:00     -123.664      391.121      -38.802      129.194      158.067       75.977    16691.017    24985.108     5772.436       10.860        2.372      410.205       60.287        0.022      332.891        1.846      851.198
12/03/2013  07:13:00     -155.512      579.212      -57.592      154.000      156.602       87.692    23716.138    24524.099     7689.874       20.945        2.797      599.726       85.752        0.020      332.750        1.612      851.233
12/03/2013  07:14:00     -167.936      453.289      -53.722      184.024      214.332       90.156    33864.921    45938.198     8128.087       16.223        4.397      483.398      100.587        0.043      332.708        1.544      851.248
12/03/2013  07:15:00     -103.242      624.920      -64.630      135.745      218.794       94.165    18426.802    47870.973     8866.996       24.025        3.758      633.390      106.482        0.028      332.643        1.436      851.256
12/03/2013  07:16:00     -125.097      412.727      -58.460       97.986      161.823       56.933     9601.263    26186.830     3241.353       11.421        1.951      431.268       65.298        0.023      332.734        1.587      851.290
12/03/2013  07:17:00      -31.201      421.095      -46.288       91.054      123.208       73.314     8290.886    15180.113     5374.963       10.464        1.442      422.250       69.073        0.027      332.738        1.594      851.291
12/03/2013  07:18:00      -72.562      396.011      -33.274      132.528      176.478       91.493    17563.792    31144.356     8371.020       11.013        2.854      402.604       98.059        0.059      332.673        1.487      851.244
12/03/2013  07:19:00      -77.894      523.662      -68.732      161.886      222.964       90.600    26206.939    49713.087     8208.336       18.455        4.206      529.423      112.823        0.045      332.536        1.259      851.190
12/03/2013  07:20:00     -159.498      389.935      -44.739      163.251      207.098      102.107    26650.761    42889.448    10425.906       12.971        3.998      421.294      105.299        0.062      332.519        1.231      851.187
12/03/2013  07:21:00     -233.004      451.600      -66.494      147.470      188.267       85.947    21747.349    35444.453     7386.930       16.360        3.229      508.166      100.942        0.039      332.450        1.117      851.201
12/03/2013  07:22:00     -137.704      292.184      -16.883      171.091      148.309       84.264    29272.294    21995.559     7100.485        8.148        2.918      323.007       68.637        0.045      332.541        1.267      851.235
12/03/2013  07:23:00      -78.718      739.772      -75.618      125.844      265.246       91.297    15836.723    70355.495     8335.072       32.683        4.726      743.948      105.103        0.020      332.331        0.922      851.261
12/03/2013  07:24:00     -215.836      586.783      -76.947      172.927      201.050       96.003    29903.713    40420.991     9216.480       23.817        3.977      625.220      104.036        0.028      332.330        0.920      851.319
12/03/2013  07:25:00      -90.961      598.279      -78.728      116.928      284.075       85.061    13672.077    80698.573     7235.320       23.699        5.080      605.154      111.202        0.034      332.329        0.918      851.340
12/03/2013  07:26:00     -256.277      586.342      -80.926      191.572      161.384       89.462    36699.839    26044.818     8003.414       24.337        3.537      639.902      103.405        0.026      332.231        0.757      851.407
12/03/2013  07:27:00     -225.863      522.297      -59.337      122.650      179.541       90.400    15043.012    32234.932     8172.147       19.138        2.773      569.042       85.741        0.023      332.243        0.775      851.456
12/03/2013  07:28:00     -234.081      372.444      -57.633      136.155      150.149       78.183    18538.299    22544.731     6112.571       12.200        2.360      439.896       81.849        0.035      332.252        0.791      851.471
12/03/2013  07:29:00     -117.256      582.326      -74.347      146.250      183.112       81.010    21389.031    33530.127     6562.630       20.992        3.074      594.014       76.982        0.017      332.201        0.707      851.421
12/03/2013  07:30:00     -173.875      433.255      -42.696      108.054      174.539       85.056    11675.588    30463.805     7234.452       13.456        2.469      466.843       92.126        0.039      332.218        0.734      851.324
12/03/2013  07:31:00     -295.158      542.093      -83.571      127.642      172.016       93.359    16292.353    29589.484     8715.897       22.127        2.730      617.239       89.179        0.021      332.161        0.641      851.296
12/03/2013  07:32:00     -154.383      389.309      -40.393      120.868      174.363       82.345    14609.192    30402.615     6780.756       11.440        2.590      418.803       77.957        0.035      332.242        0.775      851.295
12/03/2013  07:33:00     -330.647      413.132      -88.771      137.252      165.400       90.483    18838.225    27357.245     8187.106       17.112        2.719      529.155       88.421        0.028      332.114        0.562      851.349
12/03/2013  07:34:00     -268.634      332.092      -48.773      143.231      156.443       83.933    20515.046    24474.449     7044.665       11.842        2.602      427.141       86.821        0.041      332.097        0.535      851.417
12/03/2013  07:35:00     -286.032      334.484      -67.748      132.027      136.674       73.019    17431.156    18679.876     5331.707       11.985        2.072      440.106       76.179        0.030      332.099        0.537      851.440
12/03/2013  07:36:00     -187.963      501.397      -55.185      129.781      248.667       90.784    16843.229    61835.059     8241.782       18.833        4.346      535.471      107.481        0.040      332.118        0.569      851.462
12/03/2013  07:37:00     -177.625      539.097      -61.395      125.994      198.148       82.812    15874.400    39262.659     6857.899       19.396        3.100      567.606       94.730        0.028      332.069        0.488      851.494
12/03/2013  07:38:00     -145.404      362.017      -46.046      161.619      188.659       67.968    26120.591    35592.269     4619.591       11.031        3.317      390.127       64.173        0.027      332.109        0.556      851.518
12/03/2013  07:39:00     -228.931      433.019      -58.646      192.503      165.280      105.991    37057.336    27317.423    11234.113       15.947        3.780      489.811       97.817        0.040      331.971        0.327      851.508
12/03/2013  07:40:00     -134.076      354.116      -49.402      140.941      148.198       83.275    19864.503    21962.593     6934.664        9.728        2.438      378.648       76.071        0.040      331.973        0.330      851.485
12/03/2013  07:41:00     -192.927      417.706      -52.384      116.356      154.691       82.648    13538.737    23929.450     6830.677       12.936        2.215      460.108       76.469        0.028      331.946        0.286      851.442
12/03/2013  07:42:00     -201.126      366.955      -35.617      158.125      152.841       93.613    25003.372    23360.489     8763.347       11.674        2.856      418.459       96.315        0.053      331.915        0.234      851.421
12/03/2013  07:43:00     -129.255      538.117      -46.405      150.262      204.424       90.716    22578.556    41789.050     8229.307       19.050        3.630      553.423      101.172        0.033      331.867        0.157      851.441
12/03/2013  07:44:00     -205.907      425.952      -59.871      163.296      148.879       81.617    26665.711    22164.925     6661.273       14.144        2.775      473.110       87.584        0.034      331.824        0.084      851.535
12/03/2013  07:45:00     -179.215      532.138      -74.173      138.345      183.110       83.422    19139.256    33529.265     6959.187       19.020        2.981      561.506       79.160        0.020      331.737       -0.058      851.597
12/03/2013  07:46:00     -140.321      411.394      -40.153      129.214      159.260       70.646    16696.333    25363.715     4990.824       11.879        2.353      434.666       73.732        0.029      331.737       -0.058      851.584
12/03/2013  07:47:00     -112.394      295.321      -42.963      149.005      180.740       87.000    22202.410    32667.081     7569.016        8.205        3.122      315.986       87.823        0.077      331.765       -0.012      851.552
12/03/2013  07:48:00      -78.033      341.301      -44.184      105.872      164.809       57.860    11208.848    27162.115     3347.791        8.311        2.086      350.108       59.098        0.028      331.739       -0.054      851.564
12/03/2013  07:49:00     -108.580      291.111      -23.658       93.923      138.572       71.187     8821.545    19202.272     5067.568        6.509        1.655      310.702       71.990        0.054      331.748       -0.041      851.619
12/03/2013  07:50:00     -136.772      341.131      -27.994      154.876      185.362       82.089    23986.673    34358.955     6738.576       10.046        3.254      367.529       85.575        0.054      331.692       -0.132      851.607
12/03/2013  07:51:00     -118.782      423.449      -55.237      105.583      135.532       53.500    11147.676    18368.798     2862.222       11.442        1.619      439.793       39.850        0.008      331.624       -0.243      851.569
12/03/2013  07:52:00     -121.770      390.460      -44.322      122.692      179.687       68.837    15053.393    32287.240     4738.565       11.065        2.604      409.007       82.266        0.040      331.611       -0.266      851.579
12/03/2013  07:53:00      -80.257      460.126      -38.984      126.595      161.674       97.279    16026.378    26138.374     9463.180       13.564        2.581      467.073       92.258        0.039      331.540       -0.382      851.619
12/03/2013  07:54:00     -157.033      541.100      -78.014      159.483      191.833       94.343    25434.929    36799.794     8900.694       19.732        3.557      563.426       58.666        0.011      331.452       -0.527      851.662
12/03/2013  07:55:00     -118.625      308.128      -40.610      143.449      169.686       72.622    20577.566    28793.395     5274.000        8.264        2.732      330.174       92.214        0.078      331.509       -0.432      851.678
12/03/2013  07:56:00      -65.191      435.080      -37.918      106.819      166.866       77.170    11410.234    27844.217     5955.213       12.009        2.260      439.936       79.035        0.032      331.467       -0.501      851.717
12/03/2013  07:57:00      -62.113      395.011      -45.487       98.613       92.662       58.495     9724.539     8586.321     3421.668        9.184        1.087      399.864       44.206        0.012      331.416       -0.588      851.739
12/03/2013  07:58:00       -6.463      319.415      -19.876       69.192      137.591       73.849     4787.524    18931.156     5453.651        6.581        1.459      319.480       74.027        0.054      331.434       -0.556      851.745
12/03/2013  07:59:00      -70.224      329.680      -19.665       99.634      157.782       71.829     9926.861    24895.311     5159.465        7.699        1.999      337.076       70.611        0.044      331.399       -0.615      851.820
12/03/2013  08:00:00      -65.500      333.678      -43.229       82.714      137.051       63.875     6841.628    18783.007     4079.967        7.360        1.485      340.046       49.521        0.021      331.411       -0.596      851.918
12/03/2013  08:01:00     -236.969      306.758      -52.187      161.813      113.095       79.970    26183.471    12790.517     6395.260        9.916        2.268      387.627       82.995        0.046      331.341       -0.711      851.945
12/03/2013  08:02:00      -45.094      175.398       -4.084       69.239       99.223       64.875     4794.071     9845.255     4208.753        2.583        0.942      181.102       66.371        0.134      331.432       -0.558      851.979
12/03/2013  08:03:00     -208.679      233.465      -59.548      139.650      150.260       65.571    19502.111    22577.965     4299.500        7.398        2.319      313.134       76.731        0.060      331.307       -0.766      852.056
12/03/2013  08:04:00     -102.068      176.757      -21.741       93.145      106.239       52.703     8675.958    11286.684     2777.647        3.243        1.137      204.110       44.477        0.047      331.351       -0.692      852.157
12/03/2013  08:05:00      -57.677      247.426      -20.153       67.849      112.870       47.912     4603.527    12739.684     2295.596        4.229        0.982      254.059       57.252        0.051      331.381       -0.644      852.293
12/03/2013  08:06:00     -112.946      176.087      -23.569      118.557      140.679       54.973    14055.688    19790.528     3022.025        4.059        1.843      209.197       43.228        0.043      331.390       -0.628      852.363
12/03/2013  08:07:00     -133.236      259.302      -53.336      134.162      128.716       63.069    17999.496    16567.739     3977.708        6.318        1.927      291.529       68.562        0.055      331.309       -0.762      852.400
12/03/2013  08:08:00      -97.840      284.288      -34.318       79.827      100.679       58.195     6372.312    10136.213     3386.646        5.573        0.995      300.653       47.601        0.025      331.350       -0.694      852.488
12/03/2013  08:09:00      -37.314      259.217      -16.905       81.806      162.302       56.381     6692.207    26341.863     3178.866        5.253        1.811      261.889       77.092        0.087      331.278       -0.812      852.544
12/03/2013  08:10:00       13.073      260.457      -24.970      131.829      138.876       72.764    17378.904    19286.572     5294.652        5.529        2.098      260.785       70.430        0.073      331.212       -0.922      852.550
12/03/2013  08:11:00      -92.643      218.525      -31.694       97.568      139.409       68.182     9519.488    19434.937     4648.742        4.547        1.680      237.352       76.043        0.103      331.236       -0.881      852.634
12/03/2013  08:12:00      -88.079      158.066      -13.055       96.769      120.690       55.203     9364.256    14566.151     3047.319        2.994        1.349      180.950       47.367        0.069      331.257       -0.849      852.723
12/03/2013  08:13:00     -130.368      240.702      -25.949      113.806      120.778       66.824    12951.790    14587.266     4465.394        5.380        1.600      273.739       74.308        0.074      331.231       -0.891      852.780
12/03/2013  08:14:00     -220.336      355.852      -51.936      191.313      142.931       88.841    36600.584    20429.305     7892.652       12.139        3.246      418.544       91.637        0.048      331.127       -1.061      852.841
12/03/2013  08:15:00     -129.745      364.223      -40.377      100.516      123.138       60.352    10103.543    15163.081     3642.385        9.001        1.445      386.642       44.878        0.013      331.108       -1.092      852.881
12/03/2013  08:16:00      -78.167      164.413      -17.881       70.064       89.475       39.322     4908.943     8005.735     1546.193        2.396        0.723      182.049       39.819        0.048      331.209       -0.924      852.873
12/03/2013  08:17:00     -106.969      308.228      -36.143      105.445      205.126       67.072    11118.673    42076.641     4498.715        8.271        2.885      326.262       83.193        0.065      331.153       -1.018      852.836
12/03/2013  08:18:00     -116.306      253.399      -29.001      108.986      217.099       68.685    11877.922    47131.897     4717.661        7.114        3.186      278.816       94.822        0.116      331.169       -0.992      852.825
12/03/2013  08:19:00     -147.240      273.955      -36.751      125.344      153.274       86.943    15711.207    23493.050     7559.006        7.241        2.338      311.016      100.575        0.105      331.096       -1.112      852.903
12/03/2013  08:20:00     -147.962      259.721      -28.742      122.070      172.787       75.278    14901.020    29855.331     5666.812        7.029        2.521      298.910       80.069        0.072      331.078       -1.142      852.981
12/03/2013  08:21:00     -130.366      402.706      -38.556      121.817      182.773       82.516    14839.448    33405.980     6808.958       11.784        2.753      423.281       89.777        0.045      330.969       -1.322      853.108
12/03/2013  08:22:00     -165.966      333.406      -39.028      116.492      140.650       67.756    13570.431    19782.303     4590.891        8.908        1.897      372.430       65.615        0.031      330.958       -1.339      853.206
12/03/2013  08:23:00     -201.202      465.032      -58.467      131.729      208.004       90.062    17352.471    43265.543     8111.220       16.443        3.436      506.692       94.379        0.035      330.925       -1.393      853.223
12/03/2013  08:24:00     -205.058      252.158      -37.467      131.528      169.287       58.660    17299.524    28658.070     3441.051        7.821        2.470      325.011       71.120        0.048      330.926       -1.392      853.256
12/03/2013  08:25:00     -208.869      208.236      -33.319      133.850      109.801       82.336    17915.829    12056.324     6779.178        6.242        1.838      294.938       68.538        0.054      330.926       -1.392      853.286
12/03/2013  08:26:00     -114.667      235.712      -24.957       73.295      100.215       60.243     5372.217    10043.120     3629.162        4.418        0.952      262.123       56.019        0.046      330.959       -1.338      853.272
12/03/2013  08:27:00     -214.969      299.934      -40.564      148.265      148.374       90.700    21982.644    22014.863     8226.405        9.501        2.611      369.015       81.579        0.049      330.890       -1.450      853.248
12/03/2013  08:28:00     -159.076      271.587      -46.281       97.796      134.485       57.644     9564.015    18086.205     3322.887        6.608        1.549      314.746       57.529        0.033      330.907       -1.423      853.236
12/03/2013  08:29:00      -98.631      319.774      -28.302      117.693      140.361       71.668    13851.681    19701.269     5136.243        7.573        1.934      334.639       56.752        0.029      330.926       -1.393      853.268
12/03/2013  08:30:00     -175.147      276.558      -45.919       88.465      212.474       74.039     7826.054    45145.092     5481.755        8.385        2.923      327.355       83.871        0.066      330.861       -1.497      853.252
12/03/2013  08:31:00     -180.281      182.317      -42.006      139.886      135.418       76.692    19568.051    18337.921     5881.690        5.564        2.189      256.400       80.675        0.099      330.880       -1.467      853.249
12/03/2013  08:32:00     -136.772      152.712      -16.809      129.286      110.517       68.595    16714.836    12214.051     4705.265        3.797        1.682      205.006       57.837        0.080      330.852       -1.512      853.213
12/03/2013  08:33:00     -116.331      335.421      -37.959      123.493      133.454       67.238    15250.543    17809.894     4520.934        8.252        1.879      355.021       65.315        0.034      330.820       -1.565      853.203
12/03/2013  08:34:00     -131.754      335.743      -41.546       98.301      155.185       66.792     9663.162    24082.331     4461.217        8.500        1.910      360.670       71.228        0.039      330.809       -1.585      853.230
12/03/2013  08:35:00     -158.609      376.231      -56.063      108.332      137.839       73.142    11735.820    18999.606     5349.795       10.296        1.804      408.297       61.246        0.023      330.765       -1.656      853.265
12/03/2013  08:36:00     -114.982      350.058      -34.605       81.089      103.303       56.251     6575.459    10671.432     3164.218        7.868        1.021      368.458       54.769        0.022      330.768       -1.651      853.320
12/03/2013  08:37:00     -152.699      184.634      -28.942      115.952      119.741       60.032    13444.905    14337.838     3603.854        4.481        1.569      239.597       62.281        0.068      330.777       -1.635      853.361
12/03/2013  08:38:00     -153.404      280.405      -33.709      121.488      152.026       71.506    14759.323    23111.811     5113.053        7.313        2.149      319.625       84.098        0.069      330.783       -1.626      853.423
12/03/2013  08:39:00     -110.783      238.468      -28.750       77.024      118.645       63.515     5932.729    14076.633     4034.140        4.700        1.202      262.945       52.428        0.040      330.819       -1.567      853.502
12/03/2013  08:40:00     -161.575      147.371      -15.969      101.971      123.885       68.507    10398.006    15347.550     4693.225        3.925        1.522      218.689       74.992        0.118      330.775       -1.639      853.580
12/03/2013  08:41:00     -182.852      233.213      -40.758      120.992      112.157       68.673    14639.130    12579.257     4716.023        6.070        1.597      296.350       70.906        0.057      330.738       -1.700      853.601
12/03/2013  08:42:00     -133.125      296.442      -42.149      131.904      137.520       56.159    17398.776    18911.864     3153.872        7.341        1.973      324.962       44.761        0.019      330.695       -1.771      853.571
12/03/2013  08:43:00     -143.546      297.768      -34.354      101.305      135.217       65.514    10262.605    18283.745     4292.086        7.164        1.642      330.562       48.360        0.021      330.751       -1.678      853.544
12/03/2013  08:44:00     -227.008      332.081      -54.655      147.796      175.123       73.409    21843.532    30668.088     5388.828       11.134        2.895      402.257       81.093        0.041      330.707       -1.751      853.559
12/03/2013  08:45:00     -138.767      381.175      -46.101       98.394      156.468       63.139     9681.324    24482.187     3986.505       10.241        1.908      405.648       62.070        0.023      330.673       -1.809      853.560
12/03/2013  08:46:00     -150.851      233.414      -26.464      114.734      117.786       63.034    13163.918    13873.500     3973.286        5.447        1.551      277.918       58.966        0.045      330.712       -1.742      853.553
12/03/2013  08:47:00     -181.632      242.398      -28.174      107.242      143.790       63.182    11500.864    20675.696     3991.976        6.435        1.808      302.898       74.714        0.061      330.689       -1.782      853.527
12/03/2013  08:48:00     -117.922      204.391      -28.750       80.116      108.109       53.201     6418.622    11687.654     2830.302        3.872        1.047      235.969       47.175        0.040      330.721       -1.728      853.579
12/03/2013  08:49:00     -156.942      297.857      -41.521      100.344      218.016       62.618    10068.933    47530.834     3921.067        8.828        3.076      336.674       60.120        0.032      330.676       -1.801      853.680
12/03/2013  08:50:00     -220.093      265.905      -48.948      120.143      160.490       65.927    14434.400    25756.960     4346.312        8.303        2.227      345.176       74.838        0.047      330.702       -1.760      853.745
12/03/2013  08:51:00     -224.436      294.077      -60.557      116.812      118.417       67.443    13645.053    14022.655     4548.618        8.636        1.611      369.936       66.616        0.032      330.617       -1.899      853.738
12/03/2013  08:52:00     -207.127      262.500      -49.685       98.325      132.575       59.808     9667.714    17576.077     3576.998        7.254        1.541      334.376       74.653        0.050      330.649       -1.847      853.682
12/03/2013  08:53:00     -221.470      330.988      -53.133      138.521      137.180       73.182    19188.076    18818.266     5355.615       10.239        2.168      398.249       67.083        0.028      330.594       -1.936      853.649
12/03/2013  08:54:00     -201.797      302.243      -49.489       83.963      130.486       63.606     7049.785    17026.477     4045.764        8.132        1.406      363.418       64.432        0.031      330.609       -1.912      853.641
12/03/2013  08:55:00     -144.115      221.776      -25.406      112.893      125.702       67.405    12744.912    15801.008     4543.488        5.184        1.654      264.488       75.565        0.082      330.633       -1.870      853.649
12/03/2013  08:56:00     -177.474      299.080      -49.249       98.879      155.439       69.257     9777.057    24161.419     4796.486        8.105        1.937      347.772       66.803        0.037      330.613       -1.905      853.625
12/03/2013  08:57:00     -148.573      211.472      -34.899      106.539      138.939       58.741    11350.576    19303.971     3450.463        5.105        1.705      258.446       72.801        0.079      330.623       -1.889      853.607
12/03/2013  08:58:00     -203.363      306.598      -53.158      114.969      168.685       62.626    13217.925    28454.589     3921.970        9.188        2.280      367.911       59.908        0.027      330.579       -1.961      853.594
12/03/2013  08:59:00     -184.862      283.728      -43.356      119.135      161.269       72.895    14193.065    26007.556     5313.667        8.103        2.276      338.638       79.707        0.055      330.568       -1.980      853.576
12/03/2013  09:00:00     -161.740      287.469      -45.066      111.034      147.618       74.209    12328.458    21791.176     5506.906        7.522        1.981      329.846       77.294        0.055      330.577       -1.964      853.525
12/03/2013  09:01:00     -130.122      199.023      -19.650       85.263      102.671       65.889     7269.746    10541.338     4341.383        3.954        1.108      237.785       50.922        0.046      330.602       -1.922      853.531
12/03/2013  09:02:00     -211.404      235.208      -41.803      130.626      139.850       73.342    17063.051    19558.112     5379.109        7.187        2.100      316.250       63.199        0.040      330.550       -2.010      853.536
12/03/2013  09:03:00     -161.336      179.397      -12.993       85.603      130.237       59.550     7327.921    16961.692     3546.206        4.310        1.392      241.273       46.658        0.037      330.611       -1.907      853.536
12/03/2013  09:04:00     -188.609      263.742      -51.320       96.928      126.123       62.429     9395.109    15907.048     3897.342        6.848        1.460      324.243       66.830        0.042      330.525       -2.049      853.560
12/03/2013  09:05:00     -125.568      234.541      -27.018      100.028      179.788       55.207    10005.585    32323.580     3047.857        5.843        2.269      266.039       66.262        0.062      330.602       -1.922      853.600
12/03/2013  09:06:00     -225.827      288.827      -55.558       89.434      126.097       62.793     7998.371    15900.462     3942.986        8.267        1.392      366.631       50.138        0.019      330.571       -1.973      853.605
12/03/2013  09:07:00     -282.661      327.422      -72.783      120.879      127.589       75.965    14611.731    16279.060     5770.629       11.452        1.833      432.553       60.340        0.019      330.530       -2.041      853.658
12/03/2013  09:08:00     -167.556      308.444      -58.172       68.015       89.197       48.214     4625.982     7956.176     2324.634        7.075        0.745      351.017       41.213        0.014      330.573       -1.972      853.758
12/03/2013  09:09:00     -249.557      256.728      -63.221       90.464       93.903       52.120     8183.668     8817.811     2716.512        7.595        0.986      358.034       57.033        0.025      330.555       -2.000      853.858
12/03/2013  09:10:00     -193.285      202.833      -41.177       96.984       89.262       48.715     9405.819     7967.792     2373.148        4.997        0.987      280.179       43.068        0.024      330.588       -1.946      853.940
12/03/2013  09:11:00     -141.811      195.243      -23.524      104.215       90.997       58.231    10860.682     8280.494     3390.815        4.065        1.127      241.309       58.709        0.059      330.653       -1.839      853.989
12/03/2013  09:12:00     -121.103      151.858      -29.024       99.874       94.324       35.590     9974.734     8897.016     1266.641        2.935        1.007      194.234       33.528        0.030      330.632       -1.872      854.007
12/03/2013  09:13:00     -163.417      320.060      -50.046       83.026      104.951       50.548     6893.364    11014.741     2555.137        7.605        1.023      359.365       48.285        0.018      330.567       -1.980      853.989
12/03/2013  09:14:00      -99.146      241.593      -23.000       63.549      116.410       54.841     4038.496    13551.359     3007.497        4.466        1.030      261.145       54.566        0.044      330.636       -1.868      853.943
12/03/2013  09:15:00     -118.272      181.704      -31.178       83.548      100.148       51.002     6980.246    10029.694     2601.233        3.379        0.981      216.805       44.071        0.041      330.613       -1.905      853.895
12/03/2013  09:16:00     -139.696      253.105      -38.767       87.101      120.697       51.868     7586.633    14567.797     2690.307        5.496        1.242      289.097       54.610        0.036      330.650       -1.843      853.862
12/03/2013  09:17:00     -166.544      272.863      -48.342       97.945      135.833       68.973     9593.286    18450.599     4757.344        6.866        1.640      319.674       74.449        0.054      330.558       -1.995      853.856
12/03/2013  09:18:00     -197.985      298.888      -61.932      111.326      133.539       62.713    12393.474    17832.777     3932.979        8.326        1.708      358.514       56.994        0.025      330.565       -1.984      853.860
12/03/2013  09:19:00     -108.448      271.982      -33.903       82.100      104.292       56.362     6740.420    10876.765     3176.624        5.384        1.040      292.806       48.681        0.028      330.586       -1.950      853.862
12/03/2013  09:20:00     -125.446      320.440      -26.683      107.857      120.337       66.811    11633.176    14481.062     4463.690        7.485        1.529      344.120       51.661        0.023      330.552       -2.005      853.838
12/03/2013  09:21:00     -123.358      293.934      -41.961       97.999       93.091       54.270     9603.807     8665.953     2945.272        6.229        1.061      318.770       57.529        0.033      330.539       -2.028      853.807
12/03/2013  09:22:00      -48.432      279.420      -36.904       71.986       92.690       39.905     5181.951     8591.462     1592.418        4.857        0.768      283.587       35.731        0.016      330.576       -1.966      853.773
12/03/2013  09:23:00      -85.345      216.347      -28.590       63.470      108.683       42.951     4028.496    11811.969     1844.821        3.629        0.884      232.572       36.282        0.024      330.646       -1.852      853.747
12/03/2013  09:24:00     -144.452      358.904      -44.679       88.172      135.333       58.502     7774.377    18314.922     3422.522        9.059        1.476      386.883       55.692        0.021      330.490       -2.107      853.764
12/03/2013  09:25:00     -160.899      262.582      -37.132      106.409       97.232       65.347    11322.975     9454.065     4270.262        6.063        1.252      307.957       62.757        0.042      330.503       -2.085      853.816
12/03/2013  09:26:00      -40.539      278.219      -25.241       52.341       98.331       44.645     2739.586     9668.902     1993.201        4.704        0.720      281.157       38.517        0.019      330.567       -1.980      853.875
12/03/2013  09:27:00      -73.293      290.781      -40.267       77.539       77.415       43.269     6012.369     5993.084     1872.227        5.271        0.694      299.875       33.064        0.012      330.564       -1.985      853.929
12/03/2013  09:28:00     -161.233      209.516      -37.941       79.391       98.057       53.052     6302.925     9615.165     2814.523        4.503        0.937      264.373       50.257        0.036      330.553       -2.004      854.003
12/03/2013  09:29:00     -125.482      272.697      -49.780      100.120      108.216       55.661    10024.095    11710.637     3098.200        5.871        1.242      300.182       64.707        0.046      330.498       -2.093      854.058
12/03/2013  09:30:00      -45.004      281.791      -21.714       79.111      103.586       50.556     6258.495    10730.005     2555.922        5.072        0.977      285.362       51.076        0.032      330.546       -2.015      854.033
12/03/2013  09:31:00      -91.358      204.435      -24.528       68.048      137.171       52.841     4630.520    18815.993     2792.209        3.848        1.312      223.919       66.650        0.089      330.580       -1.959      854.025
12/03/2013  09:32:00      -38.047      229.449      -21.699       61.105       93.858       46.182     3733.846     8809.356     2132.734        3.462        0.734      232.582       42.173        0.033      330.592       -1.938      854.042
12/03/2013  09:33:00      -68.279      227.339      -28.709       65.312       78.366       38.034     4265.614     6141.249     1446.589        3.451        0.593      237.371       36.698        0.024      330.682       -1.793      854.029
12/03/2013  09:34:00      -67.596      164.465      -22.857       68.498      105.493       44.763     4691.976    11128.788     2003.700        2.498        0.891      177.815       42.857        0.058      330.633       -1.870      854.029
12/03/2013  09:35:00      -51.721      231.264      -27.351       57.739       85.357       37.322     3333.836     7285.772     1392.906        3.446        0.601      236.977       40.807        0.030      330.528       -2.044      854.029
12/03/2013  09:36:00      -35.945      131.074       -2.990       85.224       74.248       50.852     7263.215     5512.760     2585.952        1.692        0.768      135.913       47.604        0.123      330.665       -1.818      854.019
12/03/2013  09:37:00      -66.612      270.355      -32.270       86.102      108.079       51.020     7413.542    11681.016     2603.028        5.013        1.085      278.440       50.205        0.033      330.568       -1.981      853.986
12/03/2013  09:38:00      -21.356      206.283      -12.137       56.558      104.966       43.480     3198.781    11017.896     1890.469        2.963        0.805      207.385       51.501        0.062      330.600       -1.926      853.943
12/03/2013  09:39:00     -107.858      314.473      -44.465      109.805      116.279       49.886    12057.119    13520.893     2488.566        7.028        1.403      332.455       52.823        0.025      330.470       -2.139      853.894
12/03/2013  09:40:00     -130.837      274.798      -34.984       81.952      114.360       48.083     6716.102    13078.251     2311.941        5.798        1.105      304.355       40.745        0.018      330.486       -2.113      853.897
12/03/2013  09:41:00      -46.018      206.464      -25.088       81.589       73.947       48.190     6656.714     5468.151     2322.254        2.991        0.722      211.530       43.389        0.042      330.562       -1.989      853.918
12/03/2013  09:42:00      -30.487      176.313        3.232       57.923       85.912       48.615     3355.041     7380.809     2363.448        2.256        0.655      178.929       52.658        0.087      330.649       -1.844      853.911
12/03/2013  09:43:00        6.762      324.519      -33.990       89.022      110.793       53.982     7924.872    12275.183     2914.007        6.481        1.156      324.590       55.327        0.029      330.473       -2.134      853.904
12/03/2013  09:44:00      -56.530      373.735      -47.040       71.188       88.996       45.118     5067.798     7920.300     2035.615        8.005        0.751      377.986       39.645        0.011      330.444       -2.183      853.918
12/03/2013  09:45:00      -16.816      235.990      -30.862       47.645       68.217       29.785     2270.039     4653.521      887.149        3.237        0.391      236.589       24.949        0.011      330.521       -2.056      853.963
12/03/2013  09:46:00      -46.927      320.033      -37.070       90.652       92.591       47.194     8217.714     8573.056     2227.300        6.250        0.951      323.455       37.901        0.014      330.464       -2.149      854.009
12/03/2013  09:47:00       -3.846      187.556       -6.317       71.731       73.189       53.495     5145.283     5356.582     2861.754        2.430        0.668      187.596       46.247        0.061      330.550       -2.007      854.051
12/03/2013  09:48:00        1.112      218.614      -23.583       66.418      136.581       54.875     4411.327    18654.236     3011.258        3.721        1.304      218.616       69.023        0.100      330.450       -2.171      854.109
12/03/2013  09:49:00      -43.911      304.862      -36.348       70.567       78.020       45.889     4979.652     6087.121     2105.824        5.468        0.659      308.008       39.778        0.017      330.468       -2.143      854.155
12/03/2013  09:50:00      -66.733      294.674      -41.827       83.064       69.489       41.646     6899.594     4828.671     1734.403        5.325        0.673      302.135       38.280        0.016      330.437       -2.195      854.186
12/03/2013  09:51:00      -22.518      328.331      -48.757       75.195      120.963       40.401     5654.231    14632.158     1632.269        6.630        1.096      329.103       51.442        0.024      330.411       -2.236      854.212
12/03/2013  09:52:00        5.981      218.369      -20.435       59.456       96.534       41.265     3534.968     9318.901     1702.805        3.134        0.728      218.451       48.461        0.049      330.451       -2.171      854.266
12/03/2013  09:53:00      -47.098      204.859      -23.313       83.888       78.795       37.869     7037.258     6208.698     1434.063        2.970        0.734      210.203       41.286        0.039      330.527       -2.046      854.343
12/03/2013  09:54:00      -46.136      253.255      -22.485       88.029      108.269       58.856     7749.163    11722.184     3464.020        4.485        1.147      257.423       59.735        0.054      330.475       -2.132      854.392
12/03/2013  09:55:00     -115.864      332.027      -49.858       89.605       87.895       46.972     8029.039     7725.535     2206.337        7.205        0.898      351.662       40.530        0.013      330.464       -2.149      854.394
12/03/2013  09:56:00      -83.310      282.344      -38.085       83.127       82.072       39.650     6910.080     6735.786     1572.146        5.166        0.761      294.379       42.076        0.020      330.444       -2.183      854.379
12/03/2013  09:57:00      -12.722      202.032      -19.818       49.796      101.971       42.667     2479.616    10398.176     1820.498        2.803        0.735      202.433       45.881        0.051      330.559       -1.993      854.341
12/03/2013  09:58:00      -57.263      156.808      -14.887       49.625       62.660       36.165     2462.616     3926.305     1307.877        1.789        0.385      166.937       31.710        0.036      330.538       -2.027      854.317
12/03/2013  09:59:00       -4.283      134.867      -10.420       63.593       99.724       42.727     4044.123     9944.927     1825.588        1.706        0.791      134.935       49.147        0.133      330.569       -1.976      854.329
12/03/2013  10:00:00        5.558      177.311      -17.294       49.591      108.639       40.534     2459.250    11802.507     1643.026        2.383        0.795      177.398       46.918        0.070      330.478       -2.126      854.337
12/03/2013  10:01:00      -61.156      217.954      -20.454       56.797       81.236       44.684     3225.937     6599.343     1996.655        3.174        0.591      226.371       45.595        0.041      330.556       -1.998      854.369
12/03/2013  10:02:00       19.876      120.094       -3.163       58.683       75.874       39.753     3443.691     5756.848     1580.340        1.280        0.539      121.728       40.192        0.109      330.609       -1.909      854.431
12/03/2013  10:03:00       25.505      204.857      -16.576       47.202       65.612       42.312     2228.048     4304.994     1790.303        2.561        0.416      206.439       37.872        0.034      330.483       -2.117      854.463
12/03/2013  10:04:00       42.176       73.705      -10.520       53.106       60.484       32.482     2820.299     3658.280     1055.082        0.743        0.377       84.919       30.316        0.127      330.532       -2.034      854.433
12/03/2013  10:05:00        8.317      311.864      -38.456       74.678      106.791       49.763     5576.790    11404.273     2476.373        5.913        0.973      311.975       53.523        0.029      330.416       -2.229      854.367
12/03/2013  10:06:00      -11.517      260.789      -36.398       57.851       64.034       30.498     3346.718     4100.328      930.139        3.892        0.419      261.043       28.034        0.012      330.429       -2.208      854.324
12/03/2013  10:07:00       41.696      189.644      -27.891       46.603       87.463       45.231     2171.859     7649.806     2045.827        2.517        0.593      194.174       50.241        0.067      330.424       -2.213      854.315
12/03/2013  10:08:00       72.757       67.576       18.478       51.746       53.469       42.280     2677.622     2858.937     1787.575        0.876        0.366       99.298       29.768        0.090      330.469       -2.138      854.310
12/03/2013  10:09:00      110.044       93.996       14.229       88.581       61.881       43.824     7846.505     3829.302     1920.522        1.737        0.680      144.724       33.013        0.052      330.467       -2.143      854.303
12/03/2013  10:10:00       82.127      157.888       -3.826       87.973       81.757       56.471     7739.240     6684.280     3188.956        2.465        0.881      177.970       50.700        0.081      330.437       -2.194      854.313
12/03/2013  10:11:00      104.654      163.797        6.738      111.568      101.600       60.441    12447.435    10322.544     3653.073        3.212        1.321      194.376       62.190        0.102      330.459       -2.157      854.312
12/03/2013  10:12:00      136.584      143.620        6.149      136.683      114.511       66.117    18682.157    13112.691     4371.392        3.774        1.808      198.196       64.809        0.107      330.449       -2.173      854.330
12/03/2013  10:13:00       17.967      184.033      -16.446       36.268       67.470       37.793     1315.374     4552.217     1428.277        2.088        0.365      184.908       38.443        0.043      330.436       -2.194      854.370
12/03/2013  10:14:00       -8.793      129.329        2.099       28.002       56.673       37.604      784.107     3211.837     1414.072        1.111        0.271      129.628       36.947        0.081      330.530       -2.040      854.367
12/03/2013  10:15:00        9.637       62.814        3.311       28.149       67.808       25.372      792.378     4597.943      643.729        0.504        0.302       63.549       32.553        0.262      330.517       -2.059      854.306
12/03/2013  10:16:00      129.567      106.797       13.050       97.521       60.433       46.734     9510.366     3652.182     2184.102        2.185        0.767      167.908       40.105        0.057      330.428       -2.206      854.266
12/03/2013  10:17:00       51.908       84.832        0.750       55.308       61.290       34.129     3058.920     3756.408     1164.820        0.893        0.399       99.453       27.419        0.076      330.430       -2.204      854.299
12/03/2013  10:18:00      149.130      104.400       20.357      104.284       71.254       49.771    10875.123     5077.075     2477.198        2.599        0.921      182.042       37.684        0.043      330.447       -2.175      854.265
12/03/2013  10:19:00      118.499       91.281       10.878       46.348       41.816       45.794     2148.109     1748.543     2097.096        1.424        0.300      149.580       28.809        0.037      330.423       -2.215      854.237
12/03/2013  10:20:00      109.171      104.948       -3.997       78.230       68.624       68.287     6119.941     4709.274     4663.057        1.922        0.775      151.434       51.391        0.115      330.356       -2.325      854.252
12/03/2013  10:21:00      186.619      146.604       13.762      133.746       75.430       58.820    17888.053     5689.647     3459.770        4.177        1.352      237.317       44.246        0.035      330.285       -2.442      854.261
12/03/2013  10:22:00      160.050       99.862       -5.470       86.876       59.441       49.328     7547.446     3533.263     2433.270        2.456        0.676      188.648       17.577        0.009      330.247       -2.504      854.225
12/03/2013  10:23:00       72.406      207.557      -27.640       84.772       91.123       47.791     7186.349     8303.344     2284.015        3.343        0.889      219.824       51.705        0.055      330.148       -2.668      854.255
12/03/2013  10:24:00      138.751      193.087       -4.550      110.692      129.176       82.664    12252.654    16686.476     6833.260        4.616        1.789      237.770       78.937        0.110      330.112       -2.726      854.301
12/03/2013  10:25:00       52.208      125.776        3.911       75.456      105.096       64.222     5693.644    11045.216     4124.506        1.971        1.043      136.181       65.427        0.231      330.145       -2.670      854.299
12/03/2013  10:26:00      138.881      143.608       20.620      103.978       79.256       65.896    10811.462     6281.441     4342.227        3.088        1.072      199.778       58.996        0.087      330.096       -2.753      854.331
12/03/2013  10:27:00      119.969      111.563        5.496       81.485       71.413       61.182     6639.816     5099.861     3743.231        2.117        0.774      163.826       49.799        0.092      330.121       -2.711      854.394
12/03/2013  10:28:00      104.901      157.513        0.734       99.803      111.691       58.390     9960.591    12474.921     3409.402        3.082        1.292      189.247       58.598        0.096      330.115       -2.720      854.434
12/03/2013  10:29:00       33.749      236.983      -12.636       95.919      157.383       58.690     9200.405    24769.426     3444.515        4.743        1.871      239.374       80.957        0.114      330.100       -2.745      854.448
12/03/2013  10:30:00       60.868      109.618       -0.605       65.948       74.635       44.772     4349.122     5570.395     2004.556        1.382        0.596      125.384       34.327        0.075      330.197       -2.586      854.485
12/03/2013  10:31:00       32.537      194.706      -13.310       73.287       92.296       47.264     5371.051     8518.485     2233.868        2.763        0.806      197.406       48.614        0.061      330.111       -2.727      854.513
12/03/2013  10:32:00       55.334      210.946      -21.418       58.992      110.518       59.758     3480.068    12214.333     3571.048        3.364        0.963      218.083       62.281        0.082      330.110       -2.729      854.521
12/03/2013  10:33:00       23.806      211.300      -16.039       57.027      107.987       58.886     3252.106    11661.208     3467.605        3.192        0.919      212.637       61.532        0.084      330.112       -2.726      854.476
12/03/2013  10:34:00       57.166      185.304       -9.475       64.469      116.037       62.991     4156.223    13464.643     3967.896        2.964        1.079      193.922       70.569        0.132      330.104       -2.739      854.439
12/03/2013  10:35:00       71.793      128.210        8.276       71.462       78.641       57.494     5106.775     6184.448     3305.570        1.813        0.730      146.942       53.374        0.132      330.108       -2.731      854.421
12/03/2013  10:36:00       87.404      133.367        0.547       61.410       73.696       51.824     3771.162     5431.027     2685.776        1.865        0.594      159.456       49.790        0.097      330.119       -2.713      854.371
12/03/2013  10:37:00      136.703      113.947       15.651       93.238       71.272       61.082     8693.275     5079.740     3731.069        2.471        0.875      177.965       39.155        0.048      330.083       -2.774      854.335
12/03/2013  10:38:00      115.255       95.286        6.472       73.899       52.957       47.398     5461.054     2804.489     2246.537        1.646        0.526      149.543       36.933        0.061      330.106       -2.733      854.299
12/03/2013  10:39:00       65.027       81.836        4.957       57.636       66.182       36.000     3321.904     4380.123     1295.978        0.997        0.450      104.525       19.951        0.036      330.160       -2.645      854.236
12/03/2013  10:40:00      136.978       69.663        9.705       67.451       46.700       36.480     4549.623     2180.902     1330.775        1.588        0.403      153.674       18.926        0.015      330.216       -2.553      854.164
12/03/2013  10:41:00      208.132      168.855        7.123       87.872       64.683       65.684     7721.493     4183.945     4314.434        4.405        0.811      268.013       48.390        0.033      330.085       -2.771      854.046
12/03/2013  10:42:00      152.313       78.623       27.017       73.990       49.010       53.116     5474.513     2402.010     2821.260        2.040        0.535      171.408       29.436        0.029      330.126       -2.704      853.952
12/03/2013  10:43:00      183.803      165.360       28.792      115.644       67.389       67.291    13373.459     4541.249     4528.026        4.220        1.122      247.240       46.491        0.035      330.068       -2.798      853.902
12/03/2013  10:44:00      108.486      161.504       -2.276       92.736       84.974       67.471     8599.984     7220.528     4552.284        2.911        1.019      194.558       58.578        0.091      330.096       -2.751      853.899
12/03/2013  10:45:00       97.773      142.630        2.153      109.411       87.473       73.927    11970.719     7651.443     5465.225        2.749        1.254      172.925       59.404        0.118      330.064       -2.805      853.926
12/03/2013  10:46:00       61.082      185.875      -19.049       63.751       89.278       58.037     4064.160     7970.531     3368.265        2.702        0.770      195.654       55.590        0.081      330.095       -2.754      853.999
12/03/2013  10:47:00       66.980      143.204      -14.961       54.119       65.581       42.149     2928.907     4300.913     1776.558        1.711        0.450      158.094       36.849        0.054      330.094       -2.754      854.095
12/03/2013  10:48:00       21.274      106.509        0.786       63.061       64.618       44.713     3976.632     4175.477     1999.228        1.097        0.508      108.613       43.491        0.160      330.157       -2.650      854.187
12/03/2013  10:49:00       41.141       71.521        7.252       59.374       35.827       30.167     3525.258     1283.563      910.061        0.629        0.286       82.509       25.713        0.097      330.156       -2.653      854.243
12/03/2013  10:50:00       44.256       75.131       14.247       52.513       44.253       27.771     2757.634     1958.320      771.243        0.665        0.274       87.197       24.067        0.076      330.183       -2.608      854.243
12/03/2013  10:51:00       32.759       89.743        4.065       48.980       47.779       36.001     2399.074     2282.809     1296.050        0.756        0.299       95.535       34.485        0.130      330.199       -2.582      854.221
12/03/2013  10:52:00       13.537      106.795      -13.995       21.068       31.250       18.610      443.850      976.558      346.350        0.678        0.088      107.650       16.502        0.023      330.246       -2.505      854.149
12/03/2013  10:53:00       19.980      166.089       -8.343       59.203       96.689       49.639     3505.019     9348.814     2464.003        2.168        0.766      167.287       54.991        0.108      330.214       -2.558      854.009
12/03/2013  10:54:00       10.337      152.411      -16.927       43.199       52.342       38.099     1866.143     2739.667     1451.517        1.484        0.303      152.761       36.913        0.058      330.261       -2.480      853.945
12/03/2013  10:55:00      -15.313      187.345      -16.917       52.719       98.841       42.955     2779.242     9769.468     1845.093        2.500        0.720      187.969       51.946        0.076      330.171       -2.628      853.951
12/03/2013  10:56:00      -34.551      269.496      -25.504       66.726       90.140       46.296     4452.302     8125.216     2143.315        4.459        0.736      271.702       47.020        0.030      330.098       -2.751      853.951
12/03/2013  10:57:00       53.398      125.494       -4.038       62.939       65.073       50.184     3961.344     4234.541     2518.422        1.466        0.536      136.382       39.980        0.086      330.146       -2.670      853.946
12/03/2013  10:58:00       25.319      168.299      -23.617       65.781      105.889       50.111     4327.196    11212.485     2511.158        2.378        0.903      170.193       59.403        0.122      330.156       -2.654      853.970
12/03/2013  10:59:00      -34.061       78.411       -0.180       52.245       47.865       39.758     2729.588     2291.084     1580.670        0.695        0.330       85.490       24.317        0.081      330.275       -2.457      854.012
12/03/2013  11:00:00      -16.539      189.387      -17.398       68.107      105.207       44.668     4638.532    11068.494     1995.253        2.707        0.885      190.108       59.205        0.097      330.108       -2.731      854.059
12/03/2013  11:01:00       48.559       90.204       -3.742       50.135       68.755       38.324     2513.553     4727.253     1468.723        0.961        0.435      102.444       37.587        0.135      330.161       -2.644      854.067
12/03/2013  11:02:00      -22.997       62.136        6.657       72.868       67.824       38.629     5309.677     4600.135     1492.164        0.792        0.570       66.255       37.825        0.326      330.280       -2.448      854.078
12/03/2013  11:03:00       21.477       67.501      -15.110       47.858       42.613       21.983     2290.426     1815.889      483.236        0.492        0.229       70.836       26.326        0.138      330.197       -2.584      854.137
12/03/2013  11:04:00      -56.646      105.778      -13.736       47.693       59.954       33.975     2274.634     3594.432     1154.277        1.080        0.351      119.991       34.205        0.081      330.186       -2.602      854.212
12/03/2013  11:05:00       50.871       68.699       12.584       85.735       55.158       34.393     7350.528     3042.393     1182.907        0.952        0.579       85.483       29.222        0.117      330.291       -2.431      854.214
12/03/2013  11:06:00      -31.848      144.331       -9.642       54.765       89.648       39.976     2999.159     8036.757     1598.094        1.728        0.632      147.803       46.844        0.100      330.133       -2.692      854.189
12/03/2013  11:07:00      -14.434      136.054       -2.184       86.064      115.768       47.485     7406.980    13402.331     2254.794        2.089        1.153      136.818       52.322        0.146      330.226       -2.538      854.110
12/03/2013  11:08:00       68.459      139.876        1.347       96.306       98.903       66.084     9274.920     9781.862     4367.067        2.383        1.171      155.730       57.980        0.139      330.118       -2.714      853.999
12/03/2013  11:09:00       75.169      155.561        1.410       97.761      123.699       68.371     9557.311    15301.366     4674.651        2.969        1.477      172.771       64.791        0.141      330.011       -2.891      853.940
12/03/2013  11:10:00      135.007      239.831      -10.395      103.596      141.946       78.201    10732.192    20148.594     6115.467        5.642        1.850      275.220       84.728        0.095      329.940       -3.008      853.906
12/03/2013  11:11:00      143.849      211.666        6.129      131.090      123.334       84.822    17184.533    15211.326     7194.821        5.255        1.980      255.920       75.797        0.088      329.938       -3.011      853.865
12/03/2013  11:12:00       95.819      100.328        7.262       99.667       63.325       56.395     9933.529     4010.026     3180.440        1.821        0.856      138.734       42.215        0.093      329.967       -2.963      853.869
12/03/2013  11:13:00       70.355      125.337        1.894       79.531       93.876       54.840     6325.242     8812.662     3007.458        1.940        0.907      143.734       55.781        0.151      330.002       -2.905      853.924
12/03/2013  11:14:00       84.751      148.379        0.233      100.391       77.374       73.479    10078.270     5986.746     5399.173        2.533        1.073      170.878       59.572        0.122      329.956       -2.981      853.917
12/03/2013  11:15:00       36.585      172.995      -16.440       58.888       93.910       50.590     3467.808     8819.142     2559.354        2.319        0.742      176.821       52.341        0.088      329.983       -2.936      853.923
12/03/2013  11:16:00       66.193      142.563       -3.941       70.695       65.444       45.026     4997.853     4282.872     2027.347        1.801        0.565      157.181       36.051        0.053      329.989       -2.927      853.963
12/03/2013  11:17:00       83.141      129.374       12.271       82.037       77.180       56.142     6730.027     5956.729     3151.961        1.982        0.792      153.785       50.116        0.106      329.995       -2.917      853.965
12/03/2013  11:18:00       28.989       76.008       -1.907       38.912       58.780       29.262     1514.118     3455.047      856.288        0.622        0.291       81.348       27.097        0.111      330.065       -2.801      853.916
12/03/2013  11:19:00       68.681      188.864      -22.395       76.665      120.687       56.983     5877.456    14565.251     3247.010        3.228        1.184      200.965       63.260        0.099      329.990       -2.926      853.875
12/03/2013  11:20:00       27.488      158.374        9.165       63.326      149.510       70.646     4010.193    22353.327     4990.849        2.863        1.568      160.741       86.341        0.289      330.044       -2.837      853.845
12/03/2013  11:21:00       66.941      125.986       12.552       84.806       78.752       47.939     7192.027     6201.851     2298.174        1.810        0.785      142.666       37.429        0.069      329.994       -2.919      853.838
12/03/2013  11:22:00       50.562       73.580        5.596       57.200       64.665       40.761     3271.843     4181.624     1661.427        0.856        0.456       89.278       35.153        0.155      330.016       -2.882      853.856
12/03/2013  11:23:00       59.624      117.953       -9.390       72.505       82.294       45.450     5257.020     6772.245     2065.686        1.582        0.705      132.166       45.231        0.117      329.990       -2.924      853.874
12/03/2013  11:24:00       77.441      136.264        0.385       70.705       84.893       67.274     4999.203     7206.855     4525.852        2.065        0.837      156.732       61.029        0.152      329.993       -2.919      853.898
12/03/2013  11:25:00       58.871      113.513       -0.138       78.247       94.650       59.612     6122.657     8958.644     3553.583        1.749        0.932      127.871       60.672        0.225      329.999       -2.910      853.925
12/03/2013  11:26:00       35.327       91.689        2.950       55.614       58.220       34.076     3092.888     3389.540     1161.169        0.865        0.382       98.259       32.316        0.108      330.082       -2.773      853.926
12/03/2013  11:27:00       86.305      184.345       -6.805       74.484      120.631       65.392     5547.886    14551.818     4276.086        3.292        1.219      203.548       70.776        0.121      329.983       -2.936      853.924
12/03/2013  11:28:00        0.177      150.185      -19.946       62.507       88.441       41.520     3907.162     7821.857     1723.908        1.820        0.673      150.185       48.187        0.103      330.031       -2.858      853.910
12/03/2013  11:29:00       65.036      118.591       -3.242       70.780       80.980       47.745     5009.814     6557.823     2279.599        1.607        0.692      135.253       41.311        0.093      330.018       -2.878      853.882
12/03/2013  11:30:00       89.925      139.054        4.123       72.509      113.842       64.968     5257.555    12959.985     4220.800        2.493        1.122      165.597       68.345        0.170      329.989       -2.928      853.871
12/03/2013  11:31:00       75.804      175.497      -21.239       85.691       91.944       56.206     7342.911     8453.641     3159.135        2.797        0.948      191.169       49.798        0.068      329.963       -2.970      853.828
12/03/2013  11:32:00       77.065       89.782        1.730       91.732       78.118       57.748     8414.699     6102.452     3334.859        1.592        0.893      118.320       38.064        0.103      330.061       -2.809      853.788
12/03/2013  11:33:00       45.083      148.135      -10.123       78.022      121.775       65.334     6087.382    14829.211     4268.523        2.463        1.259      154.843       70.304        0.206      330.028       -2.862      853.779
12/03/2013  11:34:00       71.495      214.407      -31.320       64.212      105.438       55.140     4123.174    11117.180     3040.378        3.517        0.914      226.013       58.555        0.067      329.973       -2.954      853.770
12/03/2013  11:35:00       64.855      255.935      -22.755       76.239      120.169       65.363     5812.352    14440.532     4272.306        4.737        1.226      264.024       69.725        0.070      329.986       -2.932      853.726
12/03/2013  11:36:00       98.535      140.294       -9.006      103.089      117.004       57.767    10627.403    13689.948     3336.973        2.856        1.383      171.440       58.492        0.116      330.031       -2.859      853.695
12/03/2013  11:37:00      114.214       87.380       14.841       71.063       61.957       49.875     5049.881     3838.690     2487.548        1.614        0.569      143.806       36.642        0.065      330.084       -2.770      853.699
12/03/2013  11:38:00       70.128      111.148       -4.658       63.367       64.847       54.698     4015.361     4205.075     2991.861        1.425        0.561      131.422       40.458        0.095      330.058       -2.813      853.698
12/03/2013  11:39:00       69.125      156.815       -1.296       60.698       82.203       61.352     3684.222     6757.303     3764.013        2.179        0.710      171.375       49.534        0.084      330.059       -2.812      853.713
12/03/2013  11:40:00       94.593      122.495       -1.235       74.842       75.887       47.233     5601.354     5758.796     2230.924        1.877        0.680      154.767       40.795        0.069      330.108       -2.733      853.752
12/03/2013  11:41:00       60.557      175.927       -8.481       88.866      108.732       66.524     7897.153    11822.663     4425.462        2.941        1.207      186.058       62.032        0.111      330.084       -2.772      853.797
12/03/2013  11:42:00        1.815      246.006      -28.875       80.223      129.589       49.153     6435.696    16793.199     2416.029        4.350        1.282      246.013       62.372        0.064      330.055       -2.820      853.820
12/03/2013  11:43:00        2.131      378.241      -59.760       67.521       75.334       31.132     4559.147     5675.145      969.192        7.892        0.560      378.247       28.657        0.006      330.002       -2.907      853.826
12/03/2013  11:44:00       88.405      144.715       -6.857       79.977       87.938       61.352     6396.317     7733.076     3764.092        2.335        0.895      169.581       47.333        0.078      330.148       -2.667      853.784
12/03/2013  11:45:00       93.355      187.766      -15.803       90.809       91.877       56.527     8246.315     8441.365     3195.286        3.205        0.994      209.693       52.885        0.064      330.095       -2.752      853.763
12/03/2013  11:46:00       71.104       91.321        0.712       67.240       64.533       49.958     4521.201     4164.479     2495.799        1.229        0.559      115.738       43.718        0.143      330.196       -2.587      853.746
12/03/2013  11:47:00       12.691      152.842      -18.339       61.704       74.472       41.668     3807.338     5546.105     1736.241        1.747        0.554      153.368       40.666        0.070      330.183       -2.609      853.716
12/03/2013  11:48:00       49.679      195.613      -19.647       75.346      108.487       48.582     5677.058    11769.522     2360.163        3.046        0.990      201.823       51.997        0.066      330.172       -2.627      853.716
12/03/2013  11:49:00       45.272      120.096       -6.050       66.058      109.847       56.039     4363.601    12066.310     3140.378        1.804        0.979      128.345       48.187        0.141      330.191       -2.596      853.729
12/03/2013  11:50:00       40.266      297.367      -26.711       76.187      135.873       73.797     5804.514    18461.435     5446.035        6.023        1.486      300.081       85.394        0.081      330.166       -2.637      853.706
12/03/2013  11:51:00       51.966      169.160      -13.261       81.135      126.426       63.246     6582.878    15983.521     4000.074        2.902        1.328      176.963       66.786        0.142      330.224       -2.542      853.657
12/03/2013  11:52:00       57.204      211.492      -19.911       85.893      118.042       61.669     7377.683    13933.890     3803.071        3.675        1.256      219.092       62.119        0.080      330.178       -2.618      853.622
12/03/2013  11:53:00       42.408      187.404      -13.176       85.204      133.217       62.010     7259.670    17746.730     3845.205        3.297        1.443      192.142       66.683        0.120      330.175       -2.623      853.626
12/03/2013  11:54:00       27.031      310.843      -52.394       46.416       86.386       33.964     2154.477     7462.573     1153.567        5.543        0.539      312.016       32.935        0.011      330.116       -2.722      853.614
12/03/2013  11:55:00       47.919      204.556      -29.541       66.632      129.053       70.766     4439.789    16654.681     5007.815        3.555        1.305      210.094       74.595        0.126      330.199       -2.584      853.625
12/03/2013  11:56:00       75.945      241.514        3.026      101.529      142.835       85.642    10308.049    20401.754     7334.525        5.107        1.902      253.173       85.733        0.115      330.125       -2.705      853.623
12/03/2013  11:57:00       69.853      166.199       -1.901       92.064      125.363       79.007     8475.747    15715.913     6242.034        3.146        1.522      180.282       73.642        0.167      330.127       -2.700      853.644
12/03/2013  11:58:00       58.239       91.854       14.998       84.710      101.647       62.758     7175.802    10332.161     3938.575        1.675        1.072      108.760       59.053        0.295      330.156       -2.654      853.666
12/03/2013  11:59:00       37.883      130.056       10.331       69.316       70.043       59.077     4804.673     4905.979     3490.132        1.583        0.660      135.461       51.805        0.146      330.132       -2.693      853.676
12/03/2013  12:00:00       30.443      134.873      -15.388       50.906       50.697       36.566     2591.432     2570.207     1337.106        1.293        0.325      138.266       28.411        0.042      330.220       -2.547      853.695
12/03/2013  12:01:00        6.198       77.875       -1.004       46.903       45.502       32.839     2199.909     2070.457     1078.411        0.573        0.267       78.121       25.094        0.103      330.254       -2.492      853.699
12/03/2013  12:02:00      -11.919      140.808      -12.333       60.231       79.160       41.118     3627.748     6266.258     1690.688        1.585        0.579      141.312       33.038        0.055      330.327       -2.372      853.713
12/03/2013  12:03:00       44.759       52.682       34.813       74.632       73.390       57.449     5569.917     5386.134     3300.331        1.012        0.713       69.129       45.166        0.427      330.314       -2.393      853.729
12/03/2013  12:04:00      -45.500      295.353      -35.888       97.361       89.465       60.569     9479.089     8004.043     3668.664        5.587        1.058      298.837       51.849        0.030      330.134       -2.691      853.714
12/03/2013  12:05:00       -2.874      305.542      -42.355       62.654       81.973       37.388     3925.578     6719.562     1397.845        5.360        0.602      305.556       38.575        0.016      330.076       -2.787      853.702
12/03/2013  12:06:00       -4.334      231.580      -27.550       66.953       66.246       40.582     4482.681     4388.557     1646.889        3.246        0.526      231.620       30.434        0.017      330.152       -2.661      853.706
12/03/2013  12:07:00      -62.212      296.871      -31.889       78.414      102.268       48.262     6148.711    10458.799     2329.202        5.597        0.947      303.320       55.908        0.034      330.075       -2.788      853.716
12/03/2013  12:08:00      -43.151      255.876      -29.391       65.777       78.569       47.351     4326.595     6173.043     2242.111        4.047        0.637      259.489       45.060        0.030      330.111       -2.728      853.732
12/03/2013  12:09:00      -24.415      195.302       -7.193       77.328       87.460       56.453     5979.602     7649.170     3186.927        2.780        0.841      196.822       47.823        0.059      330.219       -2.550      853.722
12/03/2013  12:10:00      -40.044      306.065      -40.795       71.347       92.599       50.938     5090.375     8574.639     2594.680        5.660        0.813      308.673       51.329        0.028      330.088       -2.767      853.726
12/03/2013  12:11:00       -3.421      186.480       -8.828       84.894       99.435       65.465     7206.975     9887.270     4285.706        2.812        1.069      186.512       56.218        0.091      330.125       -2.705      853.716
12/03/2013  12:12:00      -19.521      262.227      -20.414       71.431      113.859       53.490     5102.435    12963.824     2861.146        4.524        1.046      262.953       54.767        0.043      330.090       -2.763      853.689
12/03/2013  12:13:00      -79.836      338.980      -42.970      106.033      130.238       60.820    11242.921    16962.006     3699.083        7.751        1.595      348.254       71.533        0.042      330.092       -2.760      853.661
12/03/2013  12:14:00      -69.518      266.468      -36.356       85.483       87.450       43.368     7307.422     7647.541     1880.758        4.699        0.842      275.387       37.240        0.018      330.097       -2.753      853.655
12/03/2013  12:15:00      -91.252      344.440      -57.993       95.963      137.363       49.624     9208.808    18868.703     2462.519        8.043        1.527      356.323       55.177        0.024      329.990       -2.926      853.635
12/03/2013  12:16:00      -56.270      272.883      -28.108       73.180       93.368       43.428     5355.246     8717.622     1886.030        4.719        0.798      278.625       42.876        0.024      330.064       -2.806      853.628
12/03/2013  12:17:00       -3.354      187.962      -15.150       71.278       92.518       55.259     5080.487     8559.563     3053.529        2.613        0.835      187.992       50.534        0.072      330.153       -2.660      853.636
12/03/2013  12:18:00       17.274      133.270       -2.231       96.083      102.635       61.325     9231.889    10534.008     3760.809        2.079        1.176      134.385       67.195        0.250      330.097       -2.749      853.642
12/03/2013  12:19:00       -3.507      156.152       -5.729       84.255      104.142       59.582     7098.963    10845.519     3550.051        2.296        1.075      156.191       57.412        0.135      330.100       -2.746      853.650
12/03/2013  12:20:00      -36.825      222.128      -13.975       56.473      106.053       47.520     3189.159    11247.229     2258.143        3.379        0.835      225.160       51.848        0.053      330.077       -2.784      853.643
12/03/2013  12:21:00      -23.215      319.337      -28.591       99.584      122.708       57.084     9916.893    15057.304     3258.588        6.578        1.412      320.180       68.193        0.045      329.973       -2.954      853.652
12/03/2013  12:22:00      -94.390      501.084      -67.444       73.969      107.770       46.168     5471.481    11614.393     2131.454       14.188        0.961      509.896       46.753        0.008      329.822       -3.201      853.639
12/03/2013  12:23:00        3.740      310.101      -25.365       82.771      131.125       68.339     6851.006    17193.774     4670.256        6.276        1.436      310.123       73.806        0.057      329.910       -3.057      853.629
12/03/2013  12:24:00       24.006      347.329      -35.456       74.888      110.367       58.034     5608.155    12180.896     3367.966        7.181        1.058      348.157       68.784        0.039      329.867       -3.128      853.623
12/03/2013  12:25:00       -0.254      195.314      -11.238       81.238      100.633       60.811     6599.591    10127.028     3697.993        2.935        1.021      195.314       66.406        0.116      329.909       -3.058      853.634
12/03/2013  12:26:00       27.565      205.261       -8.274       71.598      130.904       65.421     5126.222    17135.920     4279.903        3.475        1.327      207.104       73.606        0.126      329.924       -3.034      853.658
12/03/2013  12:27:00      -94.981      179.156      -26.390       83.488       96.704       38.484     6970.244     9351.611     1480.992        2.981        0.890      202.777       40.716        0.040      330.001       -2.908      853.685
12/03/2013  12:28:00      -62.511      144.417      -21.278       74.414       86.260       45.069     5537.478     7440.858     2031.188        2.011        0.750      157.366       41.125        0.068      330.062       -2.807      853.686
12/03/2013  12:29:00       21.975      282.286      -35.395       81.241       85.645       44.888     6600.153     7335.020     2014.940        4.868        0.798      283.140       40.635        0.021      330.047       -2.833      853.677
12/03/2013  12:30:00      -54.116      233.913      -25.382       70.657      114.107       47.415     4992.393    13020.487     2248.219        3.927        1.013      240.091       61.575        0.066      330.056       -2.818      853.666
12/03/2013  12:31:00      -33.010      215.757      -31.332       66.675       68.880       33.794     4445.548     4744.405     1142.001        2.948        0.517      218.267       24.655        0.013      330.095       -2.754      853.664
12/03/2013  12:32:00      -11.929      140.175      -11.747       62.624       59.038       43.782     3921.778     3485.491     1916.833        1.462        0.466      140.682       35.020        0.062      330.210       -2.563      853.665
12/03/2013  12:33:00      -20.962      134.363        1.976       73.976      117.915       44.717     5472.434    13903.868     1999.589        1.993        1.069      135.988       51.808        0.145      330.307       -2.404      853.667
12/03/2013  12:34:00     -134.832      107.236      -30.499       74.929       67.478       38.277     5614.417     4553.215     1465.097        2.112        0.582      172.277       22.194        0.017      330.141       -2.677      853.662
12/03/2013  12:35:00     -119.709      158.728      -19.687       62.967       76.731       45.379     3964.895     5887.626     2059.293        2.591        0.596      198.809       42.285        0.045      330.099       -2.747      853.663
12/03/2013  12:36:00      -92.319      238.297      -28.318       53.107       62.785       33.565     2820.327     3941.939     1126.643        3.700        0.394      255.555       28.966        0.013      330.111       -2.730      853.643
12/03/2013  12:37:00     -161.561      173.985      -30.443       79.208       72.082       42.729     6273.902     5195.866     1825.792        3.529        0.665      237.429       36.834        0.024      330.126       -2.705      853.629
12/03/2013  12:38:00     -104.889      232.380      -23.839       51.440       74.858       36.937     2646.107     5603.744     1364.351        3.759        0.481      254.955       24.867        0.010      329.975       -2.951      853.603
12/03/2013  12:39:00     -103.589      217.812      -23.506       43.798       83.748       33.607     1918.245     7013.656     1129.414        3.439        0.503      241.190       22.579        0.009      330.074       -2.787      853.584
12/03/2013  12:40:00     -144.987      164.664      -38.640       59.213       66.765       34.479     3506.190     4457.543     1188.834        2.939        0.458      219.398       33.929        0.024      330.069       -2.799      853.561
12/03/2013  12:41:00     -119.464       78.795      -18.208       62.626       81.454       36.628     3921.961     6634.769     1341.636        1.635        0.595      143.109       27.470        0.037      330.120       -2.711      853.545
12/03/2013  12:42:00      -54.532       93.268      -12.868       43.653       51.055       36.084     1905.599     2606.661     1302.062        0.883        0.291      108.040       23.506        0.047      330.302       -2.411      853.528
12/03/2013  12:43:00      -86.701       99.650      -20.600       50.992       99.939       44.870     2600.193     9987.902     2013.354        1.623        0.730      132.088       47.224        0.128      330.177       -2.618      853.500
12/03/2013  12:44:00      -89.252       80.244      -12.243       50.458       97.308       34.321     2545.992     9468.769     1177.931        1.387        0.660      120.021       23.736        0.039      330.159       -2.647      853.482
12/03/2013  12:45:00     -105.991       63.178       -7.850       94.311      101.657       43.071     8894.605    10334.182     1855.112        1.818        1.054      123.392       43.947        0.127      330.251       -2.497      853.467
12/03/2013  12:46:00     -158.924      189.273      -26.900       90.647       88.073       53.707     8216.932     7756.855     2884.420        4.033        0.943      247.146       55.205        0.050      330.116       -2.719      853.451
12/03/2013  12:47:00     -172.743      154.371      -37.168       58.747       59.598       38.466     3451.219     3551.913     1479.659        3.177        0.424      231.669       35.993        0.024      330.131       -2.696      853.451
12/03/2013  12:48:00     -143.535      179.849      -38.706      119.304       65.724       40.047    14233.547     4319.622     1603.753        3.730        1.008      230.104       43.141        0.035      330.155       -2.657      853.440
12/03/2013  12:49:00      -51.410      142.323       -8.816       73.369       67.122       40.826     5383.072     4505.352     1666.740        1.726        0.578      151.324       38.738        0.066      330.335       -2.359      853.430
12/03/2013  12:50:00     -136.665       97.159      -24.316       62.026       51.781       35.639     3847.177     2681.237     1270.149        1.825        0.390      167.681       29.022        0.030      330.190       -2.597      853.415
12/03/2013  12:51:00      -71.913      158.818      -17.737       61.983       71.922       37.397     3841.935     5172.846     1398.558        2.056        0.521      174.340       34.644        0.039      330.229       -2.532      853.406
12/03/2013  12:52:00      -71.394      125.697       -7.871       41.185       60.697       33.344     1696.237     3684.171     1111.828        1.372        0.325      144.558       27.995        0.038      330.377       -2.289      853.390
12/03/2013  12:53:00      -84.055      155.774      -25.499       62.954       94.222       34.107     3963.227     8877.737     1163.303        2.299        0.700      177.005       36.950        0.044      330.278       -2.453      853.400
12/03/2013  12:54:00      -13.911      274.468      -31.569       35.227       76.922       31.144     1240.952     5916.928      969.946        4.232        0.406      274.820       35.137        0.016      330.104       -2.739      853.412
12/03/2013  12:55:00      -29.514      138.237      -12.965       54.355       72.340       34.481     2954.444     5233.020     1188.934        1.476        0.469      141.353       33.509        0.056      330.272       -2.462      853.409
12/03/2013  12:56:00      -58.734      150.487      -14.694       44.091       65.036       30.649     1943.980     4229.718      939.389        1.671        0.356      161.543       28.429        0.031      330.405       -2.244      853.415
12/03/2013  12:57:00     -124.425      187.733      -27.203       47.784       52.791       34.604     2283.313     2786.860     1197.470        2.887        0.313      225.223       31.791        0.020      330.231       -2.532      853.420
12/03/2013  12:58:00      -36.283      150.043      -19.230       36.448       62.691       32.612     1328.435     3930.151     1063.561        1.526        0.316      154.367       35.747        0.054      330.409       -2.237      853.423
12/03/2013  12:59:00       -8.206      141.510       -4.754       48.995      102.076       36.411     2400.543    10419.559     1325.738        1.713        0.707      141.748       50.792        0.128      330.439       -2.190      853.433
12/03/2013  13:00:00      -37.169      230.070      -31.735       47.018       47.682       24.176     2210.673     2273.566      584.495        3.019        0.253      233.053       19.995        0.007      330.282       -2.450      853.441
12/03/2013  13:01:00       -4.374      131.974       -2.946       37.439       90.111       40.874     1401.693     8119.957     1670.714        1.432        0.560      132.047       48.479        0.135      330.446       -2.177      853.446
12/03/2013  13:02:00      -28.469      135.119       -2.637       44.090       59.028       36.121     1943.892     3484.283     1304.739        1.290        0.337      138.086       38.239        0.077      330.442       -2.184      853.463
12/03/2013  13:03:00      -18.055      151.174       -8.551       39.030       50.724       25.168     1523.309     2572.917      633.417        1.399        0.236      152.248       18.779        0.015      330.408       -2.238      853.481
12/03/2013  13:04:00      -40.176      153.813      -13.389       39.676       78.467       30.318     1574.189     6157.019      919.173        1.705        0.433      158.974       28.088        0.031      330.440       -2.187      853.504
12/03/2013  13:05:00      -20.817      197.191      -17.507       45.159       75.277       31.757     2039.320     5666.676     1008.494        2.417        0.436      198.287       33.793        0.029      330.377       -2.290      853.524
12/03/2013  13:06:00      -59.820      235.264      -28.484       65.234       75.121       40.753     4255.477     5643.152     1660.834        3.565        0.578      242.750       37.638        0.024      330.413       -2.234      853.527
12/03/2013  13:07:00     -124.222      117.696      -26.173       56.625       69.158       31.708     3206.430     4782.861     1005.408        1.948        0.450      171.124       28.398        0.028      330.461       -2.153      853.535
12/03/2013  13:08:00      -96.562      117.657      -29.634       44.515       52.642       26.788     1981.573     2771.177      717.614        1.476        0.274      152.208       16.881        0.012      330.436       -2.193      853.536
12/03/2013  13:09:00      -46.124      116.644      -16.187       61.669       50.887       29.261     3803.105     2589.450      856.200        1.162        0.362      125.433       33.912        0.073      330.461       -2.152      853.541
12/03/2013  13:10:00       -1.561      228.186      -33.529       39.115       68.749       26.410     1529.987     4726.409      697.493        3.007        0.348      228.192       26.985        0.014      330.348       -2.339      853.541
12/03/2013  13:11:00      -22.045      225.336      -28.720       58.867       75.596       36.985     3465.347     5714.703     1367.878        3.132        0.527      226.412       41.421        0.033      330.447       -2.177      853.534
12/03/2013  13:12:00        2.851      186.388      -12.202       45.782       98.142       43.795     2095.974     9631.935     1918.019        2.427        0.682      186.410       53.485        0.082      330.401       -2.252      853.536
12/03/2013  13:13:00      -33.877      191.626      -29.102       49.099       48.534       23.314     2410.676     2355.537      543.558        2.201        0.265      194.598       16.565        0.007      330.404       -2.246      853.540
12/03/2013  13:14:00       15.065      162.819       -9.674       44.835       69.689       38.487     2010.133     4856.500     1481.218        1.759        0.417      163.514       38.290        0.055      330.540       -2.023      853.553
12/03/2013  13:15:00      -18.915      233.770      -29.975       38.017       69.054       36.327     1445.303     4768.475     1319.623        3.172        0.377      234.534       34.967        0.022      330.396       -2.261      853.570
12/03/2013  13:16:00      -43.335      157.208       -7.702       50.031       82.505       38.791     2503.082     6807.154     1504.736        1.873        0.541      163.071       43.515        0.071      330.493       -2.100      853.584
12/03/2013  13:17:00      -88.670       67.402       -5.446       61.380       64.021       41.786     3767.454     4098.728     1746.078        1.102        0.481      111.380       48.276        0.188      330.571       -1.972      853.610
12/03/2013  13:18:00     -108.405      122.992      -17.803       70.013       71.763       35.459     4901.820     5149.955     1257.321        1.925        0.565      163.947       30.877        0.035      330.494       -2.098      853.619
12/03/2013  13:19:00      -56.045      137.738      -11.927       68.785       56.840       38.130     4731.420     3230.760     1453.867        1.583        0.471      148.704       29.584        0.040      330.671       -1.807      853.623
12/03/2013  13:20:00      -52.513      135.692      -12.426       38.105       56.503       31.673     1452.006     3192.540     1003.199        1.348        0.282      145.499       27.901        0.037      330.709       -1.746      853.616
12/03/2013  13:21:00     -143.647       71.973      -24.098       59.266       46.087       33.532     3512.413     2123.988     1124.376        1.658        0.338      160.669       32.799        0.042      330.605       -1.915      853.603
12/03/2013  13:22:00     -103.076      131.547      -19.069       50.901       76.470       41.225     2590.924     5847.694     1699.474        1.921        0.507      167.121       19.819        0.014      330.583       -1.952      853.588
12/03/2013  13:23:00     -126.497      117.598      -20.126       78.510       72.993       43.040     6163.752     5328.048     1852.472        2.179        0.667      172.716       42.593        0.061      330.528       -2.044      853.585
12/03/2013  13:24:00      -98.841       90.662       -2.102       55.723       92.642       38.763     3105.096     8582.523     1502.560        1.559        0.660      134.123       33.351        0.062      330.586       -1.947      853.570
12/03/2013  13:25:00     -125.920      114.803      -26.978       59.089      125.484       40.690     3491.486    15746.281     1655.658        2.532        1.045      170.398       45.947        0.073      330.506       -2.079      853.550
12/03/2013  13:26:00     -188.065      212.250      -35.549       94.251      116.810       61.424     8883.296    13644.693     3772.932        5.399        1.315      283.582       64.773        0.052      330.407       -2.243      853.540
12/03/2013  13:27:00     -151.918      178.479      -40.606       81.109       93.048       44.228     6578.638     8657.862     1956.086        3.688        0.860      234.380       41.238        0.031      330.406       -2.245      853.529
12/03/2013  13:28:00      -99.496      188.219      -31.455      104.667       72.954       44.998    10955.256     5322.270     2024.811        3.231        0.915      212.899       34.733        0.027      330.535       -2.034      853.504
12/03/2013  13:29:00      -86.907      201.939      -24.699       58.748       94.223       40.215     3451.327     8877.957     1617.269        3.144        0.697      219.845       48.110        0.048      330.569       -1.976      853.493
12/03/2013  13:30:00      -69.504       81.156       -4.747       68.782       92.057       47.647     4730.981     8474.548     2270.208        1.345        0.774      106.850       56.239        0.277      330.651       -1.842      853.486
12/03/2013  13:31:00      -65.712       90.575        1.154       77.378       55.444       43.727     5987.343     3074.009     1912.083        1.175        0.549      111.902       46.129        0.170      330.658       -1.829      853.484
12/03/2013  13:32:00      -44.886      188.145      -21.047       69.273       73.513       38.478     4798.801     5404.119     1480.529        2.477        0.584      193.425       33.765        0.030      330.544       -2.018      853.490
12/03/2013  13:33:00       -3.816      200.494      -24.821       57.173       82.277       36.056     3268.786     6769.555     1300.042        2.608        0.567      200.531       41.911        0.044      330.465       -2.147      853.499
12/03/2013  13:34:00      -20.847      261.510      -32.350       44.475       75.816       27.900     1978.052     5748.009      778.412        3.918        0.425      262.340       21.134        0.006      330.427       -2.210      853.509
12/03/2013  13:35:00        3.581      180.666      -20.802       24.570       46.106       24.842      603.665     2125.759      617.149        1.822        0.167      180.702       21.157        0.014      330.474       -2.131      853.524
12/03/2013  13:36:00        6.425       56.682       11.875       43.288       45.313       35.518     1873.867     2053.276     1261.537        0.429        0.259       57.045       27.430        0.231      330.634       -1.867      853.531
12/03/2013  13:37:00        4.196       97.723        8.167       70.330       64.157       44.892     4946.307     4116.110     2015.283        1.035        0.554       97.813       40.499        0.171      330.507       -2.076      853.534
12/03/2013  13:38:00      -10.362      149.240      -14.847       51.563       60.267       36.162     2658.730     3632.096     1307.687        1.510        0.380      149.599       37.349        0.062      330.522       -2.052      853.543
12/03/2013  13:39:00      -38.686      211.575      -25.085       53.197       64.768       28.393     2829.960     4194.922      806.170        2.736        0.392      215.083       26.920        0.016      330.450       -2.173      853.570
12/03/2013  13:40:00      -40.508      204.183      -23.349       34.170       40.749       21.135     1167.594     1660.518      446.687        2.358        0.164      208.163       19.737        0.009      330.370       -2.302      853.595
12/03/2013  13:41:00       38.378      170.632      -24.442       48.335       48.649       32.210     2336.227     2366.771     1037.499        1.846        0.287      174.894       33.029        0.036      330.458       -2.158      853.609
12/03/2013  13:42:00       20.583      137.409       -2.863       46.084       61.445       46.250     2123.720     3775.477     2139.034        1.367        0.402      138.942       39.780        0.082      330.447       -2.174      853.631
12/03/2013  13:43:00       -3.262      127.766      -10.964       56.007       65.745       36.582     3136.791     4322.368     1338.230        1.262        0.440      127.808       38.084        0.089      330.457       -2.159      853.639
12/03/2013  13:44:00      -29.622      158.108      -25.049       53.996       38.601       21.443     2915.557     1490.050      459.809        1.568        0.243      160.859       12.004        0.006      330.549       -2.008      853.656
12/03/2013  13:45:00       -8.589      142.167      -20.127       26.439       45.568       18.199      699.042     2076.430      331.213        1.190        0.155      142.426       20.424        0.021      330.516       -2.060      853.664
12/03/2013  13:46:00      -61.768       92.096      -10.277       56.299       67.230       25.168     3169.565     4519.809      633.415        1.036        0.416      110.892       18.198        0.027      330.576       -1.964      853.687
12/03/2013  13:47:00      -73.840       49.364       -8.207       44.277       32.582       27.406     1960.440     1061.595      751.072        0.586        0.189       88.821       25.072        0.080      330.673       -1.804      853.708
12/03/2013  13:48:00      -85.039       61.701       -6.916       52.495       51.409       30.418     2755.750     2642.912      925.276        0.870        0.316      105.065       23.529        0.050      330.524       -2.049      853.727
12/03/2013  13:49:00      -46.826      122.899      -20.922       50.801       54.243       28.661     2580.747     2942.268      821.472        1.204        0.317      131.518       27.636        0.044      330.618       -1.894      853.758
12/03/2013  13:50:00      -51.997       55.277       -3.376       44.361       30.917       27.033     1967.882      955.843      730.785        0.471        0.183       75.890       21.595        0.081      330.639       -1.859      853.772
12/03/2013  13:51:00      -66.672       58.699       -3.841       49.473       39.201       25.748     2447.609     1536.700      662.947        0.628        0.232       88.830       33.356        0.141      330.454       -2.162      853.769
12/03/2013  13:52:00        7.686       54.342        3.369       32.045       48.700       22.528     1026.871     2371.688      507.519        0.346        0.195       54.883       25.361        0.214      330.523       -2.050      853.748
12/03/2013  13:53:00       36.390       75.559       -3.317       22.519       35.916       22.780      507.127     1289.945      518.932        0.468        0.116       83.865       21.566        0.066      330.468       -2.140      853.719
12/03/2013  13:54:00       -5.635       61.842        4.004       35.632       24.514       27.109     1269.620      600.949      734.910        0.324        0.130       62.098       14.885        0.057      330.582       -1.953      853.698
12/03/2013  13:55:00       19.698       79.409      -14.512       26.749       29.034       18.216      715.488      842.959      331.813        0.440        0.095       81.816       16.829        0.042      330.493       -2.100      853.693
12/03/2013  13:56:00        9.866      154.191      -22.099       26.669       32.945       27.443      711.234     1085.361      753.127        1.345        0.127      154.507       13.050        0.007      330.441       -2.184      853.693
12/03/2013  13:57:00      -13.853      151.173      -24.600       30.180       34.755       20.244      910.839     1207.924      409.817        1.309        0.126      151.806       16.794        0.012      330.471       -2.136      853.688
12/03/2013  13:58:00       11.231      108.168       -9.624       29.836       56.952       26.723      890.194     3243.574      714.093        0.838        0.242      108.750       36.003        0.110      330.571       -1.971      853.672
12/03/2013  13:59:00       53.825       67.893       -8.795       30.692       33.284       16.743      941.989     1107.822      280.342        0.496        0.117       86.641       12.069        0.019      330.458       -2.156      853.661
12/03/2013  14:00:00       -6.770       44.230        8.287       24.125       42.102       25.034      582.000     1772.582      626.720        0.253        0.149       44.745       23.157        0.268      330.686       -1.782      853.641
12/03/2013  14:01:00       21.472      110.873      -12.364       35.403       53.006       30.035     1253.345     2809.649      902.102        0.893        0.248      112.933       36.667        0.105      330.595       -1.933      853.629
12/03/2013  14:02:00       -9.575      108.285      -11.848       29.674       51.715       23.330      880.535     2674.489      544.294        0.803        0.205      108.707       18.612        0.029      330.559       -1.988      853.617
12/03/2013  14:03:00      -32.182      202.535      -20.875       40.795       80.929       34.092     1664.219     6549.491     1162.261        2.593        0.469      205.076       42.182        0.042      330.590       -1.943      853.610
12/03/2013  14:04:00      -17.776      225.773      -34.051       26.491       64.994       25.269      701.783     4224.161      638.502        2.901        0.278      226.472       27.595        0.015      330.422       -2.220      853.613
12/03/2013  14:05:00      -12.714       87.934        3.124       43.239       73.987       31.450     1869.590     5474.025      989.109        0.812        0.417       88.849       42.022        0.224      330.880       -1.465      853.612
12/03/2013  14:06:00      -50.241      136.156      -11.365       78.701       77.614       39.168     6193.775     6023.939     1534.094        1.747        0.688      145.130       35.478        0.060      330.696       -1.767      853.599
12/03/2013  14:07:00       10.930      126.835       -9.071       71.945       60.908       38.477     5176.128     3709.807     1480.473        1.333        0.518      127.305       34.298        0.073      330.697       -1.766      853.597
12/03/2013  14:08:00      -42.872      123.709      -19.273       63.307       75.790       37.022     4007.801     5744.093     1370.596        1.432        0.556      130.927       30.900        0.056      330.710       -1.745      853.584
12/03/2013  14:09:00      -39.023      218.476      -24.201       34.971       65.339       25.651     1222.957     4269.240      657.980        2.799        0.308      221.934       28.962        0.017      330.623       -1.889      853.590
12/03/2013  14:10:00      -18.909      249.869      -31.198       47.644       42.529       23.312     2269.938     1808.750      543.427        3.419        0.231      250.583       16.155        0.004      330.405       -2.248      853.594
12/03/2013  14:11:00      -55.576      201.254      -28.424       39.299       61.283       26.817     1544.439     3755.621      719.170        2.521        0.301      208.786       24.599        0.014      330.470       -2.138      853.596
12/03/2013  14:12:00      -80.043      117.901      -25.251       61.901       56.761       29.712     3831.746     3221.855      882.833        1.444        0.397      142.505       26.560        0.035      330.553       -2.001      853.597
12/03/2013  14:13:00        2.881      223.830      -32.119       37.600       45.080       19.978     1413.777     2032.246      399.110        2.749        0.192      223.849       19.306        0.007      330.339       -2.355      853.596
12/03/2013  14:14:00      -16.079      175.806      -19.488       37.627       49.543       25.890     1415.766     2454.533      670.284        1.804        0.227      176.539       27.283        0.024      330.464       -2.149      853.604
12/03/2013  14:15:00       20.850      225.133      -36.330       31.882       48.168       27.797     1016.454     2320.200      772.673        2.827        0.205      226.096       28.346        0.016      330.335       -2.362      853.612
12/03/2013  14:16:00      -12.100      106.225       -3.841       45.489       79.812       42.419     2069.272     6369.978     1799.404        1.084        0.512      106.912       53.388        0.249      330.557       -1.994      853.613
12/03/2013  14:17:00       18.017      168.112      -14.019       43.971       76.416       33.480     1933.478     5839.344     1120.898        1.884        0.445      169.075       40.700        0.058      330.406       -2.242      853.625
12/03/2013  14:18:00       13.603      118.496        0.805       45.797       67.700       39.786     2097.333     4583.257     1582.955        1.124        0.413      119.274       40.983        0.118      330.453       -2.165      853.635
12/03/2013  14:19:00       22.540      180.361      -19.573       34.066       82.988       36.724     1160.460     6887.083     1348.642        2.141        0.470      181.764       39.751        0.048      330.342       -2.348      853.649
12/03/2013  14:20:00       16.435      157.955      -19.307       41.352       47.459       37.151     1710.004     2252.370     1380.203        1.547        0.267      158.807       33.005        0.043      330.326       -2.373      853.659
12/03/2013  14:21:00       23.048      210.354      -20.284       36.153       53.912       37.644     1307.038     2906.557     1417.078        2.541        0.282      211.613       31.102        0.022      330.313       -2.395      853.669
12/03/2013  14:22:00       14.266      232.397      -36.219       35.039       46.367       24.324     1227.697     2149.869      591.674        2.975        0.198      232.835       22.579        0.009      330.187       -2.605      853.687
12/03/2013  14:23:00        5.280      174.865      -20.174       34.795       55.246       30.360     1210.690     3052.090      921.731        1.810        0.259      174.945       25.583        0.021      330.290       -2.434      853.705
12/03/2013  14:24:00       17.576      200.267      -20.882       51.254       73.902       31.692     2626.938     5461.459     1004.391        2.497        0.455      201.037       33.119        0.027      330.261       -2.482      853.721
12/03/2013  14:25:00       48.304      124.812      -14.783       40.627       73.008       43.032     1650.513     5330.100     1851.736        1.348        0.442      133.833       41.359        0.096      330.294       -2.425      853.761
12/03/2013  14:26:00       65.890       90.784       -5.661       58.633       48.500       44.659     3437.816     2352.219     1994.386        1.020        0.389      112.176       27.336        0.059      330.297       -2.421      853.796
12/03/2013  14:27:00       44.390       65.310       -3.989       43.673       84.306       41.257     1907.368     7107.448     1702.148        0.848        0.536       78.968       43.382        0.302      330.331       -2.365      853.831
12/03/2013  14:28:00       69.095       61.008       -1.237       70.399       39.853       34.720     4956.064     1588.238     1205.512        0.812        0.387       92.174       22.257        0.058      330.309       -2.401      853.855
12/03/2013  14:29:00       48.002       82.409       -2.897       54.085       68.218       37.466     2925.136     4653.757     1403.712        0.904        0.449       95.371       41.330        0.188      330.268       -2.468      853.863
12/03/2013  14:30:00       22.497      140.092      -10.958       37.800       59.983       28.021     1428.824     3597.943      785.159        1.303        0.291      141.887       31.180        0.048      330.233       -2.527      853.870
12/03/2013  14:31:00       31.218       85.069       -3.492       32.902       48.993       31.885     1082.574     2400.303     1016.672        0.636        0.225       90.616       25.560        0.080      330.287       -2.437      853.876
12/03/2013  14:32:00      134.379      123.699        1.320       77.353       53.780       50.324     5983.423     2892.308     2532.540        2.238        0.570      182.644       37.952        0.043      330.184       -2.608      853.881
12/03/2013  14:33:00       92.683       85.046        5.147       59.848       49.281       41.424     3581.825     2428.644     1715.985        1.179        0.386      125.789       32.251        0.066      330.207       -2.567      853.891
12/03/2013  14:34:00       98.139       84.766        5.594       58.098       56.340       45.446     3375.325     3174.163     2065.316        1.273        0.431      129.678       29.154        0.051      330.203       -2.574      853.892
12/03/2013  14:35:00       70.404       93.574        1.818       64.644       60.353       48.901     4178.847     3642.484     2391.345        1.196        0.511      117.101       34.904        0.089      330.159       -2.646      853.884
12/03/2013  14:36:00      113.603       78.821       11.537       61.199       46.679       36.882     3745.309     2178.947     1360.282        1.327        0.364      138.269       12.354        0.008      330.139       -2.680      853.876
12/03/2013  14:37:00       80.207       85.330        2.301       77.247       67.527       41.042     5967.175     4559.868     1684.411        1.296        0.611      117.109       33.701        0.083      330.198       -2.583      853.862
12/03/2013  14:38:00      107.118       79.664        4.747       68.449       44.130       34.072     4685.302     1947.450     1160.900        1.282        0.390      133.494       25.016        0.035      330.110       -2.728      853.845
12/03/2013  14:39:00       56.733       44.901        1.414       30.340       37.419       28.661      920.490     1400.151      821.447        0.419        0.157       72.352       19.872        0.075      330.216       -2.553      853.812
12/03/2013  14:40:00       80.717       90.314       -3.487       49.906       55.033       42.440     2490.584     3028.578     1801.150        1.100        0.366      121.127       41.273        0.116      330.174       -2.621      853.785
12/03/2013  14:41:00      140.397       74.548       11.364       78.053       43.726       39.123     6092.222     1911.986     1530.632        1.746        0.477      158.961       29.824        0.035      330.124       -2.705      853.765
12/03/2013  14:42:00       88.950       76.607       11.642       70.839       52.978       45.512     5018.188     2806.631     2071.308        1.190        0.495      117.391       29.759        0.064      330.089       -2.763      853.748
12/03/2013  14:43:00       61.400      123.836        1.274       53.820       52.967       43.796     2896.551     2805.450     1918.105        1.336        0.381      138.222       34.654        0.063      330.015       -2.883      853.743
12/03/2013  14:44:00       44.315      159.652      -21.915       36.959       43.283       39.529     1365.936     1873.376     1562.548        1.637        0.240      165.688       30.916        0.035      330.013       -2.888      853.751
12/03/2013  14:45:00       53.342       62.731        1.146       58.555       42.299       29.481     3428.699     1789.174      869.145        0.643        0.304       82.344       24.322        0.087      330.081       -2.774      853.765
12/03/2013  14:46:00       44.204      138.320      -17.542       47.273       75.114       31.555     2234.728     5642.120      995.741        1.513        0.444      145.212       34.587        0.057      329.968       -2.961      853.796
12/03/2013  14:47:00       42.442      101.739      -12.301       42.498       47.774       31.033     1806.103     2282.369      963.056        0.868        0.253      110.236       28.531        0.067      329.997       -2.911      853.821
12/03/2013  14:48:00       30.581       53.775        2.480       34.581       26.187       21.456     1195.831      685.736      460.345        0.309        0.117       61.863       12.965        0.044      330.111       -2.726      853.840
12/03/2013  14:49:00        6.810      105.330      -11.485       24.189       38.432       21.546      585.106     1476.998      464.218        0.690        0.126      105.550       16.013        0.023      330.010       -2.891      853.867
12/03/2013  14:50:00       62.459       71.209       -7.102       47.681       36.227       27.016     2273.525     1312.381      729.888        0.667        0.216       94.720       16.422        0.030      329.960       -2.973      853.896
12/03/2013  14:51:00       70.335       85.539       10.107       38.629       69.584       37.300     1492.225     4841.889     1391.255        1.004        0.386      110.743       40.435        0.133      329.942       -3.002      853.923
12/03/2013  14:52:00       53.348      128.692      -23.902       44.819       69.778       26.753     2008.738     4868.922      715.737        1.378        0.380      139.311       24.554        0.031      329.855       -3.145      853.940
12/03/2013  14:53:00       22.473      104.625      -10.997       37.370       74.204       32.884     1396.540     5506.177     1081.363        0.978        0.399      107.012       31.779        0.088      329.876       -3.111      853.946
12/03/2013  14:54:00       21.150      134.628      -20.864       26.896       32.990       22.066      723.372     1088.317      486.894        1.065        0.115      136.279       16.049        0.014      329.820       -3.203      853.955
12/03/2013  14:55:00       25.000       32.366        9.648       40.409       44.444       29.231     1632.861     1975.249      854.473        0.311        0.223       40.897       28.564        0.488      330.004       -2.900      853.953
12/03/2013  14:56:00      -33.229      100.075      -16.903       35.322       57.922       26.451     1247.664     3354.968      699.673        0.835        0.265      105.447       19.797        0.035      330.045       -2.833      853.959
12/03/2013  14:57:00      -24.009      169.844      -11.426       37.119       72.219       27.086     1377.786     5215.583      733.648        1.844        0.366      171.533       26.349        0.024      329.921       -3.039      853.970
12/03/2013  14:58:00        2.430      168.017      -25.435       35.712       35.377       19.454     1275.324     1251.533      378.459        1.589        0.145      168.035       19.629        0.014      329.766       -3.291      854.004
12/03/2013  14:59:00       -9.997      146.885      -17.050       37.241       39.149       20.923     1386.879     1532.608      437.776        1.266        0.168      147.225       18.237        0.015      329.937       -3.010      854.033
12/03/2013  15:00:00      -17.522      103.713      -15.508       24.554       40.486       24.043      602.881     1639.114      578.058        0.706        0.141      105.183       20.083        0.036      329.878       -3.107      854.064
12/03/2013  15:01:00      -29.292      122.673      -15.662       39.031       33.873       23.746     1523.445     1147.394      563.889        0.969        0.162      126.122       14.116        0.013      329.912       -3.051      854.081
12/03/2013  15:02:00      -45.886      122.966      -18.733       32.706       41.920       24.455     1069.660     1757.290      598.030        1.050        0.171      131.249       19.276        0.022      330.001       -2.907      854.092
12/03/2013  15:03:00      -53.895       52.036       -6.820       31.275       38.938       22.698      978.154     1516.187      515.185        0.433        0.150       74.915       19.057        0.065      330.072       -2.789      854.093
12/03/2013  15:04:00     -125.998       33.536      -10.075       60.569       33.221       23.181     3668.579     1103.638      537.364        1.120        0.265      130.384       21.717        0.028      330.009       -2.893      854.098
12/03/2013  15:05:00     -100.710       50.402       -4.319       80.602       53.309       29.768     6496.697     2841.869      886.150        1.146        0.511      112.618       34.600        0.094      330.031       -2.857      854.089
12/03/2013  15:06:00     -245.709      -48.635      -33.866       66.199       53.498       31.514     4382.363     2862.086      993.159        3.606        0.412      250.476       28.591        0.013      329.861       -3.138      854.081
12/03/2013  15:07:00     -234.356      -91.998      -12.784       54.392       52.785       33.824     2958.446     2786.287     1144.032        3.522        0.344      251.766       23.121        0.008      329.738       -3.340      854.069
12/03/2013  15:08:00     -184.413      -71.789       -8.363       88.294       39.572       30.692     7795.840     1565.956      942.007        2.477        0.515      197.893       18.225        0.008      329.771       -3.286      854.054
12/03/2013  15:09:00     -117.108      -32.038       -6.905       44.711       53.449       37.243     1999.115     2856.768     1387.038        1.051        0.312      121.411       18.799        0.024      329.950       -2.990      854.048
12/03/2013  15:10:00      -65.211      -16.745        3.543       66.467       61.076       38.513     4417.893     3730.225     1483.216        0.709        0.482       67.326       30.745        0.209      330.141       -2.676      854.034
12/03/2013  15:11:00      -95.825      -61.100       -7.621       71.083       52.749       38.352     5052.836     2782.477     1470.866        1.114        0.465      113.647       30.731        0.073      330.063       -2.804      854.029
12/03/2013  15:12:00     -170.842        0.559      -19.712       41.411       32.087       26.219     1714.895     1029.578      687.450        1.650        0.172      170.843       21.641        0.016      329.950       -2.989      854.041
12/03/2013  15:13:00     -100.469       -6.724       -7.620       39.922       43.590       29.696     1593.774     1900.045      881.827        0.729        0.219      100.693       25.189        0.063      330.021       -2.873      854.050
12/03/2013  15:14:00     -113.469       18.303       -5.746       64.007       60.711       27.739     4096.870     3685.872      769.428        1.090        0.428      114.936       27.634        0.058      330.110       -2.729      854.057
12/03/2013  15:15:00     -203.351        8.375      -30.019       48.660       58.156       32.545     2367.779     3382.124     1059.182        2.456        0.340      203.523       27.558        0.018      329.890       -3.091      854.065
12/03/2013  15:16:00     -172.404       10.538      -14.602       61.424       46.788       30.020     3772.886     2189.163      901.193        1.845        0.343      172.726       29.767        0.030      329.914       -3.048      854.067
12/03/2013  15:17:00     -132.322       -8.897       -9.235       65.450       49.326       36.269     4283.735     2433.056     1315.444        1.285        0.402      132.620       33.886        0.065      329.929       -3.023      854.071
12/03/2013  15:18:00     -121.023       24.521      -15.950       56.815       52.540       27.282     3227.996     2760.428      744.331        1.112        0.337      123.482       22.485        0.033      330.021       -2.874      854.070
12/03/2013  15:19:00     -167.086       37.316      -28.020       64.717       64.413       31.694     4188.282     4148.994     1004.510        1.972        0.467      171.202       30.362        0.031      329.876       -3.112      854.052
12/03/2013  15:20:00     -150.821       -3.509      -20.473       75.571       74.641       36.873     5710.922     5571.232     1359.607        1.791        0.632      150.862       30.358        0.040      329.976       -2.948      854.043
12/03/2013  15:21:00     -128.204      -12.389      -24.658       55.033       63.069       32.491     3028.583     3977.761     1055.650        1.263        0.403      128.802       11.557        0.008      330.007       -2.894      854.031
12/03/2013  15:22:00     -100.457       -7.122      -14.424       77.378       60.609       29.703     5987.431     3673.417      882.282        1.044        0.527      100.709       12.442        0.015      329.926       -3.030      854.013
12/03/2013  15:23:00     -204.474      -62.099      -10.209       63.952       55.243       31.962     4089.870     3051.764     1021.582        2.697        0.408      213.696       30.547        0.020      329.989       -2.929      854.014
12/03/2013  15:24:00     -168.936      -40.610      -13.421       54.161       40.961       30.566     2933.408     1677.797      934.283        1.796        0.277      173.749       23.523        0.018      330.008       -2.896      854.019
12/03/2013  15:25:00     -144.045      -52.611       -7.082       86.699       50.736       34.210     7516.658     2574.149     1170.332        1.741        0.563      153.352       36.935        0.058      330.060       -2.811      854.021
12/03/2013  15:26:00     -201.818      -69.254       -6.766       56.857       51.735       35.456     3232.756     2676.523     1257.124        2.637        0.358      213.369       33.378        0.024      330.028       -2.866      854.024
12/03/2013  15:27:00     -155.684      -60.474       -6.999       82.432       46.838       33.143     6795.020     2193.777     1098.482        1.901        0.504      167.017       37.560        0.051      330.065       -2.801      854.029
12/03/2013  15:28:00     -169.480      -42.347      -12.178       65.595       63.428       34.643     4302.748     4023.153     1200.134        2.009        0.476      174.690       28.617        0.027      330.036       -2.851      854.018
12/03/2013  15:29:00     -210.165      -63.801      -12.748       84.335       52.822       27.065     7112.364     2790.191      732.522        2.952        0.532      219.636       30.691        0.020      329.965       -2.967      853.995
12/03/2013  15:30:00     -208.205      -42.240       -9.505       48.232       54.210       29.517     2326.312     2938.762      871.282        2.568        0.307      212.446       26.433        0.015      329.952       -2.990      853.974
12/03/2013  15:31:00     -108.863        0.178        0.418       63.328       38.998       31.712     4010.451     1520.852     1005.663        0.919        0.327      108.863       33.151        0.093      330.155       -2.654      853.955
12/03/2013  15:32:00      -62.153      -38.638       14.887       75.894       53.171       34.983     5759.916     2827.131     1223.830        0.769        0.491       73.184       39.602        0.293      330.328       -2.370      853.937
12/03/2013  15:33:00      -66.058      -25.060       10.647       67.072       63.693       35.935     4498.654     4056.853     1291.295        0.747        0.492       70.652       30.014        0.180      330.211       -2.562      853.922
12/03/2013  15:34:00      -70.123      -44.527       20.448      108.597       69.867       52.011    11793.229     4881.414     2705.148        1.335        0.969       83.066       62.540        0.567      330.091       -2.760      853.916
12/03/2013  15:35:00     -116.797      -49.685       -0.103       82.055       48.104       40.429     6733.063     2314.008     1634.469        1.339        0.534      126.925       35.146        0.077      330.025       -2.867      853.906
12/03/2013  15:36:00     -114.985       36.414      -17.650       41.834       43.652       28.082     1750.060     1905.505      788.580        0.965        0.222      120.613       12.464        0.011      329.909       -3.056      853.900
12/03/2013  15:37:00     -149.667       -4.844       -8.263       50.314       35.229       31.359     2531.469     1241.079      983.384        1.362        0.238      149.746       22.925        0.023      329.984       -2.933      853.893
12/03/2013  15:38:00     -143.110       -8.130        3.878       61.618       68.170       32.052     3796.757     4647.145     1027.345        1.501        0.474      143.341       32.178        0.050      330.058       -2.812      853.891
12/03/2013  15:39:00     -170.528       19.391      -11.749       51.762       52.732       22.870     2679.335     2780.661      523.018        1.779        0.299      171.627       18.734        0.012      329.975       -2.948      853.895
12/03/2013  15:40:00     -167.854       58.055       -5.092       45.511       37.439       31.027     2071.238     1401.713      962.647        1.800        0.222      177.610       19.774        0.012      329.913       -3.051      853.897
12/03/2013  15:41:00      -51.029      -35.217        3.392       46.150       35.852       25.345     2129.817     1285.365      642.365        0.396        0.203       62.002       26.155        0.178      330.034       -2.852      853.890
12/03/2013  15:42:00      -72.755      -29.770        4.245       27.503       36.832       19.629      756.430     1356.624      385.285        0.435        0.125       78.610       12.511        0.025      330.022       -2.870      853.877
12/03/2013  15:43:00      -99.287       31.164      -14.975       49.654       46.452       28.797     2465.507     2157.785      829.268        0.825        0.273      104.063       32.439        0.097      330.011       -2.888      853.873
12/03/2013  15:44:00     -127.332       42.824      -20.753       33.201       22.325       20.080     1102.305      498.417      403.204        1.024        0.100      134.340       18.088        0.018      329.929       -3.023      853.875
12/03/2013  15:45:00      -61.817      -15.850        8.707       79.415       58.622       40.241     6306.779     3436.551     1619.318        0.775        0.568       63.816       46.065        0.521      330.126       -2.701      853.884
12/03/2013  15:46:00      -86.631      -33.528        9.823       63.717       45.197       38.105     4059.845     2042.806     1451.959        0.814        0.378       92.892       40.260        0.188      330.146       -2.668      853.891
12/03/2013  15:47:00     -132.109      -60.479      -10.640       66.678       31.490       24.166     4446.010      991.620      584.002        1.362        0.301      145.294       24.524        0.028      330.006       -2.897      853.911
12/03/2013  15:48:00        9.324      -12.247       23.174       57.055       45.170       37.699     3255.290     2040.331     1421.216        0.374        0.336       15.393       37.031        5.788      330.280       -2.447      853.900
12/03/2013  15:49:00      -57.944      -22.252       -1.439       38.964       29.337       19.902     1518.195      860.631      396.090        0.331        0.139       62.070       18.129        0.085      330.156       -2.651      853.907
12/03/2013  15:50:00      -79.454       19.260      -14.630       40.060       21.479       19.063     1604.807      461.326      363.382        0.466        0.121       81.755       15.603        0.036      330.103       -2.740      853.919
12/03/2013  15:51:00      -78.573        3.512      -14.240       34.636       35.577       29.072     1199.643     1265.691      845.202        0.485        0.166       78.651       21.361        0.074      330.043       -2.837      853.928
12/03/2013  15:52:00      -92.416      -24.936       -4.129       43.055       34.624       22.966     1853.765     1198.848      527.426        0.638        0.179       95.721       19.986        0.044      330.066       -2.798      853.929
12/03/2013  15:53:00      -66.990       -4.114       -2.081       33.294       31.225       25.203     1108.490      975.010      635.204        0.361        0.136       67.117       20.876        0.097      330.207       -2.568      853.923
12/03/2013  15:54:00      -85.749       -7.938       -5.591       42.632       24.732       18.306     1817.455      611.664      335.095        0.511        0.138       86.116       18.896        0.048      330.272       -2.461      853.928
12/03/2013  15:55:00     -167.106       17.382      -15.511       37.795       35.077       24.177     1428.436     1230.375      584.548        1.585        0.162      168.008       14.737        0.008      330.016       -2.881      853.938
12/03/2013  15:56:00     -154.708       -8.574      -11.874       41.638       39.705       21.658     1733.734     1576.504      469.073        1.396        0.189      154.946       17.960        0.013      330.049       -2.827      853.935
12/03/2013  15:57:00     -132.596      -27.314       -4.328       39.337       26.035       18.176     1547.378      677.802      330.375        1.045        0.128      135.380       14.831        0.012      330.116       -2.716      853.936
12/03/2013  15:58:00     -131.276        2.641      -12.346       37.350       27.533       20.815     1395.045      758.087      433.244        0.999        0.129      131.303       15.804        0.014      330.043       -2.836      853.933
12/03/2013  15:59:00      -76.755      -14.240       -2.338       43.444       44.654       27.323     1887.365     1994.012      746.530        0.536        0.231       78.064       21.531        0.076      330.186       -2.602      853.928
12/03/2013  16:00:00     -108.868      -68.458        4.747       57.925       49.258       28.237     3355.355     2426.343      797.317        1.157        0.329      128.603       28.612        0.049      330.117       -2.716      853.931
12/03/2013  16:01:00     -101.412      -56.293      -13.564       50.177       49.945       29.696     2517.733     2494.550      881.851        0.976        0.295      115.988       25.531        0.048      330.144       -2.673      853.935
12/03/2013  16:02:00      -15.174        3.314       22.394       44.314       17.728       20.561     1963.762      314.281      422.775        0.172        0.135       15.532       22.387        2.078      330.314       -2.393      853.924
12/03/2013  16:03:00      -91.711       26.740       -1.634       59.138       35.804       22.928     3497.256     1281.896      525.699        0.722        0.265       95.530       10.126        0.011      330.148       -2.665      853.921
12/03/2013  16:04:00     -181.101       26.907      -19.416       38.866       36.166       20.846     1510.589     1307.944      434.549        1.858        0.163      183.088       17.045        0.009      329.974       -2.950      853.906
12/03/2013  16:05:00     -162.942       33.162      -17.330       47.699       64.157       26.237     2275.230     4116.073      688.400        1.751        0.354      166.283       26.231        0.025      330.014       -2.885      853.900
12/03/2013  16:06:00     -183.109      -67.509      -10.803       35.272       28.369       22.083     1244.092      804.807      487.654        2.037        0.127      195.157       16.239        0.007      330.007       -2.897      853.895
12/03/2013  16:07:00     -141.974      -73.581        0.213       71.993       44.946       30.290     5182.978     2020.132      917.497        1.684        0.406      159.909       31.769        0.039      330.001       -2.907      853.891
12/03/2013  16:08:00      -12.471      -18.171       21.973       44.939       48.212       31.366     2019.536     2324.416      983.821        0.315        0.266       22.039       26.118        1.404      330.172       -2.625      853.882
12/03/2013  16:09:00      -91.910      -38.460       -4.495       75.413       45.806       38.566     5687.104     2098.230     1487.298        0.961        0.464       99.633       43.094        0.187      330.182       -2.608      853.860
12/03/2013  16:10:00     -159.254      -21.279       -8.466       58.804       43.589       34.906     3457.953     1899.994     1218.421        1.623        0.329      160.669       35.180        0.048      330.056       -2.815      853.844
12/03/2013  16:11:00     -189.549       36.967       -1.878       53.200       39.477       24.483     2830.252     1558.451      599.399        2.114        0.249      193.120       26.058        0.018      330.035       -2.853      853.820
12/03/2013  16:12:00     -185.248      -44.289       -4.947       53.475       69.885       25.840     2859.559     4883.882      667.698        2.236        0.421      190.468       27.360        0.021      330.045       -2.835      853.820
12/03/2013  16:13:00     -146.769      -23.264       -8.473       55.826       36.519       26.927     3116.585     1333.632      725.039        1.366        0.259      148.601       28.450        0.037      330.034       -2.851      853.832
12/03/2013  16:14:00      -44.022      -13.726       -0.362       36.008       52.590       18.992     1296.570     2765.679      360.691        0.327        0.221       46.112       16.391        0.126      330.012       -2.889      853.848
12/03/2013  16:15:00     -121.361       60.118      -20.781       31.189       26.687       23.958      972.762      712.222      573.991        1.052        0.113      135.435       14.867        0.012      329.974       -2.948      853.852
12/03/2013  16:16:00     -123.232      -10.092       -7.732       21.702       41.419       17.210      470.962     1715.541      296.196        0.891        0.124      123.645       10.879        0.008      330.063       -2.805      853.868
12/03/2013  16:17:00      -80.402       -6.877      -10.011       25.484       14.965       13.122      649.412      223.944      172.182        0.383        0.052       80.695       12.984        0.026      330.044       -2.836      853.885
12/03/2013  16:18:00      -48.797       11.430       -0.596       20.791       20.482       10.663      432.263      419.529      113.707        0.174        0.048       50.118       10.579        0.045      330.087       -2.764      853.896
12/03/2013  16:19:00      -64.811       62.389       -9.547       29.053       38.837       16.929      844.090     1508.299      286.575        0.541        0.132       89.960       12.617        0.020      330.038       -2.845      853.911
12/03/2013  16:20:00      -54.437        2.685       -0.468       20.231       22.909       13.722      409.280      524.816      188.299        0.205        0.056       54.504       10.400        0.036      330.086       -2.767      853.913
12/03/2013  16:21:00      -82.473      -12.537       -5.694       29.215       22.558       15.894      853.533      508.865      252.617        0.430        0.081       83.421        9.404        0.013      330.051       -2.823      853.914
12/03/2013  16:22:00     -110.784      -26.883       -9.881       33.378       32.208       18.588     1114.076     1037.386      345.530        0.779        0.125      113.999       12.562        0.012      330.004       -2.901      853.910
12/03/2013  16:23:00     -135.924      -33.732       -6.209       56.919       32.277       22.791     3239.802     1041.775      519.436        1.223        0.240      140.047       22.274        0.025      330.014       -2.885      853.922
12/03/2013  16:24:00     -126.512        2.371      -12.924       36.511       47.011       19.698     1333.054     2210.020      388.018        1.005        0.197      126.535       13.870        0.012      329.901       -3.069      853.932
12/03/2013  16:25:00     -147.560      -14.394       -5.045       57.442       37.503       31.484     3299.625     1406.486      991.253        1.385        0.285      148.261       30.723        0.043      329.862       -3.134      853.933
12/03/2013  16:26:00     -195.036       28.585      -13.652       22.567       24.887       13.728      509.288      619.374      188.470        2.018        0.066      197.120       10.762        0.003      329.813       -3.212      853.934
12/03/2013  16:27:00     -152.208       38.302       -7.837       29.373       21.558       18.287      862.792      464.761      334.416        1.318        0.083      156.954       12.723        0.007      329.797       -3.239      853.944
12/03/2013  16:28:00     -121.798       22.014       -3.423       42.054       29.085       23.091     1768.565      845.950      533.212        0.924        0.157      123.772       19.616        0.025      329.780       -3.267      853.952
12/03/2013  16:29:00     -150.156       41.342      -11.463       37.703       28.634       19.103     1421.502      819.930      364.925        1.350        0.130      155.744       14.582        0.009      329.774       -3.277      853.965
12/03/2013  16:30:00     -109.227       26.348       -4.632       27.770       22.155       13.521      771.189      490.842      182.805        0.705        0.072      112.360        6.692        0.004      329.760       -3.301      853.978
12/03/2013  16:31:00     -153.920        8.308      -15.057       23.507       25.345       23.251      552.579      642.350      540.587        1.286        0.087      154.144       15.714        0.010      329.734       -3.342      853.978
12/03/2013  16:32:00     -116.508       -6.930      -17.902       28.382       20.952       17.636      805.525      438.974      311.044        0.775        0.078      116.714       15.040        0.017      329.810       -3.217      853.977
12/03/2013  16:33:00     -119.802      -32.974        4.252       41.279       40.075       23.125     1703.969     1605.966      534.784        0.965        0.192      124.257       23.017        0.034      329.767       -3.288      853.979
12/03/2013  16:34:00     -213.908       11.646      -17.888       48.756       36.160       28.284     2377.143     1307.542      799.957        2.535        0.224      214.225       24.027        0.013      329.650       -3.483      853.995
12/03/2013  16:35:00     -223.245       26.723      -19.195       53.265       38.657       25.378     2837.175     1494.356      644.056        2.795        0.249      224.838       28.031        0.016      329.615       -3.540      854.010
12/03/2013  16:36:00     -164.775      -37.283      -16.207       44.153       76.472       29.802     1949.510     5847.985      888.179        1.874        0.434      168.940       24.197        0.021      329.671       -3.447      854.021
12/03/2013  16:37:00     -130.167      -38.564        6.854       43.547       40.668       23.554     1896.310     1653.890      554.771        1.129        0.205      135.760       19.171        0.020      329.741       -3.331      854.019
12/03/2013  16:38:00     -161.523      -15.623      -19.167       28.018       31.951       20.408      785.017     1020.887      416.480        1.446        0.111      162.277       12.125        0.006      329.745       -3.325      854.012
12/03/2013  16:39:00     -107.568      -52.588       -7.175       69.327       37.288       30.860     4806.199     1390.386      952.341        1.077        0.357      119.734       33.785        0.080      329.732       -3.345      854.014
12/03/2013  16:40:00     -180.455      -39.823      -14.705       37.392       32.067       14.772     1398.136     1028.270      218.201        1.850        0.132      184.797       18.219        0.010      329.720       -3.367      854.003
12/03/2013  16:41:00     -148.319       -9.794      -11.835       38.143       22.714       16.256     1454.914      515.929      264.262        1.223        0.112      148.642       17.355        0.014      329.653       -3.474      853.986
12/03/2013  16:42:00      -97.469       12.487       -8.747       50.111       27.184       21.100     2511.081      738.943      445.225        0.671        0.185       98.266       21.276        0.047      329.586       -3.584      853.987
12/03/2013  16:43:00     -189.138       24.442      -15.878       33.571       28.157       17.571     1126.979      792.806      308.741        1.943        0.111      190.710       14.425        0.006      329.515       -3.699      854.000
12/03/2013  16:44:00     -110.466      -22.628      -13.698       62.776       50.845       27.033     3940.769     2585.264      730.800        1.008        0.363      112.759       25.965        0.053      329.611       -3.544      854.010
12/03/2013  16:45:00     -101.205      -34.447       -7.651       57.488       35.160       21.806     3304.913     1236.198      475.503        0.825        0.251      106.907       13.616        0.016      329.591       -3.576      854.031
12/03/2013  16:46:00     -104.380      -40.136        2.935       50.874       60.768       33.526     2588.142     3692.758     1123.975        0.996        0.370      111.830       31.683        0.080      329.472       -3.771      854.044
12/03/2013  16:47:00     -172.845      -65.183       -9.965       42.365       30.550       18.781     1794.769      933.289      352.714        1.865        0.154      184.727       15.395        0.007      329.462       -3.788      854.039
12/03/2013  16:48:00     -202.426      -64.310      -14.330       19.169       27.434       14.989      367.463      752.629      224.676        2.333        0.067      212.396       12.240        0.003      329.454       -3.801      854.034
12/03/2013  16:49:00     -155.847      -35.777      -13.968       39.765       43.138       27.249     1581.267     1860.868      742.496        1.497        0.209      159.901       24.877        0.024      329.451       -3.806      854.050
12/03/2013  16:50:00     -129.210      -68.554      -10.442       32.214       39.393       25.052     1037.734     1551.780      627.602        1.236        0.161      146.270       21.946        0.023      329.462       -3.787      854.063
12/03/2013  16:51:00      -70.576      -51.419       -3.212       68.778       40.830       26.377     4730.396     1667.066      695.751        0.736        0.355       87.321       28.468        0.106      329.522       -3.689      854.076
12/03/2013  16:52:00      -79.183      -21.419       -0.887       29.377       29.276       22.453      862.998      857.059      504.119        0.448        0.111       82.029       17.154        0.044      329.561       -3.625      854.102
12/03/2013  16:53:00     -111.763      -15.493       -7.389       38.893       39.704       22.628     1512.635     1576.404      512.043        0.819        0.180      112.832       21.648        0.037      329.473       -3.771      854.112
12/03/2013  16:54:00      -98.654      -50.398       -0.918       62.177       50.363       31.738     3866.028     2536.449     1007.277        0.984        0.370      110.781       24.974        0.051      329.497       -3.731      854.115
12/03/2013  16:55:00     -177.408      -26.922      -17.244       49.681       49.968       30.211     2468.240     2496.786      912.723        1.919        0.294      179.440       28.340        0.025      329.375       -3.931      854.121
12/03/2013  16:56:00     -182.270      -72.135      -13.882       48.811       34.833       27.921     2382.552     1213.353      779.570        2.150        0.219      196.025       17.868        0.008      329.354       -3.966      854.122
12/03/2013  16:57:00     -182.755      -50.039      -13.199       55.620       51.637       29.452     3093.546     2666.412      867.418        2.135        0.331      189.481       25.560        0.018      329.241       -4.150      854.133
12/03/2013  16:58:00     -104.030      -59.437       -4.146       53.264       29.466       27.924     2837.035      868.250      779.737        0.943        0.224      119.812       26.716        0.050      329.308       -4.039      854.149
12/03/2013  16:59:00      -46.554      -16.859        6.631       37.343       30.932       22.854     1394.526      956.811      522.318        0.268        0.144       49.513       17.234        0.121      329.300       -4.053      854.163
12/03/2013  17:00:00      -81.135      -21.106       -8.371       27.100       29.952       18.057      734.420      897.101      326.060        0.453        0.098       83.835       15.111        0.032      329.372       -3.936      854.174
12/03/2013  17:01:00     -121.281       39.814      -14.917       33.301       35.512       25.229     1108.937     1261.131      636.508        0.976        0.150      127.649       19.739        0.024      329.152       -4.294      854.191
12/03/2013  17:02:00     -107.649       34.606      -14.036       51.721       48.504       37.636     2675.047     2352.597     1416.475        0.971        0.322      113.075       18.305        0.026      329.136       -4.319      854.205
12/03/2013  17:03:00     -184.308      -39.207      -20.124       48.873       40.273       27.993     2388.605     1621.878      783.628        2.035        0.240      188.432       26.557        0.020      328.904       -4.702      854.241
12/03/2013  17:04:00     -121.963        7.619      -22.691       36.125       63.809       29.990     1304.991     4071.534      899.410        1.086        0.314      122.201       21.238        0.030      328.924       -4.665      854.268
12/03/2013  17:05:00     -119.855       -2.905      -24.572       32.841       43.088       29.706     1078.552     1856.562      882.455        0.940        0.191      119.891       14.986        0.016      328.963       -4.603      854.277
12/03/2013  17:06:00     -164.764      -59.518       -8.075       43.086       66.193       30.828     1856.418     4381.529      950.349        1.897        0.359      175.184       27.371        0.024      328.924       -4.667      854.282
12/03/2013  17:07:00     -166.058      -18.680      -18.690       50.791       36.274       25.641     2579.738     1315.815      657.463        1.641        0.228      167.106       26.318        0.025      328.916       -4.681      854.291
12/03/2013  17:08:00     -153.021      -42.943      -14.395       37.310       33.862       28.127     1392.056     1146.641      791.139        1.440        0.166      158.932       22.498        0.020      328.902       -4.702      854.302
12/03/2013  17:09:00     -121.633        1.249      -10.504       46.992       54.839       24.785     2208.279     3007.268      614.307        1.037        0.291      121.640       21.449        0.031      328.946       -4.631      854.313
12/03/2013  17:10:00     -149.954       -6.001      -10.085       53.540       61.659       30.340     2866.552     3801.894      920.486        1.510        0.379      150.074       19.263        0.016      328.879       -4.740      854.331
12/03/2013  17:11:00     -184.494      -27.555      -10.746       68.842       48.941       33.143     4739.275     2395.210     1098.483        2.157        0.412      186.540       34.688        0.035      328.648       -5.118      854.343
12/03/2013  17:12:00     -166.658      -49.542      -13.473       49.063       39.630       29.321     2407.140     1570.559      859.732        1.762        0.242      173.866       23.007        0.018      328.487       -5.380      854.342
12/03/2013  17:13:00     -180.537      -28.998      -22.827       56.503       51.447       31.745     3192.639     2646.799     1007.725        2.040        0.342      182.851       29.290        0.026      328.395       -5.531      854.342
12/03/2013  17:14:00     -137.473        0.369      -13.464       25.931       43.235       28.135      672.436     1869.237      791.598        1.121        0.167      137.474       13.173        0.009      328.418       -5.491      854.341
12/03/2013  17:15:00      -97.675       -3.546      -15.886       26.946       29.356       22.290      726.101      861.796      496.827        0.594        0.104       97.740       16.976        0.030      328.485       -5.382      854.347
12/03/2013  17:16:00     -124.500       20.422      -12.648       74.834       36.491       21.084     5600.084     1331.557      444.516        1.173        0.369      126.164       29.482        0.055      328.562       -5.258      854.358
12/03/2013  17:17:00     -143.761       29.040      -23.421       38.147       33.888       20.981     1455.204     1148.427      440.187        1.255        0.152      146.665       15.297        0.011      328.456       -5.430      854.357
12/03/2013  17:18:00     -152.812       19.552      -27.608       37.634       34.751       19.468     1416.314     1207.630      378.985        1.375        0.150      154.057       16.001        0.011      328.380       -5.554      854.361
12/03/2013  17:19:00     -145.071       -3.710      -29.224       29.373       22.650       18.139      862.800      513.030      329.010        1.181        0.085      145.118        8.977        0.004      328.459       -5.425      854.344
12/03/2013  17:20:00     -121.236      -39.350      -17.744       28.448       31.765       24.925      809.271     1008.999      621.255        0.950        0.122      127.462       14.104        0.012      328.414       -5.499      854.329
12/03/2013  17:21:00     -112.776      -17.218      -15.406       27.865       26.916       20.378      776.481      724.457      415.253        0.758        0.096      114.083       11.565        0.010      328.400       -5.521      854.330
12/03/2013  17:22:00      -99.287      -22.677       -9.673       37.225       36.606       25.505     1385.703     1340.009      650.507        0.692        0.169      101.844        9.875        0.009      328.418       -5.492      854.338
12/03/2013  17:23:00     -110.326      -33.468       -9.955       31.944       34.047       22.845     1020.396     1159.217      521.898        0.805        0.135      115.290       15.005        0.017      328.511       -5.339      854.353
12/03/2013  17:24:00      -84.862      -16.752       -4.158       31.494       38.328       23.865      991.860     1469.031      569.545        0.526        0.152       86.500       14.689        0.029      328.419       -5.491      854.366
12/03/2013  17:25:00      -90.534      -12.598       -8.651       50.393       53.846       24.888     2539.463     2899.368      619.388        0.724        0.303       91.407       22.807        0.062      328.471       -5.405      854.361
12/03/2013  17:26:00     -161.145      -28.111      -15.738       29.205       28.716       20.207      852.918      824.585      408.325        1.455        0.104      163.579       13.273        0.007      328.380       -5.554      854.370
12/03/2013  17:27:00     -152.557      -17.002       -9.891       53.570       31.606       27.748     2869.738      998.916      769.930        1.415        0.232      153.502       28.107        0.034      328.301       -5.682      854.369
12/03/2013  17:28:00     -190.339      -44.094      -19.534       40.359       32.109       25.531     1628.846     1030.973      651.841        2.093        0.166      195.380       20.638        0.011      328.269       -5.737      854.396
12/03/2013  17:29:00     -133.542      -21.378      -18.044       28.365       47.767       19.338      804.555     2281.690      373.950        1.104        0.173      135.242       14.257        0.011      328.363       -5.583      854.410
12/03/2013  17:30:00     -167.641      -37.789      -21.077       30.696       24.785       18.570      942.245      614.272      344.842        1.594        0.095      171.847       11.595        0.005      328.320       -5.652      854.420
12/03/2013  17:31:00     -159.679      -30.031      -20.904       33.291       24.997       19.561     1108.317      624.840      382.650        1.448        0.106      162.478        8.731        0.003      328.366       -5.576      854.437
12/03/2013  17:32:00     -136.382      -29.418      -22.240       37.489       36.552       18.367     1405.410     1336.075      337.350        1.152        0.154      139.519       12.042        0.007      328.276       -5.723      854.432
12/03/2013  17:33:00      -59.286      -26.992       -1.192       56.134       30.068       23.659     3150.980      904.107      559.766        0.443        0.231       65.141       21.521        0.109      328.224       -5.807      854.432
12/03/2013  17:34:00      -92.137      -59.932       -7.251       47.666       42.511       23.710     2272.028     1807.154      562.186        0.839        0.232      109.914       19.524        0.032      328.218       -5.818      854.427
12/03/2013  17:35:00     -130.087      -53.304       -7.852       40.815       35.382       18.016     1665.866     1251.866      324.559        1.153        0.162      140.584       15.028        0.011      328.210       -5.831      854.415
12/03/2013  17:36:00      -96.685      -39.871      -26.505       36.009       23.786       23.046     1296.683      565.764      531.131        0.702        0.120      104.583        7.368        0.005      328.308       -5.671      854.395
12/03/2013  17:37:00      -75.541      -24.845       -9.969       43.013       23.921       20.851     1850.138      572.207      434.785        0.464        0.143       79.522        8.924        0.013      328.328       -5.638      854.380
12/03/2013  17:38:00     -110.187      -62.497      -11.667       37.966       37.884       23.175     1441.416     1435.170      537.099        0.980        0.171      126.677       14.707        0.013      328.357       -5.591      854.362
12/03/2013  17:39:00     -119.762      -19.957      -18.754       24.048       29.718       18.699      578.315      883.137      349.644        0.845        0.091      121.413       11.679        0.009      328.364       -5.580      854.366
12/03/2013  17:40:00     -117.949      -38.487      -19.550       38.650       27.773       23.345     1493.797      771.364      544.995        0.929        0.141      124.069        7.930        0.004      328.445       -5.448      854.372
12/03/2013  17:41:00      -92.808      -52.219      -14.561       53.349       23.262       24.265     2846.156      541.118      588.799        0.776        0.199      106.490       21.086        0.039      328.444       -5.449      854.363
12/03/2013  17:42:00      -76.190      -47.611      -30.977       47.785       28.085       19.534     2283.437      788.779      381.593        0.624        0.173       89.843        8.720        0.009      328.430       -5.472      854.350
12/03/2013  17:43:00      -70.608      -27.640       -2.226       71.309       25.319       26.078     5084.989      641.076      680.040        0.608        0.320       75.825       31.669        0.174      328.412       -5.501      854.337
12/03/2013  17:44:00     -113.492      -54.112      -20.763       38.815       27.554       21.627     1506.576      759.248      467.731        0.949        0.137      125.732        8.515        0.005      328.413       -5.500      854.314
12/03/2013  17:45:00     -114.630      -70.085       -9.503       32.576       27.087       23.279     1061.170      733.731      541.915        1.024        0.117      134.357       14.685        0.012      328.379       -5.556      854.291
12/03/2013  17:46:00     -152.373      -57.024      -16.189       32.675       27.365       20.985     1067.628      748.851      440.351        1.449        0.113      162.694       10.917        0.005      328.334       -5.628      854.269
12/03/2013  17:47:00     -148.939      -59.667      -12.786       24.469       27.400       18.493      598.710      750.747      342.009        1.380        0.085      160.446        8.857        0.003      328.310       -5.668      854.267
12/03/2013  17:48:00     -114.182      -39.113       -5.369       30.584       37.197       22.470      935.390     1383.621      504.888        0.871        0.141      120.695       20.460        0.029      328.382       -5.550      854.265
12/03/2013  17:49:00      -82.826        3.343      -11.838       30.298       24.720       20.664      917.973      611.064      427.004        0.448        0.098       82.893       14.414        0.030      328.343       -5.613      854.271
12/03/2013  17:50:00     -132.431       14.791      -14.535       48.976       34.858       20.547     2398.605     1215.075      422.162        1.100        0.202      133.254       20.998        0.025      328.361       -5.585      854.284
12/03/2013  17:51:00     -119.008      -23.376       -8.367       26.935       44.996       24.752      725.494     2024.601      612.662        0.907        0.168      121.282       21.657        0.032      328.378       -5.558      854.305
12/03/2013  17:52:00      -75.800      -63.204       -7.013       73.397       32.265       20.070     5387.139     1041.008      402.794        0.831        0.342       98.694       18.434        0.035      328.434       -5.467      854.321
12/03/2013  17:53:00      -90.763      -65.985       -4.739       62.162       34.611       23.702     3864.165     1197.955      561.776        0.912        0.281      112.214       26.180        0.054      328.333       -5.630      854.323
12/03/2013  17:54:00     -138.079     -110.200       -0.056       68.374       44.363       35.049     4674.966     1968.078     1228.412        1.954        0.394      176.663       36.088        0.042      328.212       -5.830      854.325
12/03/2013  17:55:00     -134.123      -94.166       11.228       52.541       55.935       34.864     2760.542     3128.740     1215.464        1.704        0.355      163.878       26.987        0.027      328.255       -5.758      854.333
12/03/2013  17:56:00     -146.958      -89.597       -5.154       64.226       48.553       30.255     4125.029     2357.439      915.383        1.852        0.370      172.117       33.773        0.039      328.239       -5.785      854.355
12/03/2013  17:57:00     -156.431      -35.935       -5.086       42.576       42.234       28.292     1812.681     1783.747      800.429        1.509        0.220      160.506       28.272        0.031      328.295       -5.692      854.365
12/03/2013  17:58:00     -107.541      -31.741        1.377       55.684       64.365       24.736     3100.756     4142.871      611.891        1.021        0.393      112.128       24.546        0.048      328.441       -5.456      854.364
12/03/2013  17:59:00     -152.991      -69.316       -9.424       57.194       51.899       32.729     3271.148     2693.504     1071.211        1.767        0.352      167.961       32.310        0.037      328.459       -5.426      854.360
12/03/2013  18:00:00     -110.808      -30.253        4.691       46.608       46.521       25.580     2172.328     2164.217      654.358        0.910        0.250      114.864       25.097        0.048      328.494       -5.368      854.369
12/03/2013  18:01:00     -154.692      -19.376       -5.367       61.154       32.074       26.489     3739.791     1028.721      701.679        1.490        0.274      155.900       28.306        0.033      328.471       -5.405      854.365
12/03/2013  18:02:00      -87.071      -27.588       -2.806       48.894       45.740       25.274     2390.590     2092.174      638.775        0.673        0.256       91.337       17.155        0.035      328.485       -5.382      854.360
12/03/2013  18:03:00      -70.539      -16.177        4.535       60.519       26.718       31.488     3662.499      713.850      991.477        0.531        0.268       72.370       38.142        0.278      328.434       -5.465      854.361
12/03/2013  18:04:00     -107.469       -4.650       -9.207       48.755       41.271       21.680     2377.006     1703.289      470.003        0.810        0.228      107.569       17.642        0.027      328.458       -5.428      854.359
12/03/2013  18:05:00      -73.455      -58.738      -13.568       65.324       33.915       27.155     4267.210     1150.257      737.405        0.759        0.308       94.053       30.071        0.102      328.504       -5.351      854.348
12/03/2013  18:06:00      -91.513      -49.803       -1.461       35.629       23.070       19.208     1269.449      532.215      368.943        0.651        0.109      104.187       18.744        0.032      328.574       -5.239      854.344
12/03/2013  18:07:00      -84.440      -41.263        0.056       37.708       26.432       20.640     1421.909      698.677      426.014        0.569        0.127       93.983       22.715        0.058      328.594       -5.206      854.349
12/03/2013  18:08:00      -79.205      -37.989       -3.532       33.318       21.858       16.214     1110.102      477.753      262.889        0.479        0.093       87.845       14.418        0.027      328.631       -5.144      854.361
12/03/2013  18:09:00      -93.270        0.671      -10.693       26.369       21.538       17.196      695.308      463.880      295.713        0.513        0.073       93.272       15.090        0.026      328.466       -5.415      854.370
12/03/2013  18:10:00      -94.380        8.511       -9.522       62.302       22.648       20.991     3881.496      512.939      440.631        0.695        0.242       94.763       28.236        0.089      328.493       -5.368      854.369
12/03/2013  18:11:00     -139.923        4.215      -12.173       30.697       28.313       17.108      942.290      801.605      292.687        1.089        0.102      139.986       13.169        0.009      328.509       -5.344      854.356
12/03/2013  18:12:00     -135.139        9.400      -10.909       33.895       28.901       18.490     1148.855      835.252      341.886        1.040        0.116      135.465       16.957        0.016      328.411       -5.504      854.334
12/03/2013  18:13:00     -132.237       -4.037      -11.232       36.323       28.808       17.346     1319.365      829.885      300.896        1.004        0.123      132.298       13.309        0.010      328.343       -5.613      854.313
12/03/2013  18:14:00     -144.702      -22.908      -23.975       24.543       27.368       13.395      602.374      748.994      179.421        1.178        0.077      146.504       12.435        0.007      328.368       -5.572      854.310
12/03/2013  18:15:00     -119.435      -34.114      -10.531       23.513       37.074       14.225      552.864     1374.447      202.345        0.883        0.106      124.212        7.986        0.004      328.385       -5.545      854.292
12/03/2013  18:16:00      -68.850      -61.060        9.398       89.621       33.506       35.414     8031.879     1122.621     1254.118        0.948        0.520       92.025       50.595        0.302      328.451       -5.439      854.278
12/03/2013  18:17:00      -96.398      -43.170        1.696       39.651       30.170       22.322     1572.185      910.229      498.253        0.707        0.149      105.623       18.083        0.029      328.482       -5.387      854.264
12/03/2013  18:18:00      -68.808      -28.846       -1.670       30.658       28.908       16.713      939.929      835.692      279.331        0.381        0.103       74.610       18.105        0.059      328.486       -5.381      854.263
12/03/2013  18:19:00      -22.090      -34.311        5.749       22.209       25.836       19.293      493.228      667.517      372.213        0.162        0.077       40.807       12.423        0.093      328.632       -5.143      854.274
12/03/2013  18:20:00      -66.627      -14.980        0.480       24.126       19.289       11.781      582.088      372.068      138.785        0.288        0.055       68.291        8.504        0.016      328.654       -5.106      854.292
12/03/2013  18:21:00      -26.802       -0.756        4.275       16.480       14.434        8.797      271.584      208.334       77.395        0.065        0.028       26.813        7.833        0.085      328.566       -5.249      854.309
12/03/2013  18:22:00      -36.420       30.969       -1.454       18.403       17.285       12.998      338.676      298.773      168.949        0.155        0.040       47.807       14.079        0.087      328.538       -5.296      854.318
12/03/2013  18:23:00      -35.827       16.269        6.427       14.434       13.881       10.396      208.346      192.687      108.074        0.105        0.025       39.348        7.684        0.038      328.509       -5.344      854.324
12/03/2013  18:24:00      -33.102       19.355        5.313       22.370       19.352       11.128      500.398      374.511      123.829        0.125        0.050       38.345       11.742        0.094      328.504       -5.350      854.330
12/03/2013  18:25:00      -15.405        7.791        8.500       21.258       13.130       12.747      451.908      172.389      162.495        0.058        0.039       17.263       12.542        0.528      328.478       -5.394      854.332
12/03/2013  18:26:00      -27.451       17.292        8.666       14.585       17.766       10.028      212.720      315.644      100.557        0.088        0.031       32.443        5.227        0.026      328.479       -5.391      854.331
12/03/2013  18:27:00      -28.944        6.344       -1.161       12.296       15.068       11.429      151.191      227.052      130.622        0.069        0.025       29.632        8.382        0.080      328.485       -5.381      854.332
12/03/2013  18:28:00      -12.833       -3.477       -0.086       23.552       10.536        8.886      554.719      110.997       78.963        0.046        0.037       13.295       10.084        0.575      328.463       -5.419      854.306
12/03/2013  18:29:00      -98.940      -13.920       -8.849       24.891       17.173       12.063      619.565      294.914      145.505        0.556        0.053       99.914        8.459        0.007      328.459       -5.424      854.283
12/03/2013  18:30:00     -104.467      -34.767      -10.523       23.440       20.898       16.358      549.429      436.733      267.598        0.674        0.063      110.101       14.792        0.018      328.380       -5.554      854.266
12/03/2013  18:31:00      -79.694      -13.445       -4.774       20.733       19.759       11.971      429.843      390.426      143.308        0.376        0.048       80.820        5.409        0.004      328.452       -5.436      854.263
12/03/2013  18:32:00      -72.491       -8.913       -7.000       42.687       18.555       18.651     1822.178      344.294      347.845        0.395        0.126       73.037       21.273        0.085      328.504       -5.350      854.265
12/03/2013  18:33:00      -67.048        6.420       -3.493       22.708       23.847       14.091      515.671      568.659      198.560        0.292        0.064       67.354       12.469        0.034      328.494       -5.369      854.264
12/03/2013  18:34:00      -77.781       17.158       -6.828       22.588       16.872       16.510      510.217      284.661      272.574        0.373        0.053       79.651       13.130        0.027      328.489       -5.376      854.259
12/03/2013  18:35:00      -86.929       -1.762       -6.955       17.405       17.926        9.217      302.926      321.332       84.950        0.416        0.035       86.947        7.318        0.007      328.531       -5.308      854.254
12/03/2013  18:36:00     -105.144      -40.102       -9.112       15.409       18.488       11.514      237.448      341.811      132.580        0.673        0.036      112.532        7.540        0.004      328.524       -5.319      854.244
12/03/2013  18:37:00      -96.272      -30.590       -5.497       23.119       23.010       14.496      534.466      529.480      210.131        0.575        0.064      101.015        9.380        0.009      328.558       -5.264      854.234
12/03/2013  18:38:00      -88.372      -28.035       -2.738       24.485       25.111       14.256      599.507      630.569      203.225        0.502        0.072       92.712       11.171        0.015      328.558       -5.264      854.221
12/03/2013  18:39:00     -124.461      -54.398        1.253       33.325       28.815       23.302     1110.538      830.286      542.960        1.047        0.124      135.830       20.072        0.022      328.508       -5.346      854.213
12/03/2013  18:40:00     -155.213      -68.902      -12.559       25.459       34.594       20.344      648.151     1196.758      413.890        1.563        0.113      169.819       10.186        0.004      328.604       -5.189      854.206
12/03/2013  18:41:00     -125.429      -60.218       -2.385       39.531       41.540       24.288     1562.692     1725.542      589.906        1.162        0.194      139.135       21.947        0.025      328.644       -5.123      854.198
12/03/2013  18:42:00      -88.984      -10.489        4.700       50.762       33.250       20.009     2576.773     1105.568      400.361        0.607        0.204       89.600       20.003        0.050      328.648       -5.118      854.198
12/03/2013  18:43:00     -149.088      -32.334       -5.291       59.470       38.087       30.413     3536.729     1450.641      924.972        1.461        0.296      152.554       26.811        0.031      328.607       -5.186      854.205
12/03/2013  18:44:00     -147.371      -63.721       -3.564       57.782       52.424       25.007     3338.775     2748.249      625.326        1.625        0.336      160.557       27.478        0.029      328.573       -5.239      854.219
12/03/2013  18:45:00     -133.225      -49.282      -13.181       35.215       26.825       21.225     1240.110      719.581      450.484        1.138        0.121      142.048       18.512        0.017      328.604       -5.190      854.226
12/03/2013  18:46:00      -62.892      -35.883       -6.951       27.823       39.983       17.297      774.130     1598.602      299.182        0.398        0.134       72.408       14.581        0.041      328.676       -5.070      854.232
12/03/2013  18:47:00      -81.982       12.101       -1.999       36.751       24.242       18.686     1350.641      587.687      349.181        0.458        0.114       82.870       17.626        0.045      328.578       -5.230      854.248
12/03/2013  18:48:00      -90.204       13.583        0.405       31.716       18.806       14.863     1005.908      353.658      220.898        0.495        0.079       91.221       15.866        0.030      328.510       -5.342      854.260
12/03/2013  18:49:00      -86.311       24.978       -8.670       23.414       19.010       16.260      548.194      361.377      264.378        0.466        0.059       89.853        7.387        0.007      328.520       -5.324      854.269
12/03/2013  18:50:00      -85.478        1.359       -6.098       21.320       21.540       14.085      454.543      463.974      198.381        0.423        0.056       85.489       12.666        0.022      328.536       -5.299      854.284
12/03/2013  18:51:00     -102.580       -0.722       -6.636       21.358       15.599       12.127      456.181      243.333      147.055        0.571        0.042      102.582        8.464        0.007      328.524       -5.320      854.291
12/03/2013  18:52:00     -106.711        5.773      -10.051       23.628       18.743       12.728      558.269      351.318      162.006        0.630        0.054      106.867       13.262        0.015      328.548       -5.280      854.302
12/03/2013  18:53:00      -83.561       58.734       -7.205       24.899       29.273       16.762      619.982      856.881      280.949        0.612        0.088      102.138       12.099        0.014      328.518       -5.329      854.316
12/03/2013  18:54:00      -81.805       66.229      -12.982       25.173       23.256       14.952      633.682      540.830      223.551        0.632        0.070      105.254       11.542        0.012      328.452       -5.436      854.334
12/03/2013  18:55:00      -68.604       33.782       -3.731       21.150       20.931       14.435      447.338      438.114      208.373        0.348        0.055       76.470       10.959        0.021      328.345       -5.610      854.340
12/03/2013  18:56:00     -108.618       41.836       -6.962       30.472       25.027       21.321      928.549      626.351      454.598        0.780        0.100      116.396       14.660        0.016      328.295       -5.693      854.339
12/03/2013  18:57:00      -61.530      -13.670       -6.262       23.659       25.751       17.782      559.732      663.133      316.212        0.278        0.077       63.030       14.343        0.052      328.388       -5.539      854.340
12/03/2013  18:58:00      -48.407      -10.608       -2.835       19.594       18.377       12.895      383.916      337.731      166.277        0.168        0.044       49.556       10.077        0.041      328.423       -5.483      854.318
12/03/2013  18:59:00      -67.765       16.990        0.452       18.648       16.822       13.370      347.760      282.967      178.746        0.285        0.040       69.863       10.790        0.024      328.548       -5.279      854.307
12/03/2013  19:00:00       -9.324        0.361       15.260       26.433       16.571       11.654      698.682      274.614      135.815        0.071        0.055        9.331       13.750        2.171      328.524       -5.319      854.299
12/03/2013  19:01:00      -15.157       11.476        8.435       21.809        8.898       13.846      475.615       79.169      191.704        0.059        0.037       19.011       13.930        0.537      328.535       -5.302      854.291
12/03/2013  19:02:00      -58.816        5.800       -5.325       15.095       12.815        8.615      227.860      164.222       74.224        0.199        0.023       59.102        6.028        0.010      328.510       -5.341      854.294
12/03/2013  19:03:00      -44.723        8.753       -3.340       13.341       10.971        8.920      177.995      120.366       79.559        0.123        0.019       45.572        6.622        0.021      328.593       -5.206      854.294
12/03/2013  19:04:00      -24.064       13.402        0.350       23.684       11.608        9.917      560.933      134.750       98.350        0.078        0.040       27.544        8.953        0.106      328.635       -5.137      854.305
12/03/2013  19:05:00       -6.960      -11.393        2.098       19.852       14.355       12.921      394.118      206.076      166.948        0.047        0.038       13.351       10.101        0.572      328.627       -5.151      854.319
12/03/2013  19:06:00      -43.131        1.261       -0.380       23.888       22.469       14.122      570.628      504.846      199.436        0.157        0.064       43.150       12.156        0.079      328.601       -5.195      854.333
12/03/2013  19:07:00      -10.933       -1.452        6.740       19.500       14.763       11.115      380.237      217.955      123.552        0.044        0.036       11.029        8.433        0.585      328.695       -5.040      854.347
12/03/2013  19:08:00       -7.604        0.212       -2.268       18.435       12.784       13.602      339.852      163.442      185.002        0.038        0.034        7.607       10.011        1.732      328.672       -5.077      854.359
12/03/2013  19:09:00        4.255        7.431        6.126       10.548       12.688       10.469      111.257      160.983      109.597        0.025        0.019        8.564        3.425        0.160      328.737       -4.971      854.375
12/03/2013  19:10:00       13.375       11.165       18.280       13.234       14.838        8.917      175.134      220.176       79.517        0.056        0.024       17.422        8.126        0.218      328.791       -4.883      854.378
12/03/2013  19:11:00        0.187        4.533        2.478       21.824       25.230       15.652      476.299      636.541      244.985        0.069        0.068        4.537       15.884       12.257      328.790       -4.886      854.380
12/03/2013  19:12:00        0.791        1.626        7.262       13.183       11.507       11.136      173.788      132.401      124.010        0.024        0.022        1.808        9.714       28.863      328.800       -4.868      854.385
12/03/2013  19:13:00      -17.885        3.247        4.959       16.909       13.538       14.627      285.930      183.276      213.940        0.052        0.034       18.177       10.521        0.335      328.804       -4.861      854.390
12/03/2013  19:14:00       -4.075       17.828       -7.743       18.666       20.119       15.650      348.425      404.790      244.921        0.070        0.050       18.287       10.386        0.323      328.843       -4.798      854.402
12/03/2013  19:15:00       41.862       16.921       -0.724       24.123       23.230       18.188      581.938      539.616      330.793        0.175        0.073       45.152       10.490        0.054      328.845       -4.794      854.410
12/03/2013  19:16:00       34.513       41.031       42.172       26.637       26.108       19.893      709.507      681.617      395.742        0.322        0.089       53.616       13.456        0.063      328.850       -4.787      854.397
12/03/2013  19:17:00       30.725       56.811       60.321       27.685       28.306       17.425      766.449      801.213      303.641        0.484        0.094       64.587       10.117        0.025      328.817       -4.841      854.390
12/03/2013  19:18:00       35.325       54.859       49.093       29.368       18.711       20.325      862.470      350.100      413.104        0.415        0.081       65.248       11.088        0.029      328.814       -4.845      854.386
12/03/2013  19:19:00       32.987       54.941       50.446       25.330       21.777       15.859      641.628      474.236      251.516        0.401        0.068       64.083        8.503        0.018      328.848       -4.791      854.394
12/03/2013  19:20:00       32.410       54.692       50.597       25.726       22.216       22.858      661.828      493.548      522.496        0.414        0.084       63.574       18.595        0.086      328.861       -4.771      854.410
12/03/2013  19:21:00       70.706       52.611       41.794       28.209       31.521       27.352      795.771      993.577      748.137        0.603        0.127       88.132       18.042        0.042      328.857       -4.776      854.429
12/03/2013  19:22:00       82.217       53.493       29.415       20.721       14.552       16.112      429.378      211.771      259.583        0.569        0.045       98.087       12.404        0.016      328.773       -4.914      854.444
12/03/2013  19:23:00       91.973       69.578       31.371       16.974       23.303       23.927      288.102      543.015      572.510        0.784        0.070      115.326        9.386        0.007      328.788       -4.888      854.455
12/03/2013  19:24:00       97.588       58.770        3.228       20.072       17.149       15.203      402.904      294.075      231.128        0.696        0.046      113.918       10.029        0.008      328.759       -4.936      854.454
12/03/2013  19:25:00       73.548       29.039       -2.343       35.325       25.598       20.963     1247.847      655.254      439.429        0.430        0.117       79.073       13.708        0.030      328.791       -4.883      854.449
12/03/2013  19:26:00       70.209       43.716        2.990       22.993       22.297       22.493      528.676      497.170      505.945        0.419        0.077       82.707       17.789        0.046      328.776       -4.908      854.436
12/03/2013  19:27:00       64.684       48.137       -1.260       26.869       20.403       19.296      721.950      416.278      372.347        0.401        0.076       80.630        8.340        0.011      328.747       -4.954      854.436
12/03/2013  19:28:00       72.173       55.105        5.230       32.645       23.452       20.134     1065.713      550.008      405.367        0.515        0.101       90.804       11.922        0.017      328.728       -4.987      854.432
12/03/2013  19:29:00       67.998       74.046       -6.646       31.231       26.071       18.099      975.366      679.704      327.567        0.607        0.099      100.532       11.615        0.013      328.720       -4.999      854.426
12/03/2013  19:30:00       16.191       26.563        9.374       27.699       28.496       18.167      767.222      812.026      330.038        0.148        0.095       31.109       12.864        0.171      328.830       -4.820      854.434
12/03/2013  19:31:00       37.241       69.567       -7.870       18.396       34.648       20.495      338.410     1200.455      420.057        0.412        0.098       78.908       22.128        0.079      328.774       -4.912      854.426
12/03/2013  19:32:00       26.333       63.847       -0.272       21.070       30.719       19.417      443.942      943.663      377.016        0.327        0.088       69.064       19.272        0.078      328.811       -4.851      854.401
12/03/2013  19:33:00       14.997       71.173      -11.848       17.788       19.875       10.916      316.411      395.013      119.161        0.313        0.042       72.736        9.704        0.018      328.790       -4.884      854.383
12/03/2013  19:34:00      -15.724      112.006      -12.789       13.876       22.627       10.759      192.537      511.967      115.747        0.689        0.041      113.104        8.527        0.006      328.778       -4.904      854.366
12/03/2013  19:35:00      -12.835       93.807        1.244       22.691       30.301       23.124      514.867      918.161      534.700        0.547        0.098       94.681       19.824        0.044      328.900       -4.707      854.354
12/03/2013  19:36:00       -4.083       78.298        3.540       17.712       32.653       20.306      313.706     1066.192      412.314        0.398        0.090       78.404       19.715        0.063      328.985       -4.566      854.344
12/03/2013  19:37:00        0.729      103.425       -3.811       20.962       26.358       20.137      439.388      694.753      405.484        0.613        0.077      103.428       14.800        0.020      328.859       -4.772      854.348
12/03/2013  19:38:00       15.842       70.418       -6.067       14.036       19.948       12.462      196.997      397.904      155.290        0.300        0.038       72.178        9.441        0.017      328.862       -4.767      854.355
12/03/2013  19:39:00       58.191       33.890        2.499       16.922       10.848       10.896      286.362      117.681      118.721        0.253        0.026       67.340        5.027        0.006      328.884       -4.731      854.348
12/03/2013  19:40:00       41.704       48.279       29.861       26.748       17.700       18.833      715.478      313.299      354.676        0.317        0.069       63.797       10.207        0.026      328.947       -4.628      854.337
12/03/2013  19:41:00       44.829       52.912       35.329       20.446       25.344       22.712      418.022      642.300      515.815        0.382        0.079       69.349       15.969        0.053      329.003       -4.538      854.328
12/03/2013  19:42:00       20.282       36.027       41.883       22.631       20.212       10.012      512.157      408.516      100.236        0.224        0.051       41.344        8.690        0.044      329.019       -4.512      854.328
12/03/2013  19:43:00        9.312       33.637       43.190       14.855       20.113        8.702      220.666      404.534       75.718        0.189        0.035       34.902        8.892        0.065      329.023       -4.505      854.335
12/03/2013  19:44:00       33.802       36.299       32.642       21.258       17.367       18.577      451.918      301.621      345.087        0.231        0.055       49.601        8.577        0.030      329.023       -4.506      854.345
12/03/2013  19:45:00       36.315       32.492        5.616       19.483       13.157       20.724      379.584      173.094      429.465        0.169        0.049       48.729       13.030        0.071      328.889       -4.725      854.362
12/03/2013  19:46:00      -11.846       53.792      -16.634       18.798       13.331        8.333      353.363      177.710       69.446        0.196        0.030       55.081        5.745        0.011      328.834       -4.812      854.385
12/03/2013  19:47:00      -35.736       41.743      -14.204       27.528       15.864       10.567      757.815      251.678      111.659        0.217        0.056       54.951        9.830        0.032      328.855       -4.779      854.400
12/03/2013  19:48:00      -72.588       47.261      -11.840       18.995       22.305       18.106      360.798      497.522      327.811        0.441        0.059       86.618       10.134        0.014      328.896       -4.711      854.407
12/03/2013  19:49:00      -66.102       32.768      -13.519       14.645       19.530        9.975      214.482      381.426       99.501        0.316        0.035       73.778        8.079        0.012      328.996       -4.548      854.401
12/03/2013  19:50:00      -56.220       32.691       -5.144       20.079       17.893       12.584      403.170      320.167      158.358        0.257        0.044       65.034        9.999        0.024      329.140       -4.314      854.390
12/03/2013  19:51:00     -100.714       33.850       -5.826       13.907       12.572       10.316      193.399      158.056      106.423        0.589        0.023      106.250        2.341        0.000      328.971       -4.591      854.382
12/03/2013  19:52:00      -79.985       16.313       -3.602       24.019       23.846       13.919      576.907      568.615      193.732        0.401        0.067       81.631       14.088        0.030      329.000       -4.542      854.373
12/03/2013  19:53:00      -66.797        9.732       -2.906       17.792       19.097       11.394      316.546      364.695      129.813        0.269        0.041       67.502        8.399        0.015      329.027       -4.496      854.368
12/03/2013  19:54:00      -71.416        3.862       -1.769       18.585       19.601       12.185      345.404      384.190      148.480        0.300        0.044       71.520       10.588        0.022      329.080       -4.412      854.365
12/03/2013  19:55:00      -58.914       24.578       -4.657       19.107       19.725       15.642      365.094      389.081      244.671        0.255        0.050       63.835       10.337        0.026      329.046       -4.466      854.371
12/03/2013  19:56:00     -107.088       33.344       -9.479       34.184       13.817       12.873     1168.543      190.913      165.715        0.710        0.076      112.159       15.351        0.019      328.998       -4.546      854.371
12/03/2013  19:57:00     -156.048        8.796      -11.940       29.559       25.981       17.042      873.747      675.023      290.438        1.320        0.092      156.296       15.675        0.010      328.930       -4.656      854.377
12/03/2013  19:58:00     -113.396      -11.068      -11.524       30.824       23.733       15.498      950.107      563.256      240.191        0.743        0.088      113.935       13.483        0.014      329.003       -4.538      854.379
12/03/2013  19:59:00      -91.811      -48.609       -5.071       38.131       23.049       21.942     1453.985      531.253      481.468        0.664        0.123      103.885       15.838        0.023      329.061       -4.443      854.375
12/03/2013  20:00:00      -24.956       -4.068       -0.290       28.197       20.575       17.477      795.085      423.342      305.459        0.108        0.076       25.286       19.928        0.621      329.104       -4.375      854.368
12/03/2013  20:01:00      -53.775       26.409      -12.227       25.162       20.535       13.319      633.133      421.673      177.385        0.249        0.062       59.910        9.539        0.025      328.947       -4.629      854.361
12/03/2013  20:02:00      -50.142       40.881       -6.903       17.937       24.519       17.416      321.736      601.184      303.331        0.273        0.061       64.695        8.169        0.016      328.999       -4.544      854.369
12/03/2013  20:03:00      -64.275       37.267       -3.790       17.692       18.319       14.086      313.002      335.568      198.408        0.319        0.042       74.298        9.327        0.016      329.000       -4.541      854.387
12/03/2013  20:04:00      -59.665       33.011        0.447       33.892       32.215       18.293     1148.653     1037.802      334.651        0.358        0.126       68.188       19.990        0.086      329.010       -4.527      854.415
12/03/2013  20:05:00       11.899       75.461       -7.429       37.580       35.184       19.610     1412.247     1237.916      384.537        0.446        0.152       76.393       19.698        0.066      329.053       -4.456      854.435
12/03/2013  20:06:00       48.662       52.495       -4.330       33.711       29.723       25.716     1136.441      883.435      661.323        0.391        0.134       71.580       16.564        0.054      328.917       -4.679      854.429
12/03/2013  20:07:00       46.507       35.425       10.783       28.948       20.534       20.123      838.002      421.659      404.935        0.260        0.083       58.462       13.582        0.054      328.946       -4.629      854.423
12/03/2013  20:08:00       98.751       41.817        2.193       22.021       22.834       16.761      484.914      521.370      280.926        0.640        0.064      107.240        9.975        0.009      328.914       -4.683      854.419
12/03/2013  20:09:00       81.334       37.024        4.412       21.413       24.280       21.546      458.521      589.522      464.221        0.476        0.076       89.364       14.432        0.026      328.908       -4.694      854.409
12/03/2013  20:10:00       91.608       55.916        8.247       17.991       13.963       16.037      323.684      194.957      257.193        0.618        0.039      107.325        7.797        0.005      328.906       -4.695      854.413
12/03/2013  20:11:00       86.731       47.248       -3.056       13.351       14.062       11.370      178.238      197.734      129.268        0.513        0.025       98.766        4.209        0.002      328.899       -4.705      854.420
12/03/2013  20:12:00       89.819       49.821        8.278       19.997       14.498       16.131      399.867      210.182      260.196        0.574        0.044      102.711       11.715        0.013      328.938       -4.644      854.428
12/03/2013  20:13:00       67.558       30.962       15.974       21.322       23.903       21.264      454.644      571.366      452.139        0.363        0.074       74.315       13.285        0.032      328.963       -4.603      854.432
12/03/2013  20:14:00       75.780       45.385       17.382       26.690       15.729       19.837      712.335      247.397      393.502        0.473        0.068       88.331       19.804        0.050      328.953       -4.619      854.444
12/03/2013  20:15:00       75.060       54.167       13.578       18.555       17.043       18.292      344.277      290.465      334.606        0.486        0.048       92.564       10.176        0.012      328.926       -4.664      854.451
12/03/2013  20:16:00       68.889       43.317       12.106       22.836       14.407       23.931      521.501      207.569      572.685        0.403        0.065       81.376       16.183        0.040      328.935       -4.651      854.469
12/03/2013  20:17:00       62.790       47.982        5.813       16.840       14.749       10.213      283.589      217.520      104.311        0.344        0.030       79.024        4.483        0.003      328.946       -4.631      854.496
12/03/2013  20:18:00       32.964       42.929       -8.459       17.867       31.015       12.973      319.245      961.924      168.308        0.223        0.072       54.125       13.575        0.063      328.942       -4.637      854.505
12/03/2013  20:19:00       45.020       65.986       -1.004       27.802       35.250       26.790      772.973     1242.573      717.680        0.456        0.137       79.881       23.797        0.089      328.958       -4.610      854.512
12/03/2013  20:20:00       55.417       44.641       -5.162       27.772       24.846       25.379      771.284      617.343      644.091        0.356        0.102       71.161       15.280        0.046      328.942       -4.639      854.519
12/03/2013  20:21:00       51.774       69.730       -8.246       23.196       27.146       22.336      538.048      736.905      498.895        0.469        0.089       86.850       15.695        0.033      328.942       -4.637      854.504
12/03/2013  20:22:00       78.472       42.654        4.766       23.607       14.516       18.009      557.295      210.714      324.314        0.455        0.055       89.315       12.169        0.019      328.964       -4.603      854.478
12/03/2013  20:23:00       63.079       46.698        6.305       14.439       22.389       16.242      208.494      501.286      263.798        0.359        0.049       78.484       10.884        0.019      328.962       -4.605      854.446
12/03/2013  20:24:00       55.514       47.971       11.834       14.775       15.305       15.075      218.291      234.249      227.241        0.310        0.034       73.370        7.079        0.009      328.975       -4.583      854.412
12/03/2013  20:25:00       68.124       20.446        8.478       20.154       13.474       18.540      406.191      181.535      343.737        0.303        0.047       71.126        9.257        0.017      329.017       -4.514      854.385
12/03/2013  20:26:00       76.999       50.712       13.790       22.148       23.113       18.797      490.520      534.222      353.325        0.503        0.069       92.198       13.262        0.021      328.995       -4.550      854.355
12/03/2013  20:27:00       78.128       67.146       24.247       19.199       17.055       19.555      368.591      290.870      382.408        0.612        0.052      103.017       12.199        0.014      328.956       -4.615      854.344
12/03/2013  20:28:00       85.394       66.386       25.322       22.931       18.171       18.227      525.813      330.195      332.236        0.676        0.059      108.163       15.967        0.022      328.933       -4.650      854.325
12/03/2013  20:29:00       98.675       56.848       15.225       15.878       13.188       14.346      252.122      173.918      205.818        0.692        0.032      113.879        8.201        0.005      328.960       -4.607      854.311
12/03/2013  20:30:00      102.001       52.001       11.200       29.137       21.475       22.265      848.990      461.184      495.712        0.752        0.090      114.491       16.557        0.021      328.991       -4.557      854.308
12/03/2013  20:31:00       96.517       54.560        9.719       29.089       31.810       23.378      846.195     1011.897      546.512        0.740        0.120      110.871       15.050        0.018      328.974       -4.584      854.317
12/03/2013  20:32:00       93.483       73.653        5.941       26.254       25.800       25.229      689.274      665.625      636.503        0.809        0.100      119.012       15.840        0.018      328.930       -4.657      854.327
12/03/2013  20:33:00      112.470       69.103        8.183       33.901       27.894       26.562     1149.295      778.068      705.550        1.006        0.132      132.003       17.180        0.017      328.892       -4.718      854.337
12/03/2013  20:34:00      101.134       59.021       -3.109       32.451       28.214       24.041     1053.088      796.026      577.972        0.807        0.121      117.096       15.418        0.017      328.887       -4.725      854.358
12/03/2013  20:35:00      113.229       57.705        5.643       36.463       36.702       23.526     1329.586     1347.014      553.455        0.971        0.162      127.085       10.982        0.007      328.882       -4.735      854.380
12/03/2013  20:36:00      111.402       78.068       20.721       35.278       27.162       29.370     1244.515      737.800      862.594        1.089        0.142      136.033       20.443        0.023      328.869       -4.756      854.388
12/03/2013  20:37:00       71.363       62.980       14.219       42.028       31.331       21.368     1766.340      981.634      456.602        0.623        0.160       95.180       18.822        0.039      328.901       -4.702      854.393
12/03/2013  20:38:00       36.785       39.950        4.029       32.620       27.528       22.919     1064.077      757.797      525.284        0.266        0.117       54.306       18.577        0.117      328.898       -4.708      854.413
12/03/2013  20:39:00       24.515       71.946       -6.399       30.707       41.488       25.726      942.890     1721.293      661.811        0.457        0.166       76.008       23.302        0.094      328.868       -4.758      854.431
12/03/2013  20:40:00       39.025       88.626       -9.504       32.482       50.916       35.451     1055.080     2592.432     1256.782        0.719        0.245       96.838       33.336        0.119      328.855       -4.780      854.447
12/03/2013  20:41:00       21.691       65.233        2.643       37.321       52.345       33.067     1392.838     2740.049     1093.411        0.498        0.261       68.745       36.253        0.278      328.859       -4.771      854.473
12/03/2013  20:42:00       33.419       40.091        5.078       29.231       34.275       23.600      854.468     1174.753      556.964        0.267        0.129       52.193       20.760        0.158      328.866       -4.762      854.486
12/03/2013  20:43:00       36.641       38.856        0.405       30.563       24.366       21.056      934.122      593.686      443.368        0.241        0.099       53.408       20.524        0.148      328.844       -4.797      854.496
12/03/2013  20:44:00       62.851       51.240        7.594       34.334       19.305       22.706     1178.806      372.675      515.546        0.435        0.103       81.091       14.146        0.030      328.871       -4.752      854.513
12/03/2013  20:45:00       58.059       58.749       -7.822       30.817       24.249       16.952      949.703      588.038      287.359        0.435        0.091       82.597        8.596        0.011      328.869       -4.755      854.529
12/03/2013  20:46:00       41.892       54.899       -7.277       25.346       22.419       20.988      642.434      502.627      440.485        0.320        0.079       69.056       15.425        0.050      328.877       -4.743      854.539
12/03/2013  20:47:00       73.398       38.444       12.294       30.931       25.099       21.811      956.701      629.944      475.736        0.454        0.103       82.857       11.087        0.018      328.915       -4.681      854.545
12/03/2013  20:48:00       82.616       67.448       15.407       34.103       25.649       26.743     1163.010      657.897      715.200        0.707        0.127      106.652       22.320        0.044      328.878       -4.741      854.553
12/03/2013  20:49:00       84.331       61.741        5.392       31.626       22.460       23.133     1000.208      504.438      535.130        0.650        0.102      104.517       13.571        0.017      328.836       -4.809      854.556
12/03/2013  20:50:00       94.732       70.854        2.886       25.540       20.334       21.343      652.309      413.462      455.528        0.776        0.076      118.298       13.718        0.013      328.848       -4.792      854.557
12/03/2013  20:51:00       78.218       56.136       -1.785       20.401       19.470       20.046      416.220      379.070      401.856        0.523        0.060       96.277       12.409        0.017      328.860       -4.771      854.567
12/03/2013  20:52:00       64.726       48.449        3.559       28.635       18.975       19.479      819.943      360.064      379.435        0.405        0.078       80.850       12.944        0.026      328.890       -4.721      854.578
12/03/2013  20:53:00       47.661       40.960        3.595       26.486       16.271       24.529      701.514      264.759      601.660        0.276        0.078       62.843       13.458        0.046      328.884       -4.733      854.584
12/03/2013  20:54:00       58.839       25.030       -1.539       13.324       18.270       15.095      177.537      333.804      227.862        0.241        0.037       63.941       11.221        0.031      328.906       -4.695      854.584
12/03/2013  20:55:00       41.806       20.255        3.246       11.856       12.345       12.327      140.570      152.399      151.947        0.131        0.022       46.455        3.775        0.007      328.963       -4.604      854.566
12/03/2013  20:56:00       58.735       30.561        2.057       13.436       10.340       11.880      180.529      106.920      141.123        0.241        0.021       66.210        7.325        0.012      328.926       -4.663      854.528
12/03/2013  20:57:00       71.177       29.553        0.203       12.381       11.848       11.536      153.283      140.371      133.074        0.318        0.021       77.069        3.795        0.002      328.940       -4.641      854.502
12/03/2013  20:58:00       44.167       38.644       15.196       21.117       14.119       18.104      445.925      199.339      327.765        0.232        0.049       58.686       16.914        0.083      328.983       -4.571      854.490
12/03/2013  20:59:00       51.152       24.174       14.882       21.606       20.338       24.474      466.837      413.641      598.987        0.245        0.074       56.576       14.780        0.068      328.978       -4.579      854.482
12/03/2013  21:00:00       57.185       39.768        3.810       18.401       14.730       14.175      338.585      216.973      200.927        0.281        0.038       69.653        8.675        0.016      328.992       -4.556      854.489
12/03/2013  21:01:00       19.022       31.913       21.304       31.279       19.536       19.486      978.401      381.644      379.716        0.179        0.087       37.152       11.690        0.099      329.025       -4.501      854.495
12/03/2013  21:02:00       70.637       44.785        9.765       23.991       19.960       22.979      575.547      398.400      528.052        0.430        0.075       83.638       13.831        0.027      329.000       -4.543      854.503
12/03/2013  21:03:00       25.504       49.278       43.402       27.683       20.481       17.789      766.370      419.456      316.454        0.323        0.075       55.486       14.777        0.071      329.015       -4.518      854.490
12/03/2013  21:04:00       64.786       26.066       14.508       22.057       14.384       24.223      486.532      206.885      586.754        0.318        0.064       69.833       15.921        0.052      328.956       -4.615      854.479
12/03/2013  21:05:00        8.794       -9.351       20.020       16.892       23.693       15.332      285.323      561.341      235.070        0.082        0.054       12.837        8.844        0.475      329.034       -4.487      854.465
12/03/2013  21:06:00        6.901       34.729       39.784       20.277       27.655       25.250      411.154      764.801      637.581        0.232        0.091       35.408       24.125        0.464      329.024       -4.502      854.459
12/03/2013  21:07:00        2.179      -29.897       19.753       28.647       47.435       36.369      820.629     2250.094     1322.687        0.284        0.220       29.976       39.451        1.732      329.088       -4.398      854.447
12/03/2013  21:08:00       -9.964      -28.181        3.206       22.631       32.640       17.186      512.149     1065.384      295.372        0.139        0.094       29.891       15.669        0.275      329.071       -4.428      854.437
12/03/2013  21:09:00      -29.384       31.969       10.778       20.886        9.454       10.595      436.235       89.369      112.260        0.132        0.032       43.422        6.554        0.023      329.020       -4.508      854.435
12/03/2013  21:10:00      -43.752       24.804        9.821       16.147       12.984       12.287      260.732      168.589      150.959        0.160        0.029       50.294        6.831        0.018      329.010       -4.524      854.426
12/03/2013  21:11:00      -31.143        0.980        5.821       19.017       18.044       13.399      361.662      325.577      179.545        0.094        0.043       31.158       13.361        0.184      329.131       -4.328      854.413
12/03/2013  21:12:00      -64.545      -52.016        4.750       53.684       31.791       19.059     2882.021     1010.661      363.235        0.557        0.213       82.896       12.647        0.023      329.215       -4.191      854.395
12/03/2013  21:13:00      -97.919      -92.651       -3.779       55.251       39.446       25.120     3052.654     1556.008      631.011        1.171        0.262      134.804       21.137        0.025      329.045       -4.469      854.388
12/03/2013  21:14:00     -157.036      -66.030       -9.494       50.854       46.091       25.533     2586.097     2124.409      651.936        1.724        0.268      170.353       21.324        0.016      329.009       -4.528      854.375
12/03/2013  21:15:00     -128.928      -18.750      -11.620       39.045       38.584       22.629     1524.521     1488.759      512.094        1.032        0.176      130.284        7.959        0.004      328.937       -4.645      854.371
12/03/2013  21:16:00     -169.157      -50.181       -7.751       62.005       45.547       24.576     3844.669     2074.515      603.972        1.886        0.326      176.444       26.311        0.022      328.844       -4.798      854.371
12/03/2013  21:17:00     -112.237      -36.399      -11.136       46.450       43.096       25.367     2157.593     1857.243      643.483        0.935        0.233      117.991       20.035        0.029      328.840       -4.803      854.376
12/03/2013  21:18:00     -134.805       31.060       -9.909       33.394       29.888       19.410     1115.131      893.312      376.738        1.081        0.119      138.337        7.714        0.003      328.766       -4.924      854.389
12/03/2013  21:19:00      -80.999        6.801       -4.003       41.450       22.910       18.901     1718.129      524.887      357.250        0.461        0.130       81.284       17.732        0.048      328.784       -4.896      854.403
12/03/2013  21:20:00     -109.856       24.954      -13.391       50.162       27.272       16.920     2516.218      743.764      286.300        0.821        0.177      112.654       15.869        0.020      328.729       -4.984      854.415
12/03/2013  21:21:00      -95.921       33.689      -11.296       29.517       25.547       12.822      871.234      652.647      164.401        0.608        0.084      101.665        7.368        0.005      328.785       -4.893      854.422
12/03/2013  21:22:00     -104.510      117.860      -33.270       20.473       33.125       17.527      419.163     1097.284      307.208        1.387        0.091      157.522       10.819        0.005      328.730       -4.984      854.419
12/03/2013  21:23:00      -45.994       75.873      -10.311       33.571       42.453       22.104     1127.003     1802.234      488.576        0.570        0.171       88.725       25.369        0.082      328.797       -4.871      854.405
12/03/2013  21:24:00      -70.405        0.670       -9.363       22.566       53.118       13.671      509.214     2821.527      186.904        0.428        0.176       70.409       11.280        0.026      328.854       -4.780      854.380
12/03/2013  21:25:00      -82.052      -18.423       -9.620       19.055       19.070       13.303      363.098      363.655      176.961        0.403        0.045       84.095        9.901        0.014      328.755       -4.941      854.365
12/03/2013  21:26:00      -53.333      -32.227       -8.767       21.243       18.123       12.106      451.246      328.426      146.547        0.244        0.046       62.314       12.053        0.037      328.782       -4.898      854.357
12/03/2013  21:27:00      -69.554      -24.874        1.092       37.296       17.248       19.701     1391.004      297.495      388.119        0.377        0.104       73.868       17.058        0.053      328.858       -4.775      854.367
12/03/2013  21:28:00      -59.872       -8.387       -7.590       24.805       20.496       15.260      615.311      420.092      232.855        0.249        0.063       60.457        8.673        0.021      328.921       -4.672      854.390
12/03/2013  21:29:00      -72.384       26.252       -6.200       32.071       21.427       17.845     1028.551      459.125      318.432        0.389        0.090       76.998       14.452        0.035      328.857       -4.775      854.417
12/03/2013  21:30:00      -71.050       21.474      -15.434       17.192       24.241       17.651      295.553      587.603      311.561        0.347        0.060       74.224       14.728        0.039      328.865       -4.763      854.439
12/03/2013  21:31:00      -70.244       37.778      -16.277       27.257       23.422       13.144      742.970      548.583      172.774        0.405        0.073       79.759        9.487        0.014      328.850       -4.788      854.460
12/03/2013  21:32:00      -74.127       36.469       -9.886       22.892       24.350       16.273      524.063      592.901      264.804        0.415        0.069       82.612       10.917        0.017      328.854       -4.781      854.467
12/03/2013  21:33:00      -64.998       39.813      -17.839       17.938       26.558       15.742      321.776      705.336      247.805        0.370        0.064       76.222       11.567        0.023      328.952       -4.620      854.465
12/03/2013  21:34:00      -44.566        0.971      -11.333       21.910       19.598       18.033      480.046      384.082      325.177        0.165        0.059       44.577       15.526        0.121      328.953       -4.620      854.461
12/03/2013  21:35:00      -60.556        1.900       -4.161       28.859       31.796       12.671      832.818     1010.967      160.563        0.285        0.100       60.585        8.628        0.020      328.952       -4.621      854.453
12/03/2013  21:36:00      -88.514      -28.139      -10.966       18.273       18.614       12.880      333.888      346.475      165.906        0.480        0.042       92.879        6.147        0.004      328.915       -4.681      854.442
12/03/2013  21:37:00      -90.015      -19.076      -12.231       20.209       20.447       12.254      408.394      418.072      150.149        0.480        0.049       92.014        9.114        0.010      328.934       -4.650      854.441
12/03/2013  21:38:00      -82.094      -27.441      -10.843       19.747       14.116       12.731      389.943      199.275      162.071        0.418        0.038       86.559       11.328        0.017      328.953       -4.618      854.441
12/03/2013  21:39:00      -84.375       -6.184      -11.547       19.310       12.439       10.541      372.877      154.723      111.112        0.396        0.032       84.601       10.384        0.015      328.975       -4.584      854.447
12/03/2013  21:40:00      -65.706        6.331       -3.593       17.168       19.245        9.549      294.743      370.356       91.183        0.256        0.038       66.010        7.705        0.014      329.046       -4.466      854.466
12/03/2013  21:41:00      -71.175       13.696       -7.064       19.341       16.555       13.227      374.091      274.073      174.958        0.306        0.041       72.481        8.695        0.014      328.990       -4.558      854.480
12/03/2013  21:42:00      -58.347       16.056       -6.594       13.965       11.482       12.174      195.017      131.826      148.213        0.209        0.024       60.516        5.558        0.008      328.944       -4.634      854.498
12/03/2013  21:43:00      -26.198       15.750       -0.186       17.373        9.794       10.379      301.817       95.931      107.732        0.072        0.025       30.568        9.730        0.101      328.954       -4.619      854.525
12/03/2013  21:44:00       10.331       18.112       11.536       14.228       12.455       10.834      202.447      155.120      117.375        0.052        0.024       20.851        5.061        0.059      329.051       -4.460      854.543
12/03/2013  21:45:00       56.408       45.135       -4.506       23.478       11.483       14.150      551.214      131.868      200.225        0.306        0.044       72.242        7.095        0.010      329.001       -4.540      854.556
12/03/2013  21:46:00       62.912       47.363       -5.415       20.589       17.246       14.398      423.901      297.436      207.312        0.358        0.046       78.748        7.110        0.008      328.955       -4.615      854.570
12/03/2013  21:47:00       25.365       42.035       -2.622       20.078       17.185       12.684      403.107      295.320      160.880        0.164        0.043       49.095       10.899        0.049      328.957       -4.615      854.574
12/03/2013  21:48:00        7.873       72.151       -5.705       16.572       20.153       12.577      274.628      406.155      158.178        0.307        0.042       72.579       11.295        0.024      328.925       -4.664      854.589
12/03/2013  21:49:00       -2.657       54.268       -3.188        6.542       13.475        7.825       42.794      181.581       61.227        0.162        0.014       54.333        2.607        0.002      328.921       -4.671      854.604
12/03/2013  21:50:00       -0.198       42.020       -2.414       11.116       14.144        9.460      123.555      200.060       89.499        0.109        0.021       42.021       10.203        0.059      328.977       -4.580      854.608
12/03/2013  21:51:00        5.056       68.714       -1.600        8.640       21.341        7.163       74.656      455.457       51.306        0.267        0.029       68.900        7.231        0.011      328.931       -4.655      854.607
12/03/2013  21:52:00        4.515       52.856        2.380       15.326       26.258       15.855      234.898      689.472      251.383        0.200        0.059       53.048       16.746        0.100      328.967       -4.595      854.613
12/03/2013  21:53:00       -8.950       70.350       -0.463       14.891       24.245       11.711      221.748      587.818      137.158        0.299        0.047       70.917       10.454        0.022      328.950       -4.625      854.620
12/03/2013  21:54:00      -13.522       74.269       -5.999       16.213       22.403       12.113      262.867      501.895      146.720        0.332        0.046       75.490        8.889        0.014      329.012       -4.523      854.622
12/03/2013  21:55:00       -6.819       71.011       -0.379       19.000       36.329       15.453      360.981     1319.830      238.806        0.350        0.096       71.338       17.811        0.062      329.015       -4.517      854.616
12/03/2013  21:56:00       -8.537       64.996       -3.168       19.002       21.107       13.525      361.064      445.520      182.921        0.265        0.049       65.554        8.491        0.017      329.019       -4.512      854.591
12/03/2013  21:57:00       12.170       24.119        8.262       13.414       24.580       11.643      179.939      604.190      135.559        0.086        0.046       27.016       14.919        0.305      329.064       -4.440      854.553
12/03/2013  21:58:00       -6.219       14.957        1.580       17.720        6.850        9.167      313.996       46.925       84.042        0.035        0.022       16.199        5.222        0.104      328.983       -4.569      854.503
12/03/2013  21:59:00       -9.525        5.635        1.818       11.213        6.956        6.480      125.736       48.380       41.987        0.017        0.011       11.067        5.922        0.286      329.057       -4.449      854.471
12/03/2013  22:00:00      -14.397       15.894        1.573       10.342       12.498        7.214      106.956      156.190       52.039        0.039        0.016       21.445        8.245        0.148      329.042       -4.473      854.470
12/03/2013  22:01:00      -34.598       28.307       -5.915       16.847        8.040        7.232      283.814       64.644       52.302        0.122        0.020       44.703        4.451        0.010      328.974       -4.585      854.484
12/03/2013  22:02:00      -52.493       24.416       -1.967       16.605       11.928        9.749      275.727      142.266       95.045        0.193        0.026       57.893        7.672        0.018      329.006       -4.533      854.496
12/03/2013  22:03:00      -72.376       31.428       -3.914       19.133       19.249       13.458      366.054      370.523      181.116        0.358        0.046       78.904        5.696        0.005      329.018       -4.514      854.495
12/03/2013  22:04:00      -95.475      -11.774      -11.293       28.659       34.288       17.051      821.342     1175.661      290.728        0.583        0.114       96.198       11.592        0.015      328.942       -4.638      854.493
12/03/2013  22:05:00     -153.261      -28.396      -13.950       23.487       24.188       15.186      551.659      585.052      230.615        1.293        0.068      155.870       10.716        0.005      328.674       -5.074      854.490
12/03/2013  22:06:00     -117.738      -23.508      -12.712       31.547       24.957       16.474      995.208      622.842      271.392        0.823        0.094      120.062       11.070        0.009      328.609       -5.180      854.482
12/03/2013  22:07:00     -108.862      -39.130      -13.302       34.515       16.052       14.942     1191.308      257.661      223.277        0.762        0.084      115.681       14.320        0.015      328.558       -5.264      854.470
12/03/2013  22:08:00     -108.849      -20.022      -13.795       18.151       14.433       12.264      329.457      208.302      150.409        0.656        0.034      110.676        5.333        0.002      328.594       -5.206      854.471
12/03/2013  22:09:00     -113.095       -9.776      -13.767       30.584       18.324       14.825      935.353      335.755      219.795        0.728        0.075      113.517       10.369        0.008      328.670       -5.081      854.479
12/03/2013  22:10:00     -105.038       -4.002      -17.575       30.565       20.985       14.660      934.222      440.360      214.922        0.647        0.079      105.114       16.764        0.025      328.698       -5.034      854.491
12/03/2013  22:11:00      -78.320      -11.312      -10.283       38.529       25.607       15.305     1484.456      655.720      234.228        0.437        0.119       79.133       17.503        0.049      328.749       -4.952      854.499
12/03/2013  22:12:00     -104.762        9.284      -10.467       39.119       29.154       23.380     1530.335      849.982      546.636        0.705        0.146      105.173       20.869        0.039      328.645       -5.122      854.490
12/03/2013  22:13:00      -85.414      -18.864       -7.214       37.256       35.720       18.172     1388.046     1275.921      330.209        0.535        0.150       87.472       16.035        0.034      328.607       -5.183      854.468
12/03/2013  22:14:00      -57.472      -18.484        7.545       34.479       29.832       21.191     1188.771      889.958      449.060        0.311        0.126       60.371       20.912        0.120      328.710       -5.016      854.462
12/03/2013  22:15:00      -91.339      -12.919      -10.392       34.671       26.310       15.133     1202.069      692.191      229.006        0.537        0.106       92.248       11.085        0.014      328.742       -4.964      854.474
12/03/2013  22:16:00     -105.132      -26.360      -12.959       27.654       24.149       15.378      764.719      583.173      236.490        0.675        0.079      108.386       13.608        0.016      328.603       -5.191      854.499
12/03/2013  22:17:00      -67.868       -4.863       -1.949       29.520       34.924       19.407      871.441     1219.720      376.624        0.355        0.123       68.042       14.999        0.049      328.615       -5.170      854.521
12/03/2013  22:18:00      -89.970       12.437       -9.078       24.947       22.396       14.346      622.372      501.560      205.810        0.483        0.066       90.826        7.185        0.006      328.591       -5.210      854.532
12/03/2013  22:19:00      -72.086        4.032       -8.125       27.845       22.411       12.455      775.318      502.246      155.120        0.336        0.072       72.199       11.196        0.024      328.644       -5.124      854.530
12/03/2013  22:20:00      -53.796      -13.090       -3.680       26.869       15.962       12.471      721.956      254.793      155.522        0.211        0.057       55.366       13.737        0.062      328.714       -5.009      854.514
12/03/2013  22:21:00      -14.284       14.084        1.318       17.878       21.839       14.495      319.635      476.941      210.103        0.071        0.050       20.060       10.453        0.272      328.751       -4.950      854.514
12/03/2013  22:22:00      -20.943       25.753       -1.687       17.742       17.942       14.125      314.794      321.924      199.524        0.097        0.042       33.194       10.336        0.097      328.737       -4.972      854.528
12/03/2013  22:23:00       10.410       52.100        0.075       32.121       32.562       17.752     1031.747     1060.258      315.149        0.261        0.120       53.130       17.881        0.113      328.843       -4.798      854.562
12/03/2013  22:24:00        0.541       34.178        5.669       20.531       28.915       15.298      421.502      836.106      234.035        0.135        0.075       34.182       15.057        0.194      328.992       -4.557      854.594
12/03/2013  22:25:00       19.385       50.215       -3.289       18.955       26.372       20.419      359.298      695.489      416.941        0.219        0.074       53.827       17.454        0.105      328.842       -4.799      854.618
12/03/2013  22:26:00       46.535       50.210       -3.367       22.839       25.089       19.244      521.624      629.470      370.324        0.311        0.076       68.459       17.179        0.063      328.772       -4.914      854.628
12/03/2013  22:27:00       67.912       31.768        7.456       22.740       17.561       18.631      517.085      308.382      347.123        0.342        0.059       74.975       11.323        0.023      328.841       -4.801      854.623
12/03/2013  22:28:00       71.048       30.643       10.115       19.940       19.303       18.912      397.593      372.601      357.662        0.361        0.056       77.375       13.273        0.029      328.855       -4.779      854.616
12/03/2013  22:29:00       87.056       32.143        4.587       22.604       20.857       19.719      510.947      435.018      388.857        0.498        0.067       92.801       13.276        0.020      328.860       -4.770      854.611
12/03/2013  22:30:00       83.638       52.523       -0.491       17.509       22.184       15.325      306.555      492.120      234.853        0.539        0.052       98.762       12.675        0.016      328.823       -4.831      854.621
12/03/2013  22:31:00       52.324       26.733        6.737       18.342       19.409       15.115      336.434      376.710      228.474        0.222        0.047       58.757       11.862        0.041      328.871       -4.752      854.637
12/03/2013  22:32:00       53.469       35.711        6.129       14.889       20.905       12.524      221.671      437.021      156.845        0.249        0.041       64.298        8.939        0.019      328.844       -4.795      854.644
12/03/2013  22:33:00       68.281       45.641        6.249       22.641       18.979       16.864      512.637      360.191      284.379        0.397        0.058       82.130       16.000        0.038      328.889       -4.723      854.637
12/03/2013  22:34:00       64.336       47.035       11.163       22.776       14.791       17.796      518.727      218.776      316.704        0.376        0.053       79.696       13.452        0.028      328.935       -4.647      854.619
12/03/2013  22:35:00       76.020       42.900       20.012       16.673       15.061       17.208      277.996      226.825      296.103        0.441        0.040       87.290        8.364        0.009      328.931       -4.654      854.604
12/03/2013  22:36:00      103.595       50.115       10.776       23.762       20.796       25.787      564.638      432.493      664.987        0.751        0.083      115.080       18.442        0.026      328.937       -4.644      854.600
12/03/2013  22:37:00      112.043       57.873       15.368       22.707       18.111       20.304      515.628      328.021      412.246        0.870        0.063      126.106        7.617        0.004      328.938       -4.644      854.610
12/03/2013  22:38:00       92.054       48.606       26.851       39.891       25.784       30.858     1591.320      664.840      952.217        0.738        0.160      104.099       25.501        0.060      328.992       -4.555      854.623
12/03/2013  22:39:00       72.165       35.856       25.797       38.855       31.741       32.068     1509.727     1007.482     1028.352        0.535        0.177       80.582       16.601        0.042      328.962       -4.606      854.637
12/03/2013  22:40:00       81.479       39.210       22.139       38.804       27.504       29.142     1505.736      756.462      849.269        0.589        0.156       90.423       16.258        0.032      328.958       -4.611      854.661
12/03/2013  22:41:00       75.252       36.728       45.750       32.172       28.584       27.201     1035.044      817.066      739.905        0.585        0.130       83.737       16.086        0.037      328.954       -4.618      854.680
12/03/2013  22:42:00       69.955       48.189       32.596       36.762       31.546       31.095     1351.448      995.162      966.904        0.580        0.166       84.946       22.995        0.073      328.975       -4.583      854.696
12/03/2013  22:43:00       79.055       44.043       21.400       34.590       26.430       26.566     1196.437      698.549      705.768        0.562        0.130       90.496       19.414        0.046      328.958       -4.610      854.689
12/03/2013  22:44:00       69.564       47.995       21.783       29.277       20.448       24.980      857.161      418.133      623.998        0.476        0.095       84.514       18.077        0.046      328.920       -4.673      854.669
12/03/2013  22:45:00       21.743       21.138       39.410       22.760       25.495       17.882      518.016      649.992      319.761        0.198        0.074       30.325       11.734        0.150      328.991       -4.558      854.643
12/03/2013  22:46:00       24.904       43.625       52.108       25.813       27.311       10.859      666.315      745.880      117.925        0.338        0.077       50.233        7.614        0.023      328.995       -4.551      854.636
12/03/2013  22:47:00       34.380       73.564       67.267       35.471       24.467       25.829     1258.168      598.642      667.114        0.682        0.126       81.201       23.582        0.084      329.028       -4.496      854.662
12/03/2013  22:48:00       32.054       24.345       26.320       36.456       25.868       20.256     1329.036      669.167      410.324        0.236        0.120       40.251       17.756        0.195      328.988       -4.562      854.702
12/03/2013  22:49:00       28.904       36.991        4.854        9.653       16.667       11.941       93.184      277.783      142.588        0.137        0.026       46.944       10.182        0.047      328.915       -4.680      854.719
12/03/2013  22:50:00       55.785       37.250        5.847       11.398       10.912       12.178      129.917      119.065      148.301        0.247        0.020       67.079        6.411        0.009      328.916       -4.679      854.721
12/03/2013  22:51:00       52.597       38.181        1.484       12.357        8.836       11.629      152.691       78.066      135.238        0.230        0.018       64.994        7.419        0.013      328.910       -4.690      854.720
12/03/2013  22:52:00       49.553       41.666       -4.180       26.632       20.606       17.413      709.266      424.611      303.228        0.282        0.072       64.742       12.303        0.036      328.939       -4.644      854.727
12/03/2013  22:53:00       42.727       29.941       10.614       28.736       14.987       20.971      825.734      224.623      439.771        0.216        0.075       52.173       13.960        0.072      328.997       -4.548      854.733
12/03/2013  22:54:00       36.182       20.777        3.451       19.548       15.271       15.619      382.116      233.215      243.963        0.131        0.043       41.723        8.779        0.044      328.941       -4.640      854.727
12/03/2013  22:55:00       23.604       45.795       -4.647       12.869       18.813       10.427      165.612      353.918      108.716        0.165        0.031       51.520       10.792        0.044      328.938       -4.644      854.726
12/03/2013  22:56:00       28.912       19.464        4.620       19.484       11.478       14.227      379.635      131.749      202.400        0.097        0.036       34.853        9.784        0.079      328.956       -4.615      854.724
12/03/2013  22:57:00       41.393       14.643        8.757       17.045        8.801       11.367      290.536       77.464      129.199        0.125        0.025       43.907        9.577        0.048      328.984       -4.568      854.729
12/03/2013  22:58:00       31.197       37.364        0.308       13.394       12.129       11.056      179.400      147.110      122.232        0.141        0.022       48.676        7.971        0.027      328.982       -4.572      854.747
12/03/2013  22:59:00       59.534       42.255        9.097       19.449       15.509       17.338      378.253      240.517      300.620        0.317        0.046       73.005        9.931        0.019      328.964       -4.602      854.771
12/03/2013  23:00:00       59.898       33.842        3.036       23.064       21.195       18.772      531.933      449.226      352.404        0.304        0.067       68.797        9.691        0.020      329.001       -4.540      854.805
12/03/2013  23:01:00       48.123       34.115       10.290       30.245       17.406       16.778      914.743      302.970      281.513        0.254        0.075       58.989       19.191        0.106      328.985       -4.566      854.822
12/03/2013  23:02:00       21.170       10.780       10.732       20.142       18.288       16.924      405.706      334.447      286.408        0.085        0.051       23.757       13.941        0.344      329.026       -4.501      854.836
12/03/2013  23:03:00       15.202       23.334        3.513       10.802       11.799        9.526      116.693      139.211       90.739        0.057        0.017       27.849        6.163        0.049      328.982       -4.572      854.834
12/03/2013  23:04:00        5.013       30.809       -7.946        7.438       12.177        6.766       55.318      148.284       45.783        0.064        0.012       31.214        5.641        0.033      328.927       -4.661      854.819
12/03/2013  23:05:00       -3.689       10.497       -0.647        8.576       13.710        8.578       73.547      187.972       73.580        0.023        0.017       11.126        8.299        0.556      328.967       -4.596      854.799
12/03/2013  23:06:00      -17.193        1.036        1.231        9.665       10.530       12.675       93.413      110.879      160.646        0.033        0.018       17.224        7.303        0.180      329.022       -4.507      854.777
12/03/2013  23:07:00      -69.382        7.986       -8.949        9.949       12.482       11.477       98.974      155.795      131.729        0.267        0.019       69.840        8.257        0.014      329.044       -4.469      854.754
12/03/2013  23:08:00      -38.744      -15.003      -12.309       13.488       12.711       14.141      181.930      161.574      199.964        0.121        0.027       41.548        8.403        0.041      329.030       -4.492      854.725
12/03/2013  23:09:00      -40.915       -0.236       -0.599       11.299       18.395       13.310      127.677      338.364      177.156        0.116        0.032       40.916        6.165        0.023      329.127       -4.335      854.709
12/03/2013  23:10:00      -31.424        4.003        2.978       18.703       16.284       11.372      349.818      265.182      129.312        0.088        0.037       31.678       10.264        0.105      329.163       -4.276      854.722
12/03/2013  23:11:00      -94.084        9.566       -3.673       18.715       14.796       11.696      350.246      218.935      136.795        0.483        0.035       94.570        8.563        0.008      329.113       -4.357      854.738
12/03/2013  23:12:00      -92.323       32.776       -8.579       32.372       23.796       17.082     1047.958      566.265      291.784        0.579        0.095       97.968       14.077        0.021      328.994       -4.554      854.733
12/03/2013  23:13:00      -86.704       -2.382       -7.806       38.229       20.306       10.153     1461.478      412.336      103.088        0.478        0.099       86.736       10.784        0.015      328.961       -4.607      854.720
12/03/2013  23:14:00      -88.619       33.085       -8.276       31.882       21.727       21.107     1016.465      472.065      445.515        0.547        0.097       94.594       14.617        0.024      328.847       -4.790      854.712
12/03/2013  23:15:00     -101.433        7.158       -9.546       24.463       24.417       16.052      598.414      596.214      257.659        0.594        0.073      101.685        8.663        0.007      328.958       -4.611      854.707
12/03/2013  23:16:00      -69.366      -12.777      -10.477       27.173       42.726       19.206      738.361     1825.539      368.853        0.401        0.147       70.533       13.456        0.036      328.949       -4.626      854.715
12/03/2013  23:17:00      -91.797       27.333      -10.992       42.940       22.566       19.673     1843.817      509.232      387.015        0.602        0.137       95.780       18.866        0.039      328.926       -4.663      854.701
12/03/2013  23:18:00      -97.856       -3.092      -14.053       37.761       18.645       15.008     1425.909      347.646      225.248        0.589        0.100       97.905       13.127        0.018      328.772       -4.914      854.680
12/03/2013  23:19:00     -115.040        8.545      -13.813       25.609       22.028       14.555      655.840      485.243      211.855        0.743        0.068      115.357       14.742        0.016      328.796       -4.875      854.667
12/03/2013  23:20:00     -104.351       -4.334      -13.561       23.142       17.189       11.411      535.552      295.464      130.202        0.603        0.048      104.441        9.507        0.008      328.733       -4.978      854.663
12/03/2013  23:21:00      -62.065       -8.613       -5.956       19.016       17.034       13.253      361.595      290.159      175.640        0.239        0.041       62.660        8.205        0.017      328.848       -4.790      854.658
12/03/2013  23:22:00      -79.964       -9.734       -5.832       26.080       21.321       12.022      680.178      454.566      144.539        0.390        0.064       80.554       10.596        0.017      328.802       -4.866      854.659
12/03/2013  23:23:00      -73.678      -10.648       -9.437       21.952       26.214       14.152      481.891      687.200      200.293        0.350        0.068       74.443        8.211        0.012      328.794       -4.879      854.655
12/03/2013  23:24:00      -73.090       -6.952       -6.834       24.595       30.296       14.939      604.892      917.852      223.181        0.359        0.087       73.420       12.089        0.027      328.763       -4.929      854.655
12/03/2013  23:25:00     -122.633      -13.045      -13.305       22.352       19.052       12.554      499.631      362.987      157.605        0.820        0.051      123.325        9.349        0.006      328.798       -4.872      854.664
12/03/2013  23:26:00     -119.572       12.034       -7.227       23.942       32.269       19.644      573.201     1041.306      385.874        0.825        0.100      120.176       14.168        0.014      328.782       -4.897      854.671
12/03/2013  23:27:00      -74.072        3.925      -11.078       19.288       20.691       12.639      372.035      428.129      159.738        0.329        0.048       74.176       11.957        0.026      328.848       -4.790      854.673
12/03/2013  23:28:00       -4.018       16.531        2.560       24.586       19.769       13.413      604.463      390.795      179.919        0.074        0.059       17.012       13.626        0.642      328.883       -4.733      854.672
12/03/2013  23:29:00       32.942       39.255       -1.424       15.661       19.811       18.283      245.261      392.469      334.256        0.180        0.049       51.246       14.748        0.083      328.835       -4.812      854.665
12/03/2013  23:30:00       59.533       41.632        2.013       17.066       11.814       10.463      291.232      139.581      109.468        0.291        0.027       72.645        8.020        0.012      328.855       -4.778      854.664
12/03/2013  23:31:00       98.959       55.720        1.066       21.671       18.089       17.437      469.650      327.198      304.044        0.700        0.055      113.568       10.214        0.008      328.816       -4.842      854.656
12/03/2013  23:32:00      119.189       53.604       -0.525       22.592       15.745       17.820      510.421      247.918      317.566        0.908        0.054      130.688        9.709        0.006      328.748       -4.954      854.642
12/03/2013  23:33:00       94.345       45.933       -0.790       32.270       23.173       16.916     1041.371      536.973      286.159        0.644        0.093      104.932       14.913        0.020      328.725       -4.991      854.624
12/03/2013  23:34:00       55.868       40.522        7.119       18.680       15.799       13.079      348.960      249.595      171.071        0.279        0.038       69.017        9.677        0.020      328.766       -4.923      854.619
12/03/2013  23:35:00       40.635       37.779       -0.302       13.134       13.727        8.850      172.515      188.429       78.327        0.176        0.022       55.483        7.971        0.021      328.765       -4.927      854.634
12/03/2013  23:36:00       33.820       37.004       -0.536       22.567       15.658       13.109      509.287      245.177      171.852        0.172        0.046       50.130        9.533        0.036      328.754       -4.943      854.655
12/03/2013  23:37:00       23.398       39.841       -4.065       15.470       13.978       12.935      239.309      195.382      167.317        0.138        0.030       46.203       11.408        0.061      328.724       -4.992      854.658
12/03/2013  23:38:00       16.116       48.273       -8.894       10.370       10.864        9.096      107.547      118.032       82.729        0.149        0.015       50.892        7.712        0.023      328.730       -4.982      854.645
12/03/2013  23:39:00       20.669       51.332      -10.501        9.513       14.651        8.706       90.496      214.653       75.791        0.178        0.019       55.337        7.940        0.021      328.765       -4.927      854.626
12/03/2013  23:40:00       14.832       60.149       -3.599       10.359       11.187        7.794      107.308      125.151       60.748        0.207        0.015       61.951        5.852        0.009      328.818       -4.839      854.617
12/03/2013  23:41:00       13.603       38.833       -0.815        8.772       12.017        7.085       76.952      144.408       50.194        0.098        0.014       41.147        6.633        0.026      328.870       -4.754      854.621
12/03/2013  23:42:00       21.842       26.770       -1.385        7.211        8.768        5.068       51.992       76.886       25.685        0.068        0.008       34.550        4.089        0.014      328.870       -4.757      854.637
12/03/2013  23:43:00       24.703       27.357        2.495       12.468        8.312        8.804      155.445       69.083       77.505        0.083        0.015       36.860        6.138        0.028      328.903       -4.701      854.657
12/03/2013  23:44:00       49.430       39.634       13.604       13.593        8.283       10.633      184.761       68.611      113.056        0.228        0.018       63.357        5.393        0.007      328.967       -4.595      854.669
12/03/2013  23:45:00       50.342       49.751        7.762       10.443        7.215       10.616      109.053       52.051      112.694        0.267        0.014       70.777        5.879        0.007      328.941       -4.639      854.671
12/03/2013  23:46:00       44.990       28.132        8.775       12.538        9.286        9.158      157.211       86.238       83.874        0.161        0.016       53.061        8.261        0.024      328.910       -4.690      854.670
12/03/2013  23:47:00       58.685       23.539        2.806        9.774       10.271        9.871       95.524      105.499       97.435        0.215        0.015       63.229        4.158        0.004      328.920       -4.673      854.670
12/03/2013  23:48:00       73.475       33.010        5.583       33.306       19.649       15.270     1109.308      386.090      233.176        0.412        0.086       80.549       11.742        0.021      328.767       -4.922      854.670
12/03/2013  23:49:00      107.803       50.582        0.030       17.452       12.621       13.570      304.568      159.295      184.157        0.741        0.032      119.080        6.015        0.003      328.573       -5.240      854.676
12/03/2013  23:50:00       78.883       44.991       -1.903       17.975       23.082       14.240      323.108      532.789      202.766        0.465        0.053       90.811       12.122        0.018      328.576       -5.234      854.674
12/03/2013  23:51:00       50.529       44.517        3.613        7.173        8.819        8.824       51.454       77.768       77.862        0.238        0.010       67.342        3.130        0.002      328.605       -5.187      854.658
12/03/2013  23:52:00       35.604       31.610       22.932       13.011        8.214       10.083      169.275       67.468      101.661        0.157        0.017       47.611        7.931        0.028      328.633       -5.140      854.650
12/03/2013  23:53:00       43.255       23.642       16.443        9.890        8.198       10.888       97.806       67.208      118.551        0.149        0.014       49.295        5.624        0.013      328.705       -5.024      854.650
12/03/2013  23:54:00       36.705       31.472       12.063        7.508        6.993       10.131       56.365       48.903      102.634        0.135        0.010       48.350        2.400        0.002      328.676       -5.073      854.666
12/03/2013  23:55:00       19.891       27.574        4.628        7.253       10.784       10.358       52.604      116.288      107.282        0.073        0.014       34.000        7.747        0.052      328.680       -5.067      854.690
12/03/2013  23:56:00        6.773       58.852       -8.036        6.595       12.231        6.653       43.489      149.598       44.258        0.191        0.012       59.240        3.101        0.003      328.659       -5.101      854.724
12/03/2013  23:57:00        7.442       68.973       -8.554        9.818       11.088        6.841       96.386      122.936       46.805        0.258        0.013       69.374        6.324        0.008      328.682       -5.062      854.756
12/03/2013  23:58:00       12.878       57.518       -8.126        6.802        9.336        5.632       46.263       87.154       31.716        0.185        0.008       58.942        3.248        0.003      328.674       -5.073      854.777
12/03/2013  23:59:00       21.526       21.608       -4.366       10.374        9.037       10.663      107.620       81.674      113.698        0.063        0.015       30.500        8.533        0.078      328.689       -5.050      854.773
